<?xml version="1.0" encoding="UTF-8" standalone="no" ?>
<gpx xmlns="http://www.topografix.com/GPX/1/1" xmlns:xsi="http://www.w3.org/2001/XMLSchema-instance" xsi:schemaLocation="http://www.topografix.com/GPX/1/1 http://www.topografix.com/GPX/1/1/gpx.xsd" version="1.1" creator="VisuGPX - https://www.visugpx.com">
  <metadata>
    <name>Sortie VTT chateau du roc </name>
    <desc><![CDATA[Courses VTT organisé par vtt evasion le 11/08/2013 pour un 45km]]></desc>
  </metadata>
  <trk>
    <name><![CDATA[2013-08-11T06:52:45Z]]></name>
    <trkseg>
      <trkpt lat="44.86579" lon="0.54853">
        <ele>84.2526855</ele>
        <time>2013-08-11T06:52:45Z</time>
      </trkpt>
      <trkpt lat="44.86539" lon="0.54827">
        <ele>83.2913818</ele>
        <time>2013-08-11T06:52:51Z</time>
      </trkpt>
      <trkpt lat="44.86491" lon="0.548">
        <ele>80.8881836</ele>
        <time>2013-08-11T06:52:58Z</time>
      </trkpt>
      <trkpt lat="44.86456" lon="0.54778">
        <ele>79.4460449</ele>
        <time>2013-08-11T06:53:03Z</time>
      </trkpt>
      <trkpt lat="44.86432" lon="0.54747">
        <ele>78.9654541</ele>
        <time>2013-08-11T06:53:07Z</time>
      </trkpt>
      <trkpt lat="44.86401" lon="0.54722">
        <ele>78.0040283</ele>
        <time>2013-08-11T06:53:12Z</time>
      </trkpt>
      <trkpt lat="44.8639" lon="0.54733">
        <ele>78.0040283</ele>
        <time>2013-08-11T06:53:15Z</time>
      </trkpt>
      <trkpt lat="44.8639" lon="0.54747">
        <ele>78.0040283</ele>
        <time>2013-08-11T06:53:17Z</time>
      </trkpt>
      <trkpt lat="44.86394" lon="0.54804">
        <ele>79.9266357</ele>
        <time>2013-08-11T06:53:24Z</time>
      </trkpt>
      <trkpt lat="44.86396" lon="0.54847">
        <ele>80.8881836</ele>
        <time>2013-08-11T06:53:30Z</time>
      </trkpt>
      <trkpt lat="44.86398" lon="0.54866">
        <ele>81.3687744</ele>
        <time>2013-08-11T06:53:34Z</time>
      </trkpt>
      <trkpt lat="44.86391" lon="0.54877">
        <ele>80.8881836</ele>
        <time>2013-08-11T06:53:38Z</time>
      </trkpt>
      <trkpt lat="44.86388" lon="0.54863">
        <ele>80.4074707</ele>
        <time>2013-08-11T06:53:41Z</time>
      </trkpt>
      <trkpt lat="44.86388" lon="0.54856">
        <ele>79.9266357</ele>
        <time>2013-08-11T06:53:42Z</time>
      </trkpt>
      <trkpt lat="44.86381" lon="0.54817">
        <ele>78.9654541</ele>
        <time>2013-08-11T06:53:47Z</time>
      </trkpt>
      <trkpt lat="44.86362" lon="0.5479">
        <ele>78.0040283</ele>
        <time>2013-08-11T06:53:51Z</time>
      </trkpt>
      <trkpt lat="44.86313" lon="0.54734">
        <ele>77.0428467</ele>
        <time>2013-08-11T06:54:00Z</time>
      </trkpt>
      <trkpt lat="44.86272" lon="0.54677">
        <ele>75.6008301</ele>
        <time>2013-08-11T06:54:08Z</time>
      </trkpt>
      <trkpt lat="44.86246" lon="0.54632">
        <ele>74.1588135</ele>
        <time>2013-08-11T06:54:14Z</time>
      </trkpt>
      <trkpt lat="44.86239" lon="0.54618">
        <ele>74.1588135</ele>
        <time>2013-08-11T06:54:17Z</time>
      </trkpt>
      <trkpt lat="44.8623" lon="0.54599">
        <ele>73.6782227</ele>
        <time>2013-08-11T06:54:23Z</time>
      </trkpt>
      <trkpt lat="44.86224" lon="0.54606">
        <ele>73.6782227</ele>
        <time>2013-08-11T06:54:27Z</time>
      </trkpt>
      <trkpt lat="44.8623" lon="0.54618">
        <ele>73.1976318</ele>
        <time>2013-08-11T06:54:30Z</time>
      </trkpt>
      <trkpt lat="44.86248" lon="0.5465">
        <ele>74.6395264</ele>
        <time>2013-08-11T06:54:37Z</time>
      </trkpt>
      <trkpt lat="44.86255" lon="0.54663">
        <ele>75.1202393</ele>
        <time>2013-08-11T06:54:40Z</time>
      </trkpt>
      <trkpt lat="44.86256" lon="0.54679">
        <ele>75.1202393</ele>
        <time>2013-08-11T06:54:44Z</time>
      </trkpt>
      <trkpt lat="44.86246" lon="0.5468">
        <ele>74.1588135</ele>
        <time>2013-08-11T06:54:47Z</time>
      </trkpt>
      <trkpt lat="44.86242" lon="0.54678">
        <ele>74.1588135</ele>
        <time>2013-08-11T06:54:48Z</time>
      </trkpt>
      <trkpt lat="44.86222" lon="0.54659">
        <ele>73.6782227</ele>
        <time>2013-08-11T06:54:53Z</time>
      </trkpt>
      <trkpt lat="44.86183" lon="0.54611">
        <ele>72.7169189</ele>
        <time>2013-08-11T06:55:02Z</time>
      </trkpt>
      <trkpt lat="44.86138" lon="0.54556">
        <ele>71.2749023</ele>
        <time>2013-08-11T06:55:11Z</time>
      </trkpt>
      <trkpt lat="44.86095" lon="0.54507">
        <ele>69.8328857</ele>
        <time>2013-08-11T06:55:19Z</time>
      </trkpt>
      <trkpt lat="44.86078" lon="0.5449">
        <ele>69.8328857</ele>
        <time>2013-08-11T06:55:22Z</time>
      </trkpt>
      <trkpt lat="44.86065" lon="0.54482">
        <ele>69.3522949</ele>
        <time>2013-08-11T06:55:24Z</time>
      </trkpt>
      <trkpt lat="44.86052" lon="0.54477">
        <ele>69.3522949</ele>
        <time>2013-08-11T06:55:26Z</time>
      </trkpt>
      <trkpt lat="44.86002" lon="0.54464">
        <ele>68.871582</ele>
        <time>2013-08-11T06:55:34Z</time>
      </trkpt>
      <trkpt lat="44.85995" lon="0.54462">
        <ele>68.3908691</ele>
        <time>2013-08-11T06:55:36Z</time>
      </trkpt>
      <trkpt lat="44.85988" lon="0.54468">
        <ele>67.9102783</ele>
        <time>2013-08-11T06:55:40Z</time>
      </trkpt>
      <trkpt lat="44.85988" lon="0.54483">
        <ele>67.4296875</ele>
        <time>2013-08-11T06:55:45Z</time>
      </trkpt>
      <trkpt lat="44.85987" lon="0.54495">
        <ele>67.9102783</ele>
        <time>2013-08-11T06:55:49Z</time>
      </trkpt>
      <trkpt lat="44.85986" lon="0.54504">
        <ele>68.871582</ele>
        <time>2013-08-11T06:55:53Z</time>
      </trkpt>
      <trkpt lat="44.85982" lon="0.54525">
        <ele>72.2362061</ele>
        <time>2013-08-11T06:56:00Z</time>
      </trkpt>
      <trkpt lat="44.85979" lon="0.5455">
        <ele>73.1976318</ele>
        <time>2013-08-11T06:56:05Z</time>
      </trkpt>
      <trkpt lat="44.85974" lon="0.54584">
        <ele>73.1976318</ele>
        <time>2013-08-11T06:56:11Z</time>
      </trkpt>
      <trkpt lat="44.85975" lon="0.54595">
        <ele>74.1588135</ele>
        <time>2013-08-11T06:56:13Z</time>
      </trkpt>
      <trkpt lat="44.8597" lon="0.54624">
        <ele>76.0814209</ele>
        <time>2013-08-11T06:56:18Z</time>
      </trkpt>
      <trkpt lat="44.85966" lon="0.5465">
        <ele>76.0814209</ele>
        <time>2013-08-11T06:56:22Z</time>
      </trkpt>
      <trkpt lat="44.85964" lon="0.54663">
        <ele>76.0814209</ele>
        <time>2013-08-11T06:56:24Z</time>
      </trkpt>
      <trkpt lat="44.85961" lon="0.54699">
        <ele>79.9266357</ele>
        <time>2013-08-11T06:56:29Z</time>
      </trkpt>
      <trkpt lat="44.8596" lon="0.54713">
        <ele>80.4074707</ele>
        <time>2013-08-11T06:56:31Z</time>
      </trkpt>
      <trkpt lat="44.85946" lon="0.54711">
        <ele>77.5234375</ele>
        <time>2013-08-11T06:56:34Z</time>
      </trkpt>
      <trkpt lat="44.8592" lon="0.54708">
        <ele>73.6782227</ele>
        <time>2013-08-11T06:56:38Z</time>
      </trkpt>
      <trkpt lat="44.8588" lon="0.54702">
        <ele>71.7554932</ele>
        <time>2013-08-11T06:56:44Z</time>
      </trkpt>
      <trkpt lat="44.85855" lon="0.54691">
        <ele>69.8328857</ele>
        <time>2013-08-11T06:56:48Z</time>
      </trkpt>
      <trkpt lat="44.85842" lon="0.54673">
        <ele>67.9102783</ele>
        <time>2013-08-11T06:56:52Z</time>
      </trkpt>
      <trkpt lat="44.85839" lon="0.54666">
        <ele>68.871582</ele>
        <time>2013-08-11T06:56:53Z</time>
      </trkpt>
      <trkpt lat="44.85835" lon="0.54652">
        <ele>68.3908691</ele>
        <time>2013-08-11T06:56:55Z</time>
      </trkpt>
      <trkpt lat="44.85828" lon="0.54622">
        <ele>66.4682617</ele>
        <time>2013-08-11T06:56:59Z</time>
      </trkpt>
      <trkpt lat="44.8581" lon="0.54582">
        <ele>65.5070801</ele>
        <time>2013-08-11T06:57:04Z</time>
      </trkpt>
      <trkpt lat="44.85791" lon="0.54537">
        <ele>70.3134766</ele>
        <time>2013-08-11T06:57:09Z</time>
      </trkpt>
      <trkpt lat="44.85782" lon="0.54501">
        <ele>66.4682617</ele>
        <time>2013-08-11T06:57:14Z</time>
      </trkpt>
      <trkpt lat="44.85768" lon="0.54469">
        <ele>64.0650635</ele>
        <time>2013-08-11T06:57:19Z</time>
      </trkpt>
      <trkpt lat="44.85755" lon="0.54435">
        <ele>61.6617432</ele>
        <time>2013-08-11T06:57:24Z</time>
      </trkpt>
      <trkpt lat="44.85744" lon="0.54413">
        <ele>62.142334</ele>
        <time>2013-08-11T06:57:27Z</time>
      </trkpt>
      <trkpt lat="44.85737" lon="0.54379">
        <ele>62.142334</ele>
        <time>2013-08-11T06:57:31Z</time>
      </trkpt>
      <trkpt lat="44.85741" lon="0.5435">
        <ele>63.1036377</ele>
        <time>2013-08-11T06:57:34Z</time>
      </trkpt>
      <trkpt lat="44.85756" lon="0.54289">
        <ele>64.0650635</ele>
        <time>2013-08-11T06:57:41Z</time>
      </trkpt>
      <trkpt lat="44.85766" lon="0.54241">
        <ele>64.5456543</ele>
        <time>2013-08-11T06:57:48Z</time>
      </trkpt>
      <trkpt lat="44.85778" lon="0.54179">
        <ele>65.0263672</ele>
        <time>2013-08-11T06:57:57Z</time>
      </trkpt>
      <trkpt lat="44.8578" lon="0.54166">
        <ele>65.0263672</ele>
        <time>2013-08-11T06:57:59Z</time>
      </trkpt>
      <trkpt lat="44.85773" lon="0.54153">
        <ele>65.0263672</ele>
        <time>2013-08-11T06:58:03Z</time>
      </trkpt>
      <trkpt lat="44.85736" lon="0.5414">
        <ele>65.0263672</ele>
        <time>2013-08-11T06:58:11Z</time>
      </trkpt>
      <trkpt lat="44.85695" lon="0.54125">
        <ele>64.0650635</ele>
        <time>2013-08-11T06:58:19Z</time>
      </trkpt>
      <trkpt lat="44.85685" lon="0.54119">
        <ele>63.5843506</ele>
        <time>2013-08-11T06:58:23Z</time>
      </trkpt>
      <trkpt lat="44.85683" lon="0.5412">
        <ele>63.5843506</ele>
        <time>2013-08-11T06:58:31Z</time>
      </trkpt>
      <trkpt lat="44.85679" lon="0.54125">
        <ele>63.5843506</ele>
        <time>2013-08-11T06:58:37Z</time>
      </trkpt>
      <trkpt lat="44.85675" lon="0.54126">
        <ele>63.1036377</ele>
        <time>2013-08-11T06:58:44Z</time>
      </trkpt>
      <trkpt lat="44.85673" lon="0.54125">
        <ele>62.142334</ele>
        <time>2013-08-11T06:58:49Z</time>
      </trkpt>
      <trkpt lat="44.85666" lon="0.54124">
        <ele>60.2197266</ele>
        <time>2013-08-11T06:58:52Z</time>
      </trkpt>
      <trkpt lat="44.85664" lon="0.54122">
        <ele>60.2197266</ele>
        <time>2013-08-11T06:58:53Z</time>
      </trkpt>
      <trkpt lat="44.85664" lon="0.54122">
        <ele>60.2197266</ele>
        <time>2013-08-11T06:58:53Z</time>
      </trkpt>
      <trkpt lat="44.85663" lon="0.54119">
        <ele>59.2584229</ele>
        <time>2013-08-11T06:58:54Z</time>
      </trkpt>
      <trkpt lat="44.85649" lon="0.5412">
        <ele>55.8937988</ele>
        <time>2013-08-11T06:58:59Z</time>
      </trkpt>
      <trkpt lat="44.85633" lon="0.54137">
        <ele>53.9711914</ele>
        <time>2013-08-11T06:59:02Z</time>
      </trkpt>
      <trkpt lat="44.85621" lon="0.54169">
        <ele>52.5291748</ele>
        <time>2013-08-11T06:59:06Z</time>
      </trkpt>
      <trkpt lat="44.85616" lon="0.5423">
        <ele>50.6065674</ele>
        <time>2013-08-11T06:59:13Z</time>
      </trkpt>
      <trkpt lat="44.85603" lon="0.5425">
        <ele>48.2033691</ele>
        <time>2013-08-11T06:59:17Z</time>
      </trkpt>
      <trkpt lat="44.85592" lon="0.54246">
        <ele>46.2806396</ele>
        <time>2013-08-11T06:59:19Z</time>
      </trkpt>
      <trkpt lat="44.85555" lon="0.54229">
        <ele>39.5512695</ele>
        <time>2013-08-11T06:59:26Z</time>
      </trkpt>
      <trkpt lat="44.85549" lon="0.54227">
        <ele>38.5900879</ele>
        <time>2013-08-11T06:59:27Z</time>
      </trkpt>
      <trkpt lat="44.85537" lon="0.54235">
        <ele>35.7060547</ele>
        <time>2013-08-11T06:59:31Z</time>
      </trkpt>
      <trkpt lat="44.85537" lon="0.54245">
        <ele>35.7060547</ele>
        <time>2013-08-11T06:59:33Z</time>
      </trkpt>
      <trkpt lat="44.85534" lon="0.54263">
        <ele>35.2254639</ele>
        <time>2013-08-11T06:59:37Z</time>
      </trkpt>
      <trkpt lat="44.85534" lon="0.54289">
        <ele>36.1867676</ele>
        <time>2013-08-11T06:59:42Z</time>
      </trkpt>
      <trkpt lat="44.85538" lon="0.54321">
        <ele>36.6674805</ele>
        <time>2013-08-11T06:59:47Z</time>
      </trkpt>
      <trkpt lat="44.85543" lon="0.54381">
        <ele>39.5512695</ele>
        <time>2013-08-11T06:59:56Z</time>
      </trkpt>
      <trkpt lat="44.85543" lon="0.54417">
        <ele>40.9934082</ele>
        <time>2013-08-11T07:00:01Z</time>
      </trkpt>
      <trkpt lat="44.85542" lon="0.54446">
        <ele>40.9934082</ele>
        <time>2013-08-11T07:00:05Z</time>
      </trkpt>
      <trkpt lat="44.85542" lon="0.54466">
        <ele>41.473999</ele>
        <time>2013-08-11T07:00:08Z</time>
      </trkpt>
      <trkpt lat="44.85537" lon="0.54502">
        <ele>41.473999</ele>
        <time>2013-08-11T07:00:13Z</time>
      </trkpt>
      <trkpt lat="44.8552" lon="0.54553">
        <ele>44.3580322</ele>
        <time>2013-08-11T07:00:20Z</time>
      </trkpt>
      <trkpt lat="44.85509" lon="0.54601">
        <ele>44.838623</ele>
        <time>2013-08-11T07:00:26Z</time>
      </trkpt>
      <trkpt lat="44.85514" lon="0.54633">
        <ele>45.3192139</ele>
        <time>2013-08-11T07:00:30Z</time>
      </trkpt>
      <trkpt lat="44.85527" lon="0.54648">
        <ele>45.7999268</ele>
        <time>2013-08-11T07:00:33Z</time>
      </trkpt>
      <trkpt lat="44.85537" lon="0.54653">
        <ele>46.2806396</ele>
        <time>2013-08-11T07:00:35Z</time>
      </trkpt>
      <trkpt lat="44.85561" lon="0.54657">
        <ele>50.1259766</ele>
        <time>2013-08-11T07:00:40Z</time>
      </trkpt>
      <trkpt lat="44.85575" lon="0.54654">
        <ele>53.0097656</ele>
        <time>2013-08-11T07:00:43Z</time>
      </trkpt>
      <trkpt lat="44.85587" lon="0.54649">
        <ele>55.8937988</ele>
        <time>2013-08-11T07:00:46Z</time>
      </trkpt>
      <trkpt lat="44.85595" lon="0.54645">
        <ele>58.2971191</ele>
        <time>2013-08-11T07:00:48Z</time>
      </trkpt>
      <trkpt lat="44.85607" lon="0.54634">
        <ele>62.6229248</ele>
        <time>2013-08-11T07:00:52Z</time>
      </trkpt>
      <trkpt lat="44.85622" lon="0.54614">
        <ele>65.5070801</ele>
        <time>2013-08-11T07:00:56Z</time>
      </trkpt>
      <trkpt lat="44.85628" lon="0.54603">
        <ele>64.5456543</ele>
        <time>2013-08-11T07:00:58Z</time>
      </trkpt>
      <trkpt lat="44.85647" lon="0.54578">
        <ele>66.4682617</ele>
        <time>2013-08-11T07:01:04Z</time>
      </trkpt>
      <trkpt lat="44.85657" lon="0.54567">
        <ele>68.3908691</ele>
        <time>2013-08-11T07:01:07Z</time>
      </trkpt>
      <trkpt lat="44.85675" lon="0.54553">
        <ele>70.3134766</ele>
        <time>2013-08-11T07:01:13Z</time>
      </trkpt>
      <trkpt lat="44.85689" lon="0.54557">
        <ele>71.2749023</ele>
        <time>2013-08-11T07:01:17Z</time>
      </trkpt>
      <trkpt lat="44.857" lon="0.5457">
        <ele>69.3522949</ele>
        <time>2013-08-11T07:01:21Z</time>
      </trkpt>
      <trkpt lat="44.85704" lon="0.54591">
        <ele>68.3908691</ele>
        <time>2013-08-11T07:01:25Z</time>
      </trkpt>
      <trkpt lat="44.85698" lon="0.5461">
        <ele>66.4682617</ele>
        <time>2013-08-11T07:01:30Z</time>
      </trkpt>
      <trkpt lat="44.85696" lon="0.54611">
        <ele>64.5456543</ele>
        <time>2013-08-11T07:01:32Z</time>
      </trkpt>
      <trkpt lat="44.85684" lon="0.54618">
        <ele>63.5843506</ele>
        <time>2013-08-11T07:01:37Z</time>
      </trkpt>
      <trkpt lat="44.85683" lon="0.54621">
        <ele>64.0650635</ele>
        <time>2013-08-11T07:01:41Z</time>
      </trkpt>
      <trkpt lat="44.85682" lon="0.54627">
        <ele>64.0650635</ele>
        <time>2013-08-11T07:01:46Z</time>
      </trkpt>
      <trkpt lat="44.85679" lon="0.54628">
        <ele>62.142334</ele>
        <time>2013-08-11T07:01:52Z</time>
      </trkpt>
      <trkpt lat="44.85677" lon="0.54626">
        <ele>59.2584229</ele>
        <time>2013-08-11T07:01:56Z</time>
      </trkpt>
      <trkpt lat="44.85667" lon="0.5462">
        <ele>58.2971191</ele>
        <time>2013-08-11T07:02:02Z</time>
      </trkpt>
      <trkpt lat="44.85664" lon="0.54617">
        <ele>57.3358154</ele>
        <time>2013-08-11T07:02:07Z</time>
      </trkpt>
      <trkpt lat="44.85664" lon="0.54608">
        <ele>57.3358154</ele>
        <time>2013-08-11T07:02:13Z</time>
      </trkpt>
      <trkpt lat="44.85666" lon="0.54604">
        <ele>57.8165283</ele>
        <time>2013-08-11T07:02:19Z</time>
      </trkpt>
      <trkpt lat="44.85667" lon="0.54602">
        <ele>61.1810303</ele>
        <time>2013-08-11T07:02:24Z</time>
      </trkpt>
      <trkpt lat="44.8567" lon="0.54597">
        <ele>65.0263672</ele>
        <time>2013-08-11T07:02:31Z</time>
      </trkpt>
      <trkpt lat="44.85675" lon="0.54591">
        <ele>65.0263672</ele>
        <time>2013-08-11T07:02:36Z</time>
      </trkpt>
      <trkpt lat="44.85675" lon="0.5459">
        <ele>64.0650635</ele>
        <time>2013-08-11T07:02:37Z</time>
      </trkpt>
      <trkpt lat="44.85671" lon="0.54583">
        <ele>58.77771</ele>
        <time>2013-08-11T07:02:46Z</time>
      </trkpt>
      <trkpt lat="44.85667" lon="0.54582">
        <ele>59.7391357</ele>
        <time>2013-08-11T07:02:52Z</time>
      </trkpt>
      <trkpt lat="44.85664" lon="0.54578">
        <ele>58.77771</ele>
        <time>2013-08-11T07:03:01Z</time>
      </trkpt>
      <trkpt lat="44.85662" lon="0.54578">
        <ele>55.8937988</ele>
        <time>2013-08-11T07:03:04Z</time>
      </trkpt>
      <trkpt lat="44.85653" lon="0.54584">
        <ele>51.0871582</ele>
        <time>2013-08-11T07:03:09Z</time>
      </trkpt>
      <trkpt lat="44.85639" lon="0.54604">
        <ele>44.3580322</ele>
        <time>2013-08-11T07:03:15Z</time>
      </trkpt>
      <trkpt lat="44.85631" lon="0.54619">
        <ele>41.473999</ele>
        <time>2013-08-11T07:03:20Z</time>
      </trkpt>
      <trkpt lat="44.85624" lon="0.54634">
        <ele>40.5128174</ele>
        <time>2013-08-11T07:03:25Z</time>
      </trkpt>
      <trkpt lat="44.85622" lon="0.54637">
        <ele>40.5128174</ele>
        <time>2013-08-11T07:03:26Z</time>
      </trkpt>
      <trkpt lat="44.85621" lon="0.54641">
        <ele>42.4354248</ele>
        <time>2013-08-11T07:03:29Z</time>
      </trkpt>
      <trkpt lat="44.85619" lon="0.5465">
        <ele>44.838623</ele>
        <time>2013-08-11T07:03:33Z</time>
      </trkpt>
      <trkpt lat="44.85615" lon="0.54651">
        <ele>48.68396</ele>
        <time>2013-08-11T07:03:37Z</time>
      </trkpt>
      <trkpt lat="44.85603" lon="0.54656">
        <ele>50.6065674</ele>
        <time>2013-08-11T07:03:42Z</time>
      </trkpt>
      <trkpt lat="44.85594" lon="0.5466">
        <ele>50.1259766</ele>
        <time>2013-08-11T07:03:46Z</time>
      </trkpt>
      <trkpt lat="44.85588" lon="0.54666">
        <ele>50.1259766</ele>
        <time>2013-08-11T07:03:51Z</time>
      </trkpt>
      <trkpt lat="44.85566" lon="0.54669">
        <ele>45.3192139</ele>
        <time>2013-08-11T07:03:57Z</time>
      </trkpt>
      <trkpt lat="44.85553" lon="0.54679">
        <ele>41.9547119</ele>
        <time>2013-08-11T07:04:01Z</time>
      </trkpt>
      <trkpt lat="44.85551" lon="0.54696">
        <ele>42.4354248</ele>
        <time>2013-08-11T07:04:07Z</time>
      </trkpt>
      <trkpt lat="44.8555" lon="0.54706">
        <ele>50.1259766</ele>
        <time>2013-08-11T07:04:15Z</time>
      </trkpt>
      <trkpt lat="44.85551" lon="0.54716">
        <ele>53.4904785</ele>
        <time>2013-08-11T07:04:23Z</time>
      </trkpt>
      <trkpt lat="44.85553" lon="0.54724">
        <ele>61.1810303</ele>
        <time>2013-08-11T07:04:33Z</time>
      </trkpt>
      <trkpt lat="44.85555" lon="0.54729">
        <ele>66.4682617</ele>
        <time>2013-08-11T07:04:39Z</time>
      </trkpt>
      <trkpt lat="44.85556" lon="0.54738">
        <ele>68.871582</ele>
        <time>2013-08-11T07:04:46Z</time>
      </trkpt>
      <trkpt lat="44.85556" lon="0.54745">
        <ele>69.8328857</ele>
        <time>2013-08-11T07:04:50Z</time>
      </trkpt>
      <trkpt lat="44.85555" lon="0.54751">
        <ele>71.7554932</ele>
        <time>2013-08-11T07:04:53Z</time>
      </trkpt>
      <trkpt lat="44.85559" lon="0.54759">
        <ele>72.2362061</ele>
        <time>2013-08-11T07:04:59Z</time>
      </trkpt>
      <trkpt lat="44.85567" lon="0.54765">
        <ele>70.7941895</ele>
        <time>2013-08-11T07:05:04Z</time>
      </trkpt>
      <trkpt lat="44.85577" lon="0.54763">
        <ele>71.7554932</ele>
        <time>2013-08-11T07:05:09Z</time>
      </trkpt>
      <trkpt lat="44.85585" lon="0.54757">
        <ele>69.8328857</ele>
        <time>2013-08-11T07:05:14Z</time>
      </trkpt>
      <trkpt lat="44.85587" lon="0.54757">
        <ele>69.8328857</ele>
        <time>2013-08-11T07:05:16Z</time>
      </trkpt>
      <trkpt lat="44.85594" lon="0.54759">
        <ele>66.9489746</ele>
        <time>2013-08-11T07:05:24Z</time>
      </trkpt>
      <trkpt lat="44.85604" lon="0.5476">
        <ele>66.4682617</ele>
        <time>2013-08-11T07:05:30Z</time>
      </trkpt>
      <trkpt lat="44.85611" lon="0.54758">
        <ele>66.9489746</ele>
        <time>2013-08-11T07:05:34Z</time>
      </trkpt>
      <trkpt lat="44.85618" lon="0.54762">
        <ele>69.8328857</ele>
        <time>2013-08-11T07:05:39Z</time>
      </trkpt>
      <trkpt lat="44.85624" lon="0.54745">
        <ele>69.3522949</ele>
        <time>2013-08-11T07:05:46Z</time>
      </trkpt>
      <trkpt lat="44.85632" lon="0.54736">
        <ele>67.9102783</ele>
        <time>2013-08-11T07:05:50Z</time>
      </trkpt>
      <trkpt lat="44.85637" lon="0.54734">
        <ele>67.9102783</ele>
        <time>2013-08-11T07:05:52Z</time>
      </trkpt>
      <trkpt lat="44.85643" lon="0.54733">
        <ele>68.871582</ele>
        <time>2013-08-11T07:05:55Z</time>
      </trkpt>
      <trkpt lat="44.85647" lon="0.54738">
        <ele>69.3522949</ele>
        <time>2013-08-11T07:05:59Z</time>
      </trkpt>
      <trkpt lat="44.8565" lon="0.54741">
        <ele>67.4296875</ele>
        <time>2013-08-11T07:06:04Z</time>
      </trkpt>
      <trkpt lat="44.85651" lon="0.54738">
        <ele>66.4682617</ele>
        <time>2013-08-11T07:06:05Z</time>
      </trkpt>
      <trkpt lat="44.85652" lon="0.54733">
        <ele>65.5070801</ele>
        <time>2013-08-11T07:06:07Z</time>
      </trkpt>
      <trkpt lat="44.85662" lon="0.54733">
        <ele>66.9489746</ele>
        <time>2013-08-11T07:06:11Z</time>
      </trkpt>
      <trkpt lat="44.85666" lon="0.54732">
        <ele>66.9489746</ele>
        <time>2013-08-11T07:06:12Z</time>
      </trkpt>
      <trkpt lat="44.85682" lon="0.54721">
        <ele>64.5456543</ele>
        <time>2013-08-11T07:06:17Z</time>
      </trkpt>
      <trkpt lat="44.85695" lon="0.54728">
        <ele>65.9876709</ele>
        <time>2013-08-11T07:06:22Z</time>
      </trkpt>
      <trkpt lat="44.85708" lon="0.54742">
        <ele>65.5070801</ele>
        <time>2013-08-11T07:06:28Z</time>
      </trkpt>
      <trkpt lat="44.85717" lon="0.54757">
        <ele>65.9876709</ele>
        <time>2013-08-11T07:06:33Z</time>
      </trkpt>
      <trkpt lat="44.85714" lon="0.54776">
        <ele>67.9102783</ele>
        <time>2013-08-11T07:06:38Z</time>
      </trkpt>
      <trkpt lat="44.85699" lon="0.54795">
        <ele>67.9102783</ele>
        <time>2013-08-11T07:06:45Z</time>
      </trkpt>
      <trkpt lat="44.85682" lon="0.54814">
        <ele>68.3908691</ele>
        <time>2013-08-11T07:06:52Z</time>
      </trkpt>
      <trkpt lat="44.85663" lon="0.54836">
        <ele>68.871582</ele>
        <time>2013-08-11T07:06:59Z</time>
      </trkpt>
      <trkpt lat="44.8564" lon="0.54872">
        <ele>69.8328857</ele>
        <time>2013-08-11T07:07:08Z</time>
      </trkpt>
      <trkpt lat="44.85627" lon="0.54905">
        <ele>69.3522949</ele>
        <time>2013-08-11T07:07:14Z</time>
      </trkpt>
      <trkpt lat="44.85623" lon="0.54931">
        <ele>68.871582</ele>
        <time>2013-08-11T07:07:18Z</time>
      </trkpt>
      <trkpt lat="44.8562" lon="0.54959">
        <ele>67.9102783</ele>
        <time>2013-08-11T07:07:22Z</time>
      </trkpt>
      <trkpt lat="44.8562" lon="0.54982">
        <ele>67.4296875</ele>
        <time>2013-08-11T07:07:25Z</time>
      </trkpt>
      <trkpt lat="44.85629" lon="0.55008">
        <ele>66.9489746</ele>
        <time>2013-08-11T07:07:29Z</time>
      </trkpt>
      <trkpt lat="44.85646" lon="0.55013">
        <ele>68.871582</ele>
        <time>2013-08-11T07:07:32Z</time>
      </trkpt>
      <trkpt lat="44.85659" lon="0.55016">
        <ele>69.3522949</ele>
        <time>2013-08-11T07:07:34Z</time>
      </trkpt>
      <trkpt lat="44.85709" lon="0.55022">
        <ele>70.3134766</ele>
        <time>2013-08-11T07:07:42Z</time>
      </trkpt>
      <trkpt lat="44.85749" lon="0.55027">
        <ele>69.3522949</ele>
        <time>2013-08-11T07:07:49Z</time>
      </trkpt>
      <trkpt lat="44.85791" lon="0.55032">
        <ele>70.3134766</ele>
        <time>2013-08-11T07:07:56Z</time>
      </trkpt>
      <trkpt lat="44.85836" lon="0.55037">
        <ele>71.7554932</ele>
        <time>2013-08-11T07:08:04Z</time>
      </trkpt>
      <trkpt lat="44.85886" lon="0.55043">
        <ele>74.1588135</ele>
        <time>2013-08-11T07:08:13Z</time>
      </trkpt>
      <trkpt lat="44.8593" lon="0.55046">
        <ele>75.6008301</ele>
        <time>2013-08-11T07:08:21Z</time>
      </trkpt>
      <trkpt lat="44.85936" lon="0.55047">
        <ele>76.0814209</ele>
        <time>2013-08-11T07:08:22Z</time>
      </trkpt>
      <trkpt lat="44.85962" lon="0.55049">
        <ele>76.0814209</ele>
        <time>2013-08-11T07:08:27Z</time>
      </trkpt>
      <trkpt lat="44.85988" lon="0.55052">
        <ele>77.0428467</ele>
        <time>2013-08-11T07:08:32Z</time>
      </trkpt>
      <trkpt lat="44.85993" lon="0.55053">
        <ele>77.5234375</ele>
        <time>2013-08-11T07:08:33Z</time>
      </trkpt>
      <trkpt lat="44.85993" lon="0.55053">
        <ele>77.5234375</ele>
        <time>2013-08-11T07:08:33Z</time>
      </trkpt>
      <trkpt lat="44.86007" lon="0.55054">
        <ele>78.9654541</ele>
        <time>2013-08-11T07:08:36Z</time>
      </trkpt>
      <trkpt lat="44.86028" lon="0.55069">
        <ele>79.9266357</ele>
        <time>2013-08-11T07:08:41Z</time>
      </trkpt>
      <trkpt lat="44.86042" lon="0.55097">
        <ele>81.8493652</ele>
        <time>2013-08-11T07:08:46Z</time>
      </trkpt>
      <trkpt lat="44.86048" lon="0.55107">
        <ele>83.2913818</ele>
        <time>2013-08-11T07:08:48Z</time>
      </trkpt>
      <trkpt lat="44.86061" lon="0.55123">
        <ele>84.2526855</ele>
        <time>2013-08-11T07:08:52Z</time>
      </trkpt>
      <trkpt lat="44.86072" lon="0.55142">
        <ele>82.810791</ele>
        <time>2013-08-11T07:08:56Z</time>
      </trkpt>
      <trkpt lat="44.86082" lon="0.55156">
        <ele>81.8493652</ele>
        <time>2013-08-11T07:08:59Z</time>
      </trkpt>
      <trkpt lat="44.86104" lon="0.55174">
        <ele>82.810791</ele>
        <time>2013-08-11T07:09:04Z</time>
      </trkpt>
      <trkpt lat="44.8613" lon="0.55195">
        <ele>83.2913818</ele>
        <time>2013-08-11T07:09:09Z</time>
      </trkpt>
      <trkpt lat="44.86151" lon="0.55213">
        <ele>81.3687744</ele>
        <time>2013-08-11T07:09:13Z</time>
      </trkpt>
      <trkpt lat="44.8616" lon="0.55226">
        <ele>80.8881836</ele>
        <time>2013-08-11T07:09:15Z</time>
      </trkpt>
      <trkpt lat="44.86167" lon="0.55241">
        <ele>81.3687744</ele>
        <time>2013-08-11T07:09:17Z</time>
      </trkpt>
      <trkpt lat="44.86174" lon="0.55273">
        <ele>79.9266357</ele>
        <time>2013-08-11T07:09:21Z</time>
      </trkpt>
      <trkpt lat="44.86181" lon="0.553">
        <ele>77.5234375</ele>
        <time>2013-08-11T07:09:24Z</time>
      </trkpt>
      <trkpt lat="44.86182" lon="0.55316">
        <ele>75.6008301</ele>
        <time>2013-08-11T07:09:26Z</time>
      </trkpt>
      <trkpt lat="44.86191" lon="0.55349">
        <ele>76.5621338</ele>
        <time>2013-08-11T07:09:31Z</time>
      </trkpt>
      <trkpt lat="44.86207" lon="0.55374">
        <ele>75.6008301</ele>
        <time>2013-08-11T07:09:36Z</time>
      </trkpt>
      <trkpt lat="44.86227" lon="0.55393">
        <ele>76.0814209</ele>
        <time>2013-08-11T07:09:41Z</time>
      </trkpt>
      <trkpt lat="44.8625" lon="0.55412">
        <ele>78.0040283</ele>
        <time>2013-08-11T07:09:47Z</time>
      </trkpt>
      <trkpt lat="44.86263" lon="0.5542">
        <ele>81.3687744</ele>
        <time>2013-08-11T07:09:50Z</time>
      </trkpt>
      <trkpt lat="44.86279" lon="0.5543">
        <ele>85.2139893</ele>
        <time>2013-08-11T07:09:54Z</time>
      </trkpt>
      <trkpt lat="44.86288" lon="0.55435">
        <ele>87.6171875</ele>
        <time>2013-08-11T07:09:56Z</time>
      </trkpt>
      <trkpt lat="44.86302" lon="0.5544">
        <ele>92.4239502</ele>
        <time>2013-08-11T07:09:59Z</time>
      </trkpt>
      <trkpt lat="44.86312" lon="0.55448">
        <ele>94.8271484</ele>
        <time>2013-08-11T07:10:02Z</time>
      </trkpt>
      <trkpt lat="44.8632" lon="0.55458">
        <ele>95.7884521</ele>
        <time>2013-08-11T07:10:06Z</time>
      </trkpt>
      <trkpt lat="44.86323" lon="0.55461">
        <ele>93.3851318</ele>
        <time>2013-08-11T07:10:10Z</time>
      </trkpt>
      <trkpt lat="44.86325" lon="0.55461">
        <ele>92.4239502</ele>
        <time>2013-08-11T07:10:12Z</time>
      </trkpt>
      <trkpt lat="44.86334" lon="0.55465">
        <ele>90.0206299</ele>
        <time>2013-08-11T07:10:17Z</time>
      </trkpt>
      <trkpt lat="44.8635" lon="0.5547">
        <ele>89.539917</ele>
        <time>2013-08-11T07:10:23Z</time>
      </trkpt>
      <trkpt lat="44.86362" lon="0.55478">
        <ele>89.539917</ele>
        <time>2013-08-11T07:10:27Z</time>
      </trkpt>
      <trkpt lat="44.86375" lon="0.5549">
        <ele>90.9819336</ele>
        <time>2013-08-11T07:10:32Z</time>
      </trkpt>
      <trkpt lat="44.864" lon="0.5551">
        <ele>92.4239502</ele>
        <time>2013-08-11T07:10:39Z</time>
      </trkpt>
      <trkpt lat="44.8642" lon="0.55529">
        <ele>91.9432373</ele>
        <time>2013-08-11T07:10:45Z</time>
      </trkpt>
      <trkpt lat="44.86423" lon="0.55532">
        <ele>91.4625244</ele>
        <time>2013-08-11T07:10:46Z</time>
      </trkpt>
      <trkpt lat="44.86438" lon="0.55554">
        <ele>90.9819336</ele>
        <time>2013-08-11T07:10:52Z</time>
      </trkpt>
      <trkpt lat="44.86452" lon="0.55579">
        <ele>92.4239502</ele>
        <time>2013-08-11T07:10:57Z</time>
      </trkpt>
      <trkpt lat="44.86454" lon="0.55585">
        <ele>92.904541</ele>
        <time>2013-08-11T07:10:58Z</time>
      </trkpt>
      <trkpt lat="44.86458" lon="0.55601">
        <ele>92.904541</ele>
        <time>2013-08-11T07:11:01Z</time>
      </trkpt>
      <trkpt lat="44.86461" lon="0.55627">
        <ele>97.7111816</ele>
        <time>2013-08-11T07:11:07Z</time>
      </trkpt>
      <trkpt lat="44.86462" lon="0.55659">
        <ele>102.0371094</ele>
        <time>2013-08-11T07:11:13Z</time>
      </trkpt>
      <trkpt lat="44.8646" lon="0.55683">
        <ele>107.3243408</ele>
        <time>2013-08-11T07:11:17Z</time>
      </trkpt>
      <trkpt lat="44.86458" lon="0.55714">
        <ele>114.0535889</ele>
        <time>2013-08-11T07:11:23Z</time>
      </trkpt>
      <trkpt lat="44.86462" lon="0.55737">
        <ele>111.6502686</ele>
        <time>2013-08-11T07:11:28Z</time>
      </trkpt>
      <trkpt lat="44.8646" lon="0.55768">
        <ele>109.2469482</ele>
        <time>2013-08-11T07:11:34Z</time>
      </trkpt>
      <trkpt lat="44.86459" lon="0.55799">
        <ele>105.4017334</ele>
        <time>2013-08-11T07:11:40Z</time>
      </trkpt>
      <trkpt lat="44.86457" lon="0.55825">
        <ele>101.5563965</ele>
        <time>2013-08-11T07:11:45Z</time>
      </trkpt>
      <trkpt lat="44.86452" lon="0.55853">
        <ele>100.114502</ele>
        <time>2013-08-11T07:11:51Z</time>
      </trkpt>
      <trkpt lat="44.86448" lon="0.55885">
        <ele>98.6724854</ele>
        <time>2013-08-11T07:11:57Z</time>
      </trkpt>
      <trkpt lat="44.86437" lon="0.55928">
        <ele>98.6724854</ele>
        <time>2013-08-11T07:12:05Z</time>
      </trkpt>
      <trkpt lat="44.86435" lon="0.55933">
        <ele>99.1530762</ele>
        <time>2013-08-11T07:12:06Z</time>
      </trkpt>
      <trkpt lat="44.86426" lon="0.5595">
        <ele>99.1530762</ele>
        <time>2013-08-11T07:12:10Z</time>
      </trkpt>
      <trkpt lat="44.86416" lon="0.55968">
        <ele>99.1530762</ele>
        <time>2013-08-11T07:12:14Z</time>
      </trkpt>
      <trkpt lat="44.86402" lon="0.55999">
        <ele>100.5950928</ele>
        <time>2013-08-11T07:12:21Z</time>
      </trkpt>
      <trkpt lat="44.86399" lon="0.56027">
        <ele>100.5950928</ele>
        <time>2013-08-11T07:12:26Z</time>
      </trkpt>
      <trkpt lat="44.86399" lon="0.56078">
        <ele>99.6337891</ele>
        <time>2013-08-11T07:12:34Z</time>
      </trkpt>
      <trkpt lat="44.864" lon="0.56084">
        <ele>99.1530762</ele>
        <time>2013-08-11T07:12:35Z</time>
      </trkpt>
      <trkpt lat="44.86403" lon="0.56103">
        <ele>98.6724854</ele>
        <time>2013-08-11T07:12:39Z</time>
      </trkpt>
      <trkpt lat="44.86402" lon="0.56128">
        <ele>96.2692871</ele>
        <time>2013-08-11T07:12:45Z</time>
      </trkpt>
      <trkpt lat="44.86403" lon="0.56131">
        <ele>96.7498779</ele>
        <time>2013-08-11T07:12:46Z</time>
      </trkpt>
      <trkpt lat="44.86419" lon="0.56132">
        <ele>96.2692871</ele>
        <time>2013-08-11T07:12:51Z</time>
      </trkpt>
      <trkpt lat="44.8643" lon="0.56135">
        <ele>96.7498779</ele>
        <time>2013-08-11T07:12:55Z</time>
      </trkpt>
      <trkpt lat="44.8643" lon="0.5614">
        <ele>95.7884521</ele>
        <time>2013-08-11T07:12:57Z</time>
      </trkpt>
      <trkpt lat="44.86424" lon="0.56154">
        <ele>98.1918945</ele>
        <time>2013-08-11T07:13:01Z</time>
      </trkpt>
      <trkpt lat="44.8642" lon="0.56179">
        <ele>93.8658447</ele>
        <time>2013-08-11T07:13:06Z</time>
      </trkpt>
      <trkpt lat="44.86419" lon="0.56182">
        <ele>93.3851318</ele>
        <time>2013-08-11T07:13:07Z</time>
      </trkpt>
      <trkpt lat="44.86422" lon="0.56212">
        <ele>90.9819336</ele>
        <time>2013-08-11T07:13:15Z</time>
      </trkpt>
      <trkpt lat="44.86429" lon="0.56231">
        <ele>89.539917</ele>
        <time>2013-08-11T07:13:19Z</time>
      </trkpt>
      <trkpt lat="44.86435" lon="0.56255">
        <ele>86.175293</ele>
        <time>2013-08-11T07:13:24Z</time>
      </trkpt>
      <trkpt lat="44.86443" lon="0.56277">
        <ele>85.2139893</ele>
        <time>2013-08-11T07:13:28Z</time>
      </trkpt>
      <trkpt lat="44.86453" lon="0.56297">
        <ele>83.2913818</ele>
        <time>2013-08-11T07:13:33Z</time>
      </trkpt>
      <trkpt lat="44.86461" lon="0.56305">
        <ele>89.0593262</ele>
        <time>2013-08-11T07:13:37Z</time>
      </trkpt>
      <trkpt lat="44.86464" lon="0.56309">
        <ele>93.8658447</ele>
        <time>2013-08-11T07:13:40Z</time>
      </trkpt>
      <trkpt lat="44.86472" lon="0.56313">
        <ele>94.8271484</ele>
        <time>2013-08-11T07:13:47Z</time>
      </trkpt>
      <trkpt lat="44.86483" lon="0.56327">
        <ele>96.2692871</ele>
        <time>2013-08-11T07:13:52Z</time>
      </trkpt>
      <trkpt lat="44.86484" lon="0.56331">
        <ele>97.2304688</ele>
        <time>2013-08-11T07:13:53Z</time>
      </trkpt>
      <trkpt lat="44.8649" lon="0.56344">
        <ele>97.7111816</ele>
        <time>2013-08-11T07:13:58Z</time>
      </trkpt>
      <trkpt lat="44.86494" lon="0.56361">
        <ele>94.3465576</ele>
        <time>2013-08-11T07:14:02Z</time>
      </trkpt>
      <trkpt lat="44.86501" lon="0.5639">
        <ele>94.3465576</ele>
        <time>2013-08-11T07:14:06Z</time>
      </trkpt>
      <trkpt lat="44.86502" lon="0.56403">
        <ele>93.8658447</ele>
        <time>2013-08-11T07:14:08Z</time>
      </trkpt>
      <trkpt lat="44.86504" lon="0.56428">
        <ele>92.4239502</ele>
        <time>2013-08-11T07:14:14Z</time>
      </trkpt>
      <trkpt lat="44.86515" lon="0.56429">
        <ele>90.9819336</ele>
        <time>2013-08-11T07:14:19Z</time>
      </trkpt>
      <trkpt lat="44.86521" lon="0.56434">
        <ele>90.0206299</ele>
        <time>2013-08-11T07:14:22Z</time>
      </trkpt>
      <trkpt lat="44.86529" lon="0.56443">
        <ele>89.539917</ele>
        <time>2013-08-11T07:14:26Z</time>
      </trkpt>
      <trkpt lat="44.86541" lon="0.56443">
        <ele>90.0206299</ele>
        <time>2013-08-11T07:14:30Z</time>
      </trkpt>
      <trkpt lat="44.8656" lon="0.56445">
        <ele>88.5787354</ele>
        <time>2013-08-11T07:14:36Z</time>
      </trkpt>
      <trkpt lat="44.86565" lon="0.56448">
        <ele>88.5787354</ele>
        <time>2013-08-11T07:14:38Z</time>
      </trkpt>
      <trkpt lat="44.86576" lon="0.56445">
        <ele>87.6171875</ele>
        <time>2013-08-11T07:14:43Z</time>
      </trkpt>
      <trkpt lat="44.86582" lon="0.56439">
        <ele>90.0206299</ele>
        <time>2013-08-11T07:14:48Z</time>
      </trkpt>
      <trkpt lat="44.86587" lon="0.56422">
        <ele>88.0980225</ele>
        <time>2013-08-11T07:14:55Z</time>
      </trkpt>
      <trkpt lat="44.86589" lon="0.56415">
        <ele>89.0593262</ele>
        <time>2013-08-11T07:14:58Z</time>
      </trkpt>
      <trkpt lat="44.86595" lon="0.56415">
        <ele>90.0206299</ele>
        <time>2013-08-11T07:15:02Z</time>
      </trkpt>
      <trkpt lat="44.86607" lon="0.5641">
        <ele>93.8658447</ele>
        <time>2013-08-11T07:15:08Z</time>
      </trkpt>
      <trkpt lat="44.8662" lon="0.56408">
        <ele>92.904541</ele>
        <time>2013-08-11T07:15:14Z</time>
      </trkpt>
      <trkpt lat="44.86632" lon="0.564">
        <ele>94.3465576</ele>
        <time>2013-08-11T07:15:19Z</time>
      </trkpt>
      <trkpt lat="44.86642" lon="0.56387">
        <ele>95.7884521</ele>
        <time>2013-08-11T07:15:23Z</time>
      </trkpt>
      <trkpt lat="44.86645" lon="0.56382">
        <ele>96.2692871</ele>
        <time>2013-08-11T07:15:25Z</time>
      </trkpt>
      <trkpt lat="44.86653" lon="0.56382">
        <ele>94.3465576</ele>
        <time>2013-08-11T07:15:30Z</time>
      </trkpt>
      <trkpt lat="44.86658" lon="0.56368">
        <ele>96.2692871</ele>
        <time>2013-08-11T07:15:35Z</time>
      </trkpt>
      <trkpt lat="44.86664" lon="0.56366">
        <ele>97.2304688</ele>
        <time>2013-08-11T07:15:38Z</time>
      </trkpt>
      <trkpt lat="44.86673" lon="0.56375">
        <ele>97.7111816</ele>
        <time>2013-08-11T07:15:42Z</time>
      </trkpt>
      <trkpt lat="44.8668" lon="0.56379">
        <ele>98.6724854</ele>
        <time>2013-08-11T07:15:46Z</time>
      </trkpt>
      <trkpt lat="44.86688" lon="0.56374">
        <ele>98.1918945</ele>
        <time>2013-08-11T07:15:52Z</time>
      </trkpt>
      <trkpt lat="44.86691" lon="0.56374">
        <ele>98.1918945</ele>
        <time>2013-08-11T07:15:53Z</time>
      </trkpt>
      <trkpt lat="44.86697" lon="0.56374">
        <ele>97.7111816</ele>
        <time>2013-08-11T07:15:56Z</time>
      </trkpt>
      <trkpt lat="44.86707" lon="0.56364">
        <ele>95.7884521</ele>
        <time>2013-08-11T07:16:01Z</time>
      </trkpt>
      <trkpt lat="44.86723" lon="0.56344">
        <ele>98.6724854</ele>
        <time>2013-08-11T07:16:08Z</time>
      </trkpt>
      <trkpt lat="44.86731" lon="0.5633">
        <ele>100.114502</ele>
        <time>2013-08-11T07:16:13Z</time>
      </trkpt>
      <trkpt lat="44.86733" lon="0.56329">
        <ele>100.114502</ele>
        <time>2013-08-11T07:16:14Z</time>
      </trkpt>
      <trkpt lat="44.8674" lon="0.56335">
        <ele>99.6337891</ele>
        <time>2013-08-11T07:16:19Z</time>
      </trkpt>
      <trkpt lat="44.86755" lon="0.56352">
        <ele>99.6337891</ele>
        <time>2013-08-11T07:16:26Z</time>
      </trkpt>
      <trkpt lat="44.8677" lon="0.56366">
        <ele>98.6724854</ele>
        <time>2013-08-11T07:16:32Z</time>
      </trkpt>
      <trkpt lat="44.86783" lon="0.56384">
        <ele>98.1918945</ele>
        <time>2013-08-11T07:16:37Z</time>
      </trkpt>
      <trkpt lat="44.86796" lon="0.56399">
        <ele>97.2304688</ele>
        <time>2013-08-11T07:16:43Z</time>
      </trkpt>
      <trkpt lat="44.86798" lon="0.56401">
        <ele>97.7111816</ele>
        <time>2013-08-11T07:16:44Z</time>
      </trkpt>
      <trkpt lat="44.86802" lon="0.56405">
        <ele>97.2304688</ele>
        <time>2013-08-11T07:16:49Z</time>
      </trkpt>
      <trkpt lat="44.86804" lon="0.56409">
        <ele>97.2304688</ele>
        <time>2013-08-11T07:16:51Z</time>
      </trkpt>
      <trkpt lat="44.86812" lon="0.56426">
        <ele>96.2692871</ele>
        <time>2013-08-11T07:16:57Z</time>
      </trkpt>
      <trkpt lat="44.86829" lon="0.56445">
        <ele>97.2304688</ele>
        <time>2013-08-11T07:17:03Z</time>
      </trkpt>
      <trkpt lat="44.8684" lon="0.56437">
        <ele>96.2692871</ele>
        <time>2013-08-11T07:17:07Z</time>
      </trkpt>
      <trkpt lat="44.86856" lon="0.56411">
        <ele>94.8271484</ele>
        <time>2013-08-11T07:17:12Z</time>
      </trkpt>
      <trkpt lat="44.86859" lon="0.56405">
        <ele>93.8658447</ele>
        <time>2013-08-11T07:17:13Z</time>
      </trkpt>
      <trkpt lat="44.8687" lon="0.56386">
        <ele>93.3851318</ele>
        <time>2013-08-11T07:17:16Z</time>
      </trkpt>
      <trkpt lat="44.8689" lon="0.56351">
        <ele>92.904541</ele>
        <time>2013-08-11T07:17:21Z</time>
      </trkpt>
      <trkpt lat="44.869" lon="0.56333">
        <ele>94.3465576</ele>
        <time>2013-08-11T07:17:25Z</time>
      </trkpt>
      <trkpt lat="44.86902" lon="0.5633">
        <ele>94.3465576</ele>
        <time>2013-08-11T07:17:26Z</time>
      </trkpt>
      <trkpt lat="44.86905" lon="0.56325">
        <ele>94.3465576</ele>
        <time>2013-08-11T07:17:29Z</time>
      </trkpt>
      <trkpt lat="44.8691" lon="0.56316">
        <ele>93.8658447</ele>
        <time>2013-08-11T07:17:35Z</time>
      </trkpt>
      <trkpt lat="44.86922" lon="0.56306">
        <ele>94.8271484</ele>
        <time>2013-08-11T07:17:40Z</time>
      </trkpt>
      <trkpt lat="44.8693" lon="0.56292">
        <ele>91.4625244</ele>
        <time>2013-08-11T07:17:44Z</time>
      </trkpt>
      <trkpt lat="44.86939" lon="0.56265">
        <ele>87.6171875</ele>
        <time>2013-08-11T07:17:48Z</time>
      </trkpt>
      <trkpt lat="44.86955" lon="0.56237">
        <ele>87.1365967</ele>
        <time>2013-08-11T07:17:52Z</time>
      </trkpt>
      <trkpt lat="44.86971" lon="0.56213">
        <ele>85.2139893</ele>
        <time>2013-08-11T07:17:56Z</time>
      </trkpt>
      <trkpt lat="44.86992" lon="0.56181">
        <ele>84.7333984</ele>
        <time>2013-08-11T07:18:01Z</time>
      </trkpt>
      <trkpt lat="44.87013" lon="0.56157">
        <ele>85.2139893</ele>
        <time>2013-08-11T07:18:05Z</time>
      </trkpt>
      <trkpt lat="44.87032" lon="0.56133">
        <ele>87.6171875</ele>
        <time>2013-08-11T07:18:09Z</time>
      </trkpt>
      <trkpt lat="44.87055" lon="0.56125">
        <ele>88.0980225</ele>
        <time>2013-08-11T07:18:14Z</time>
      </trkpt>
      <trkpt lat="44.87061" lon="0.56123">
        <ele>89.0593262</ele>
        <time>2013-08-11T07:18:15Z</time>
      </trkpt>
      <trkpt lat="44.87072" lon="0.56121">
        <ele>90.0206299</ele>
        <time>2013-08-11T07:18:17Z</time>
      </trkpt>
      <trkpt lat="44.87087" lon="0.56123">
        <ele>90.0206299</ele>
        <time>2013-08-11T07:18:20Z</time>
      </trkpt>
      <trkpt lat="44.87114" lon="0.56135">
        <ele>90.9819336</ele>
        <time>2013-08-11T07:18:25Z</time>
      </trkpt>
      <trkpt lat="44.87124" lon="0.56139">
        <ele>89.539917</ele>
        <time>2013-08-11T07:18:27Z</time>
      </trkpt>
      <trkpt lat="44.87133" lon="0.56162">
        <ele>85.6945801</ele>
        <time>2013-08-11T07:18:31Z</time>
      </trkpt>
      <trkpt lat="44.87147" lon="0.56209">
        <ele>85.6945801</ele>
        <time>2013-08-11T07:18:37Z</time>
      </trkpt>
      <trkpt lat="44.87166" lon="0.56251">
        <ele>84.7333984</ele>
        <time>2013-08-11T07:18:43Z</time>
      </trkpt>
      <trkpt lat="44.87183" lon="0.56286">
        <ele>84.7333984</ele>
        <time>2013-08-11T07:18:49Z</time>
      </trkpt>
      <trkpt lat="44.87204" lon="0.56323">
        <ele>86.6560059</ele>
        <time>2013-08-11T07:18:56Z</time>
      </trkpt>
      <trkpt lat="44.87213" lon="0.56344">
        <ele>87.1365967</ele>
        <time>2013-08-11T07:19:00Z</time>
      </trkpt>
      <trkpt lat="44.87234" lon="0.56379">
        <ele>90.0206299</ele>
        <time>2013-08-11T07:19:08Z</time>
      </trkpt>
      <trkpt lat="44.8724" lon="0.56385">
        <ele>91.4625244</ele>
        <time>2013-08-11T07:19:10Z</time>
      </trkpt>
      <trkpt lat="44.87256" lon="0.56403">
        <ele>92.904541</ele>
        <time>2013-08-11T07:19:15Z</time>
      </trkpt>
      <trkpt lat="44.87276" lon="0.56422">
        <ele>94.8271484</ele>
        <time>2013-08-11T07:19:22Z</time>
      </trkpt>
      <trkpt lat="44.87291" lon="0.56436">
        <ele>95.7884521</ele>
        <time>2013-08-11T07:19:27Z</time>
      </trkpt>
      <trkpt lat="44.87313" lon="0.56456">
        <ele>97.7111816</ele>
        <time>2013-08-11T07:19:34Z</time>
      </trkpt>
      <trkpt lat="44.87329" lon="0.56478">
        <ele>97.7111816</ele>
        <time>2013-08-11T07:19:39Z</time>
      </trkpt>
      <trkpt lat="44.87337" lon="0.56491">
        <ele>97.2304688</ele>
        <time>2013-08-11T07:19:42Z</time>
      </trkpt>
      <trkpt lat="44.87354" lon="0.56518">
        <ele>97.2304688</ele>
        <time>2013-08-11T07:19:48Z</time>
      </trkpt>
      <trkpt lat="44.87371" lon="0.56533">
        <ele>98.6724854</ele>
        <time>2013-08-11T07:19:53Z</time>
      </trkpt>
      <trkpt lat="44.87384" lon="0.56529">
        <ele>99.1530762</ele>
        <time>2013-08-11T07:19:57Z</time>
      </trkpt>
      <trkpt lat="44.87386" lon="0.56524">
        <ele>99.1530762</ele>
        <time>2013-08-11T07:19:58Z</time>
      </trkpt>
      <trkpt lat="44.87406" lon="0.56497">
        <ele>98.6724854</ele>
        <time>2013-08-11T07:20:05Z</time>
      </trkpt>
      <trkpt lat="44.87434" lon="0.56471">
        <ele>99.1530762</ele>
        <time>2013-08-11T07:20:13Z</time>
      </trkpt>
      <trkpt lat="44.87445" lon="0.56462">
        <ele>100.114502</ele>
        <time>2013-08-11T07:20:16Z</time>
      </trkpt>
      <trkpt lat="44.87462" lon="0.56455">
        <ele>100.5950928</ele>
        <time>2013-08-11T07:20:20Z</time>
      </trkpt>
      <trkpt lat="44.87498" lon="0.56431">
        <ele>100.5950928</ele>
        <time>2013-08-11T07:20:29Z</time>
      </trkpt>
      <trkpt lat="44.87506" lon="0.56424">
        <ele>100.5950928</ele>
        <time>2013-08-11T07:20:31Z</time>
      </trkpt>
      <trkpt lat="44.87517" lon="0.5641">
        <ele>100.114502</ele>
        <time>2013-08-11T07:20:34Z</time>
      </trkpt>
      <trkpt lat="44.87528" lon="0.56398">
        <ele>99.6337891</ele>
        <time>2013-08-11T07:20:37Z</time>
      </trkpt>
      <trkpt lat="44.87544" lon="0.56395">
        <ele>98.6724854</ele>
        <time>2013-08-11T07:20:41Z</time>
      </trkpt>
      <trkpt lat="44.87548" lon="0.56395">
        <ele>98.6724854</ele>
        <time>2013-08-11T07:20:42Z</time>
      </trkpt>
      <trkpt lat="44.87563" lon="0.56391">
        <ele>99.6337891</ele>
        <time>2013-08-11T07:20:45Z</time>
      </trkpt>
      <trkpt lat="44.87581" lon="0.56398">
        <ele>102.5177002</ele>
        <time>2013-08-11T07:20:50Z</time>
      </trkpt>
      <trkpt lat="44.87588" lon="0.56411">
        <ele>103.4790039</ele>
        <time>2013-08-11T07:20:52Z</time>
      </trkpt>
      <trkpt lat="44.87595" lon="0.56426">
        <ele>102.998291</ele>
        <time>2013-08-11T07:20:54Z</time>
      </trkpt>
      <trkpt lat="44.87607" lon="0.5647">
        <ele>99.6337891</ele>
        <time>2013-08-11T07:21:00Z</time>
      </trkpt>
      <trkpt lat="44.87609" lon="0.56477">
        <ele>98.1918945</ele>
        <time>2013-08-11T07:21:01Z</time>
      </trkpt>
      <trkpt lat="44.87602" lon="0.56491">
        <ele>98.6724854</ele>
        <time>2013-08-11T07:21:04Z</time>
      </trkpt>
      <trkpt lat="44.87599" lon="0.56495">
        <ele>99.6337891</ele>
        <time>2013-08-11T07:21:05Z</time>
      </trkpt>
      <trkpt lat="44.8759" lon="0.56517">
        <ele>101.0756836</ele>
        <time>2013-08-11T07:21:09Z</time>
      </trkpt>
      <trkpt lat="44.87589" lon="0.56529">
        <ele>101.5563965</ele>
        <time>2013-08-11T07:21:11Z</time>
      </trkpt>
      <trkpt lat="44.87586" lon="0.56545">
        <ele>102.0371094</ele>
        <time>2013-08-11T07:21:14Z</time>
      </trkpt>
      <trkpt lat="44.87575" lon="0.56564">
        <ele>104.9210205</ele>
        <time>2013-08-11T07:21:18Z</time>
      </trkpt>
      <trkpt lat="44.87562" lon="0.5658">
        <ele>105.8824463</ele>
        <time>2013-08-11T07:21:22Z</time>
      </trkpt>
      <trkpt lat="44.87536" lon="0.56605">
        <ele>109.2469482</ele>
        <time>2013-08-11T07:21:29Z</time>
      </trkpt>
      <trkpt lat="44.87528" lon="0.56612">
        <ele>109.2469482</ele>
        <time>2013-08-11T07:21:31Z</time>
      </trkpt>
      <trkpt lat="44.87519" lon="0.56632">
        <ele>109.2469482</ele>
        <time>2013-08-11T07:21:35Z</time>
      </trkpt>
      <trkpt lat="44.87524" lon="0.56647">
        <ele>110.6888428</ele>
        <time>2013-08-11T07:21:38Z</time>
      </trkpt>
      <trkpt lat="44.87533" lon="0.56661">
        <ele>110.6888428</ele>
        <time>2013-08-11T07:21:41Z</time>
      </trkpt>
      <trkpt lat="44.87545" lon="0.56675">
        <ele>110.208252</ele>
        <time>2013-08-11T07:21:45Z</time>
      </trkpt>
      <trkpt lat="44.87558" lon="0.56694">
        <ele>109.7276611</ele>
        <time>2013-08-11T07:21:49Z</time>
      </trkpt>
      <trkpt lat="44.87567" lon="0.56707">
        <ele>108.2856445</ele>
        <time>2013-08-11T07:21:52Z</time>
      </trkpt>
      <trkpt lat="44.87593" lon="0.56733">
        <ele>108.7662354</ele>
        <time>2013-08-11T07:21:58Z</time>
      </trkpt>
      <trkpt lat="44.87602" lon="0.56741">
        <ele>109.7276611</ele>
        <time>2013-08-11T07:22:00Z</time>
      </trkpt>
      <trkpt lat="44.87625" lon="0.56763">
        <ele>111.1695557</ele>
        <time>2013-08-11T07:22:06Z</time>
      </trkpt>
      <trkpt lat="44.87644" lon="0.56781">
        <ele>113.0922852</ele>
        <time>2013-08-11T07:22:12Z</time>
      </trkpt>
      <trkpt lat="44.87667" lon="0.568">
        <ele>113.572998</ele>
        <time>2013-08-11T07:22:17Z</time>
      </trkpt>
      <trkpt lat="44.87698" lon="0.56819">
        <ele>113.572998</ele>
        <time>2013-08-11T07:22:23Z</time>
      </trkpt>
      <trkpt lat="44.8774" lon="0.56846">
        <ele>115.0148926</ele>
        <time>2013-08-11T07:22:31Z</time>
      </trkpt>
      <trkpt lat="44.87759" lon="0.56858">
        <ele>115.4956055</ele>
        <time>2013-08-11T07:22:35Z</time>
      </trkpt>
      <trkpt lat="44.87789" lon="0.5688">
        <ele>115.9761963</ele>
        <time>2013-08-11T07:22:42Z</time>
      </trkpt>
      <trkpt lat="44.87812" lon="0.56913">
        <ele>115.0148926</ele>
        <time>2013-08-11T07:22:49Z</time>
      </trkpt>
      <trkpt lat="44.87834" lon="0.56958">
        <ele>113.572998</ele>
        <time>2013-08-11T07:22:56Z</time>
      </trkpt>
      <trkpt lat="44.8785" lon="0.56993">
        <ele>112.1309814</ele>
        <time>2013-08-11T07:23:02Z</time>
      </trkpt>
      <trkpt lat="44.87862" lon="0.57">
        <ele>110.6888428</ele>
        <time>2013-08-11T07:23:06Z</time>
      </trkpt>
      <trkpt lat="44.87865" lon="0.57003">
        <ele>111.6502686</ele>
        <time>2013-08-11T07:23:07Z</time>
      </trkpt>
      <trkpt lat="44.87886" lon="0.57006">
        <ele>110.208252</ele>
        <time>2013-08-11T07:23:12Z</time>
      </trkpt>
      <trkpt lat="44.87898" lon="0.57001">
        <ele>110.6888428</ele>
        <time>2013-08-11T07:23:14Z</time>
      </trkpt>
      <trkpt lat="44.87923" lon="0.5699">
        <ele>114.0535889</ele>
        <time>2013-08-11T07:23:18Z</time>
      </trkpt>
      <trkpt lat="44.87937" lon="0.5698">
        <ele>115.4956055</ele>
        <time>2013-08-11T07:23:22Z</time>
      </trkpt>
      <trkpt lat="44.8794" lon="0.56978">
        <ele>116.4567871</ele>
        <time>2013-08-11T07:23:24Z</time>
      </trkpt>
      <trkpt lat="44.87948" lon="0.56972">
        <ele>116.9375</ele>
        <time>2013-08-11T07:23:29Z</time>
      </trkpt>
      <trkpt lat="44.87958" lon="0.5697">
        <ele>115.4956055</ele>
        <time>2013-08-11T07:23:35Z</time>
      </trkpt>
      <trkpt lat="44.87959" lon="0.56968">
        <ele>114.0535889</ele>
        <time>2013-08-11T07:23:36Z</time>
      </trkpt>
      <trkpt lat="44.87972" lon="0.56945">
        <ele>102.5177002</ele>
        <time>2013-08-11T07:23:42Z</time>
      </trkpt>
      <trkpt lat="44.87997" lon="0.56917">
        <ele>98.6724854</ele>
        <time>2013-08-11T07:23:48Z</time>
      </trkpt>
      <trkpt lat="44.88014" lon="0.569">
        <ele>99.6337891</ele>
        <time>2013-08-11T07:23:51Z</time>
      </trkpt>
      <trkpt lat="44.88046" lon="0.56883">
        <ele>106.3630371</ele>
        <time>2013-08-11T07:23:56Z</time>
      </trkpt>
      <trkpt lat="44.88053" lon="0.56879">
        <ele>108.2856445</ele>
        <time>2013-08-11T07:23:57Z</time>
      </trkpt>
      <trkpt lat="44.88053" lon="0.56879">
        <ele>108.2856445</ele>
        <time>2013-08-11T07:23:57Z</time>
      </trkpt>
      <trkpt lat="44.88067" lon="0.5687">
        <ele>109.7276611</ele>
        <time>2013-08-11T07:23:59Z</time>
      </trkpt>
      <trkpt lat="44.88094" lon="0.56845">
        <ele>110.6888428</ele>
        <time>2013-08-11T07:24:04Z</time>
      </trkpt>
      <trkpt lat="44.88108" lon="0.56836">
        <ele>109.2469482</ele>
        <time>2013-08-11T07:24:07Z</time>
      </trkpt>
      <trkpt lat="44.88132" lon="0.56832">
        <ele>110.208252</ele>
        <time>2013-08-11T07:24:12Z</time>
      </trkpt>
      <trkpt lat="44.88145" lon="0.56831">
        <ele>109.7276611</ele>
        <time>2013-08-11T07:24:15Z</time>
      </trkpt>
      <trkpt lat="44.88155" lon="0.56832">
        <ele>109.7276611</ele>
        <time>2013-08-11T07:24:17Z</time>
      </trkpt>
      <trkpt lat="44.88172" lon="0.56841">
        <ele>106.8436279</ele>
        <time>2013-08-11T07:24:22Z</time>
      </trkpt>
      <trkpt lat="44.88181" lon="0.56842">
        <ele>103.9597168</ele>
        <time>2013-08-11T07:24:26Z</time>
      </trkpt>
      <trkpt lat="44.88197" lon="0.56839">
        <ele>102.5177002</ele>
        <time>2013-08-11T07:24:30Z</time>
      </trkpt>
      <trkpt lat="44.88208" lon="0.56829">
        <ele>97.2304688</ele>
        <time>2013-08-11T07:24:33Z</time>
      </trkpt>
      <trkpt lat="44.88216" lon="0.56827">
        <ele>93.8658447</ele>
        <time>2013-08-11T07:24:35Z</time>
      </trkpt>
      <trkpt lat="44.88241" lon="0.56828">
        <ele>90.0206299</ele>
        <time>2013-08-11T07:24:39Z</time>
      </trkpt>
      <trkpt lat="44.88261" lon="0.56813">
        <ele>82.810791</ele>
        <time>2013-08-11T07:24:44Z</time>
      </trkpt>
      <trkpt lat="44.8827" lon="0.56795">
        <ele>78.0040283</ele>
        <time>2013-08-11T07:24:48Z</time>
      </trkpt>
      <trkpt lat="44.88277" lon="0.56791">
        <ele>77.5234375</ele>
        <time>2013-08-11T07:24:50Z</time>
      </trkpt>
      <trkpt lat="44.88299" lon="0.56794">
        <ele>74.6395264</ele>
        <time>2013-08-11T07:24:55Z</time>
      </trkpt>
      <trkpt lat="44.88309" lon="0.56794">
        <ele>73.1976318</ele>
        <time>2013-08-11T07:24:57Z</time>
      </trkpt>
      <trkpt lat="44.88338" lon="0.56791">
        <ele>69.8328857</ele>
        <time>2013-08-11T07:25:02Z</time>
      </trkpt>
      <trkpt lat="44.88346" lon="0.56796">
        <ele>66.4682617</ele>
        <time>2013-08-11T07:25:05Z</time>
      </trkpt>
      <trkpt lat="44.88352" lon="0.56801">
        <ele>64.5456543</ele>
        <time>2013-08-11T07:25:12Z</time>
      </trkpt>
      <trkpt lat="44.88355" lon="0.56812">
        <ele>66.9489746</ele>
        <time>2013-08-11T07:25:19Z</time>
      </trkpt>
      <trkpt lat="44.88354" lon="0.56816">
        <ele>66.9489746</ele>
        <time>2013-08-11T07:25:21Z</time>
      </trkpt>
      <trkpt lat="44.88356" lon="0.56833">
        <ele>69.8328857</ele>
        <time>2013-08-11T07:25:26Z</time>
      </trkpt>
      <trkpt lat="44.88363" lon="0.56837">
        <ele>70.3134766</ele>
        <time>2013-08-11T07:25:33Z</time>
      </trkpt>
      <trkpt lat="44.88365" lon="0.56846">
        <ele>68.871582</ele>
        <time>2013-08-11T07:25:37Z</time>
      </trkpt>
      <trkpt lat="44.88366" lon="0.56862">
        <ele>67.4296875</ele>
        <time>2013-08-11T07:25:43Z</time>
      </trkpt>
      <trkpt lat="44.88365" lon="0.56878">
        <ele>67.9102783</ele>
        <time>2013-08-11T07:25:51Z</time>
      </trkpt>
      <trkpt lat="44.88368" lon="0.56889">
        <ele>68.871582</ele>
        <time>2013-08-11T07:25:56Z</time>
      </trkpt>
      <trkpt lat="44.88371" lon="0.56895">
        <ele>67.9102783</ele>
        <time>2013-08-11T07:25:59Z</time>
      </trkpt>
      <trkpt lat="44.88376" lon="0.56916">
        <ele>73.6782227</ele>
        <time>2013-08-11T07:26:05Z</time>
      </trkpt>
      <trkpt lat="44.88377" lon="0.56919">
        <ele>74.6395264</ele>
        <time>2013-08-11T07:26:06Z</time>
      </trkpt>
      <trkpt lat="44.88381" lon="0.56938">
        <ele>76.0814209</ele>
        <time>2013-08-11T07:26:11Z</time>
      </trkpt>
      <trkpt lat="44.88386" lon="0.56954">
        <ele>74.1588135</ele>
        <time>2013-08-11T07:26:15Z</time>
      </trkpt>
      <trkpt lat="44.88387" lon="0.56958">
        <ele>73.1976318</ele>
        <time>2013-08-11T07:26:16Z</time>
      </trkpt>
      <trkpt lat="44.88382" lon="0.56968">
        <ele>72.2362061</ele>
        <time>2013-08-11T07:26:21Z</time>
      </trkpt>
      <trkpt lat="44.88375" lon="0.56969">
        <ele>72.2362061</ele>
        <time>2013-08-11T07:26:25Z</time>
      </trkpt>
      <trkpt lat="44.88377" lon="0.56976">
        <ele>72.7169189</ele>
        <time>2013-08-11T07:26:28Z</time>
      </trkpt>
      <trkpt lat="44.88384" lon="0.57002">
        <ele>74.1588135</ele>
        <time>2013-08-11T07:26:33Z</time>
      </trkpt>
      <trkpt lat="44.8839" lon="0.57031">
        <ele>77.0428467</ele>
        <time>2013-08-11T07:26:38Z</time>
      </trkpt>
      <trkpt lat="44.88398" lon="0.57045">
        <ele>83.7719727</ele>
        <time>2013-08-11T07:26:43Z</time>
      </trkpt>
      <trkpt lat="44.88406" lon="0.57059">
        <ele>84.7333984</ele>
        <time>2013-08-11T07:26:48Z</time>
      </trkpt>
      <trkpt lat="44.88415" lon="0.57071">
        <ele>83.7719727</ele>
        <time>2013-08-11T07:26:53Z</time>
      </trkpt>
      <trkpt lat="44.88423" lon="0.57082">
        <ele>82.810791</ele>
        <time>2013-08-11T07:26:58Z</time>
      </trkpt>
      <trkpt lat="44.88427" lon="0.57092">
        <ele>80.8881836</ele>
        <time>2013-08-11T07:27:01Z</time>
      </trkpt>
      <trkpt lat="44.88435" lon="0.57111">
        <ele>78.4847412</ele>
        <time>2013-08-11T07:27:07Z</time>
      </trkpt>
      <trkpt lat="44.88443" lon="0.57129">
        <ele>76.5621338</ele>
        <time>2013-08-11T07:27:13Z</time>
      </trkpt>
      <trkpt lat="44.88445" lon="0.5714">
        <ele>77.5234375</ele>
        <time>2013-08-11T07:27:16Z</time>
      </trkpt>
      <trkpt lat="44.8845" lon="0.57157">
        <ele>75.6008301</ele>
        <time>2013-08-11T07:27:21Z</time>
      </trkpt>
      <trkpt lat="44.88453" lon="0.57174">
        <ele>79.4460449</ele>
        <time>2013-08-11T07:27:25Z</time>
      </trkpt>
      <trkpt lat="44.88452" lon="0.57201">
        <ele>84.7333984</ele>
        <time>2013-08-11T07:27:31Z</time>
      </trkpt>
      <trkpt lat="44.88453" lon="0.57233">
        <ele>90.0206299</ele>
        <time>2013-08-11T07:27:37Z</time>
      </trkpt>
      <trkpt lat="44.88459" lon="0.57257">
        <ele>90.5013428</ele>
        <time>2013-08-11T07:27:41Z</time>
      </trkpt>
      <trkpt lat="44.88462" lon="0.57294">
        <ele>91.9432373</ele>
        <time>2013-08-11T07:27:47Z</time>
      </trkpt>
      <trkpt lat="44.88462" lon="0.57322">
        <ele>91.9432373</ele>
        <time>2013-08-11T07:27:53Z</time>
      </trkpt>
      <trkpt lat="44.88464" lon="0.5734">
        <ele>93.8658447</ele>
        <time>2013-08-11T07:27:58Z</time>
      </trkpt>
      <trkpt lat="44.88464" lon="0.57344">
        <ele>93.3851318</ele>
        <time>2013-08-11T07:27:59Z</time>
      </trkpt>
      <trkpt lat="44.88466" lon="0.57364">
        <ele>92.904541</ele>
        <time>2013-08-11T07:28:04Z</time>
      </trkpt>
      <trkpt lat="44.88467" lon="0.57392">
        <ele>89.0593262</ele>
        <time>2013-08-11T07:28:09Z</time>
      </trkpt>
      <trkpt lat="44.8847" lon="0.57414">
        <ele>90.0206299</ele>
        <time>2013-08-11T07:28:12Z</time>
      </trkpt>
      <trkpt lat="44.88473" lon="0.57438">
        <ele>89.0593262</ele>
        <time>2013-08-11T07:28:17Z</time>
      </trkpt>
      <trkpt lat="44.88474" lon="0.57463">
        <ele>86.6560059</ele>
        <time>2013-08-11T07:28:22Z</time>
      </trkpt>
      <trkpt lat="44.88474" lon="0.57467">
        <ele>85.6945801</ele>
        <time>2013-08-11T07:28:23Z</time>
      </trkpt>
      <trkpt lat="44.88476" lon="0.57494">
        <ele>81.3687744</ele>
        <time>2013-08-11T07:28:29Z</time>
      </trkpt>
      <trkpt lat="44.88476" lon="0.57497">
        <ele>80.4074707</ele>
        <time>2013-08-11T07:28:30Z</time>
      </trkpt>
      <trkpt lat="44.88463" lon="0.57525">
        <ele>73.1976318</ele>
        <time>2013-08-11T07:28:37Z</time>
      </trkpt>
      <trkpt lat="44.88454" lon="0.57538">
        <ele>70.3134766</ele>
        <time>2013-08-11T07:28:41Z</time>
      </trkpt>
      <trkpt lat="44.88456" lon="0.57544">
        <ele>68.3908691</ele>
        <time>2013-08-11T07:28:43Z</time>
      </trkpt>
      <trkpt lat="44.88463" lon="0.57552">
        <ele>67.4296875</ele>
        <time>2013-08-11T07:28:46Z</time>
      </trkpt>
      <trkpt lat="44.88468" lon="0.57572">
        <ele>69.8328857</ele>
        <time>2013-08-11T07:28:51Z</time>
      </trkpt>
      <trkpt lat="44.88473" lon="0.57598">
        <ele>79.9266357</ele>
        <time>2013-08-11T07:28:56Z</time>
      </trkpt>
      <trkpt lat="44.88481" lon="0.57607">
        <ele>81.8493652</ele>
        <time>2013-08-11T07:28:59Z</time>
      </trkpt>
      <trkpt lat="44.88505" lon="0.57623">
        <ele>81.3687744</ele>
        <time>2013-08-11T07:29:06Z</time>
      </trkpt>
      <trkpt lat="44.88518" lon="0.57632">
        <ele>81.3687744</ele>
        <time>2013-08-11T07:29:11Z</time>
      </trkpt>
      <trkpt lat="44.88525" lon="0.57635">
        <ele>78.9654541</ele>
        <time>2013-08-11T07:29:16Z</time>
      </trkpt>
      <trkpt lat="44.88536" lon="0.57627">
        <ele>75.1202393</ele>
        <time>2013-08-11T07:29:20Z</time>
      </trkpt>
      <trkpt lat="44.88555" lon="0.57617">
        <ele>71.2749023</ele>
        <time>2013-08-11T07:29:25Z</time>
      </trkpt>
      <trkpt lat="44.88573" lon="0.57623">
        <ele>68.871582</ele>
        <time>2013-08-11T07:29:30Z</time>
      </trkpt>
      <trkpt lat="44.88586" lon="0.57635">
        <ele>66.9489746</ele>
        <time>2013-08-11T07:29:34Z</time>
      </trkpt>
      <trkpt lat="44.88595" lon="0.57648">
        <ele>66.9489746</ele>
        <time>2013-08-11T07:29:37Z</time>
      </trkpt>
      <trkpt lat="44.88617" lon="0.57663">
        <ele>65.9876709</ele>
        <time>2013-08-11T07:29:42Z</time>
      </trkpt>
      <trkpt lat="44.88644" lon="0.57678">
        <ele>63.5843506</ele>
        <time>2013-08-11T07:29:46Z</time>
      </trkpt>
      <trkpt lat="44.88651" lon="0.57682">
        <ele>63.1036377</ele>
        <time>2013-08-11T07:29:47Z</time>
      </trkpt>
      <trkpt lat="44.88688" lon="0.57677">
        <ele>58.77771</ele>
        <time>2013-08-11T07:29:52Z</time>
      </trkpt>
      <trkpt lat="44.88711" lon="0.57651">
        <ele>58.77771</ele>
        <time>2013-08-11T07:29:56Z</time>
      </trkpt>
      <trkpt lat="44.88725" lon="0.5762">
        <ele>58.77771</ele>
        <time>2013-08-11T07:30:00Z</time>
      </trkpt>
      <trkpt lat="44.88727" lon="0.57601">
        <ele>58.77771</ele>
        <time>2013-08-11T07:30:02Z</time>
      </trkpt>
      <trkpt lat="44.88727" lon="0.5757">
        <ele>58.77771</ele>
        <time>2013-08-11T07:30:05Z</time>
      </trkpt>
      <trkpt lat="44.88731" lon="0.57535">
        <ele>55.8937988</ele>
        <time>2013-08-11T07:30:08Z</time>
      </trkpt>
      <trkpt lat="44.88747" lon="0.57488">
        <ele>53.0097656</ele>
        <time>2013-08-11T07:30:12Z</time>
      </trkpt>
      <trkpt lat="44.88771" lon="0.57473">
        <ele>50.1259766</ele>
        <time>2013-08-11T07:30:15Z</time>
      </trkpt>
      <trkpt lat="44.88787" lon="0.57487">
        <ele>50.1259766</ele>
        <time>2013-08-11T07:30:20Z</time>
      </trkpt>
      <trkpt lat="44.88788" lon="0.57498">
        <ele>51.0871582</ele>
        <time>2013-08-11T07:30:21Z</time>
      </trkpt>
      <trkpt lat="44.88805" lon="0.57543">
        <ele>51.0871582</ele>
        <time>2013-08-11T07:30:26Z</time>
      </trkpt>
      <trkpt lat="44.8882" lon="0.5756">
        <ele>50.1259766</ele>
        <time>2013-08-11T07:30:29Z</time>
      </trkpt>
      <trkpt lat="44.88855" lon="0.57597">
        <ele>50.1259766</ele>
        <time>2013-08-11T07:30:35Z</time>
      </trkpt>
      <trkpt lat="44.88908" lon="0.5764">
        <ele>53.0097656</ele>
        <time>2013-08-11T07:30:43Z</time>
      </trkpt>
      <trkpt lat="44.88919" lon="0.57654">
        <ele>53.0097656</ele>
        <time>2013-08-11T07:30:45Z</time>
      </trkpt>
      <trkpt lat="44.88948" lon="0.57699">
        <ele>52.048584</ele>
        <time>2013-08-11T07:30:51Z</time>
      </trkpt>
      <trkpt lat="44.88974" lon="0.57736">
        <ele>53.9711914</ele>
        <time>2013-08-11T07:30:56Z</time>
      </trkpt>
      <trkpt lat="44.88993" lon="0.5778">
        <ele>56.8551025</ele>
        <time>2013-08-11T07:31:01Z</time>
      </trkpt>
      <trkpt lat="44.88995" lon="0.57798">
        <ele>56.8551025</ele>
        <time>2013-08-11T07:31:03Z</time>
      </trkpt>
      <trkpt lat="44.88997" lon="0.57844">
        <ele>56.3745117</ele>
        <time>2013-08-11T07:31:08Z</time>
      </trkpt>
      <trkpt lat="44.89011" lon="0.57865">
        <ele>55.8937988</ele>
        <time>2013-08-11T07:31:12Z</time>
      </trkpt>
      <trkpt lat="44.89017" lon="0.57863">
        <ele>56.3745117</ele>
        <time>2013-08-11T07:31:13Z</time>
      </trkpt>
      <trkpt lat="44.89046" lon="0.57853">
        <ele>56.3745117</ele>
        <time>2013-08-11T07:31:19Z</time>
      </trkpt>
      <trkpt lat="44.89049" lon="0.57852">
        <ele>56.8551025</ele>
        <time>2013-08-11T07:31:20Z</time>
      </trkpt>
      <trkpt lat="44.89057" lon="0.57861">
        <ele>56.8551025</ele>
        <time>2013-08-11T07:31:25Z</time>
      </trkpt>
      <trkpt lat="44.89057" lon="0.57861">
        <ele>56.8551025</ele>
        <time>2013-08-11T07:31:25Z</time>
      </trkpt>
      <trkpt lat="44.89057" lon="0.57865">
        <ele>56.8551025</ele>
        <time>2013-08-11T07:31:26Z</time>
      </trkpt>
      <trkpt lat="44.89057" lon="0.57888">
        <ele>55.8937988</ele>
        <time>2013-08-11T07:31:31Z</time>
      </trkpt>
      <trkpt lat="44.89058" lon="0.579">
        <ele>55.8937988</ele>
        <time>2013-08-11T07:31:35Z</time>
      </trkpt>
      <trkpt lat="44.8906" lon="0.57904">
        <ele>55.8937988</ele>
        <time>2013-08-11T07:31:40Z</time>
      </trkpt>
      <trkpt lat="44.89063" lon="0.57906">
        <ele>55.4130859</ele>
        <time>2013-08-11T07:31:47Z</time>
      </trkpt>
      <trkpt lat="44.89065" lon="0.57906">
        <ele>55.4130859</ele>
        <time>2013-08-11T07:31:54Z</time>
      </trkpt>
      <trkpt lat="44.8907" lon="0.57914">
        <ele>55.4130859</ele>
        <time>2013-08-11T07:31:59Z</time>
      </trkpt>
      <trkpt lat="44.8907" lon="0.57916">
        <ele>54.932373</ele>
        <time>2013-08-11T07:32:00Z</time>
      </trkpt>
      <trkpt lat="44.89072" lon="0.57925">
        <ele>58.77771</ele>
        <time>2013-08-11T07:32:06Z</time>
      </trkpt>
      <trkpt lat="44.89078" lon="0.57923">
        <ele>60.7003174</ele>
        <time>2013-08-11T07:32:12Z</time>
      </trkpt>
      <trkpt lat="44.89087" lon="0.57926">
        <ele>64.5456543</ele>
        <time>2013-08-11T07:32:17Z</time>
      </trkpt>
      <trkpt lat="44.89103" lon="0.57929">
        <ele>72.7169189</ele>
        <time>2013-08-11T07:32:25Z</time>
      </trkpt>
      <trkpt lat="44.89116" lon="0.5793">
        <ele>74.6395264</ele>
        <time>2013-08-11T07:32:31Z</time>
      </trkpt>
      <trkpt lat="44.89121" lon="0.57931">
        <ele>75.1202393</ele>
        <time>2013-08-11T07:32:33Z</time>
      </trkpt>
      <trkpt lat="44.89126" lon="0.57939">
        <ele>76.5621338</ele>
        <time>2013-08-11T07:32:38Z</time>
      </trkpt>
      <trkpt lat="44.89126" lon="0.57942">
        <ele>77.0428467</ele>
        <time>2013-08-11T07:32:39Z</time>
      </trkpt>
      <trkpt lat="44.89128" lon="0.57964">
        <ele>76.5621338</ele>
        <time>2013-08-11T07:32:47Z</time>
      </trkpt>
      <trkpt lat="44.89135" lon="0.57965">
        <ele>79.4460449</ele>
        <time>2013-08-11T07:32:52Z</time>
      </trkpt>
      <trkpt lat="44.89155" lon="0.5796">
        <ele>81.3687744</ele>
        <time>2013-08-11T07:33:02Z</time>
      </trkpt>
      <trkpt lat="44.89157" lon="0.5796">
        <ele>81.3687744</ele>
        <time>2013-08-11T07:33:03Z</time>
      </trkpt>
      <trkpt lat="44.89161" lon="0.57944">
        <ele>79.9266357</ele>
        <time>2013-08-11T07:33:09Z</time>
      </trkpt>
      <trkpt lat="44.89166" lon="0.57915">
        <ele>78.0040283</ele>
        <time>2013-08-11T07:33:16Z</time>
      </trkpt>
      <trkpt lat="44.89172" lon="0.57884">
        <ele>74.6395264</ele>
        <time>2013-08-11T07:33:22Z</time>
      </trkpt>
      <trkpt lat="44.89173" lon="0.57854">
        <ele>74.1588135</ele>
        <time>2013-08-11T07:33:26Z</time>
      </trkpt>
      <trkpt lat="44.89176" lon="0.57831">
        <ele>74.1588135</ele>
        <time>2013-08-11T07:33:31Z</time>
      </trkpt>
      <trkpt lat="44.89175" lon="0.57827">
        <ele>74.1588135</ele>
        <time>2013-08-11T07:33:32Z</time>
      </trkpt>
      <trkpt lat="44.89164" lon="0.57797">
        <ele>75.1202393</ele>
        <time>2013-08-11T07:33:39Z</time>
      </trkpt>
      <trkpt lat="44.8916" lon="0.57774">
        <ele>77.0428467</ele>
        <time>2013-08-11T07:33:45Z</time>
      </trkpt>
      <trkpt lat="44.89165" lon="0.57764">
        <ele>79.4460449</ele>
        <time>2013-08-11T07:33:50Z</time>
      </trkpt>
      <trkpt lat="44.89168" lon="0.57761">
        <ele>80.8881836</ele>
        <time>2013-08-11T07:33:53Z</time>
      </trkpt>
      <trkpt lat="44.89178" lon="0.57752">
        <ele>86.6560059</ele>
        <time>2013-08-11T07:34:00Z</time>
      </trkpt>
      <trkpt lat="44.89189" lon="0.57746">
        <ele>90.5013428</ele>
        <time>2013-08-11T07:34:06Z</time>
      </trkpt>
      <trkpt lat="44.892" lon="0.57737">
        <ele>94.8271484</ele>
        <time>2013-08-11T07:34:13Z</time>
      </trkpt>
      <trkpt lat="44.89203" lon="0.57734">
        <ele>96.2692871</ele>
        <time>2013-08-11T07:34:15Z</time>
      </trkpt>
      <trkpt lat="44.89202" lon="0.57721">
        <ele>95.7884521</ele>
        <time>2013-08-11T07:34:21Z</time>
      </trkpt>
      <trkpt lat="44.89198" lon="0.57717">
        <ele>94.8271484</ele>
        <time>2013-08-11T07:34:24Z</time>
      </trkpt>
      <trkpt lat="44.89184" lon="0.57701">
        <ele>92.4239502</ele>
        <time>2013-08-11T07:34:33Z</time>
      </trkpt>
      <trkpt lat="44.89177" lon="0.57686">
        <ele>91.4625244</ele>
        <time>2013-08-11T07:34:39Z</time>
      </trkpt>
      <trkpt lat="44.89168" lon="0.57665">
        <ele>90.9819336</ele>
        <time>2013-08-11T07:34:46Z</time>
      </trkpt>
      <trkpt lat="44.89159" lon="0.57641">
        <ele>90.9819336</ele>
        <time>2013-08-11T07:34:53Z</time>
      </trkpt>
      <trkpt lat="44.89154" lon="0.57617">
        <ele>90.5013428</ele>
        <time>2013-08-11T07:35:00Z</time>
      </trkpt>
      <trkpt lat="44.89148" lon="0.57591">
        <ele>90.0206299</ele>
        <time>2013-08-11T07:35:06Z</time>
      </trkpt>
      <trkpt lat="44.89142" lon="0.57557">
        <ele>90.0206299</ele>
        <time>2013-08-11T07:35:12Z</time>
      </trkpt>
      <trkpt lat="44.8914" lon="0.57534">
        <ele>90.5013428</ele>
        <time>2013-08-11T07:35:16Z</time>
      </trkpt>
      <trkpt lat="44.89144" lon="0.57509">
        <ele>88.5787354</ele>
        <time>2013-08-11T07:35:21Z</time>
      </trkpt>
      <trkpt lat="44.89149" lon="0.57491">
        <ele>87.6171875</ele>
        <time>2013-08-11T07:35:25Z</time>
      </trkpt>
      <trkpt lat="44.89156" lon="0.57462">
        <ele>86.175293</ele>
        <time>2013-08-11T07:35:31Z</time>
      </trkpt>
      <trkpt lat="44.8916" lon="0.57434">
        <ele>84.7333984</ele>
        <time>2013-08-11T07:35:35Z</time>
      </trkpt>
      <trkpt lat="44.89169" lon="0.57396">
        <ele>82.810791</ele>
        <time>2013-08-11T07:35:39Z</time>
      </trkpt>
      <trkpt lat="44.89175" lon="0.57377">
        <ele>81.3687744</ele>
        <time>2013-08-11T07:35:41Z</time>
      </trkpt>
      <trkpt lat="44.89178" lon="0.57337">
        <ele>78.9654541</ele>
        <time>2013-08-11T07:35:45Z</time>
      </trkpt>
      <trkpt lat="44.89177" lon="0.57297">
        <ele>74.6395264</ele>
        <time>2013-08-11T07:35:49Z</time>
      </trkpt>
      <trkpt lat="44.89173" lon="0.57263">
        <ele>71.2749023</ele>
        <time>2013-08-11T07:35:53Z</time>
      </trkpt>
      <trkpt lat="44.89169" lon="0.57232">
        <ele>67.4296875</ele>
        <time>2013-08-11T07:35:57Z</time>
      </trkpt>
      <trkpt lat="44.89162" lon="0.57192">
        <ele>61.1810303</ele>
        <time>2013-08-11T07:36:03Z</time>
      </trkpt>
      <trkpt lat="44.89155" lon="0.57162">
        <ele>60.2197266</ele>
        <time>2013-08-11T07:36:08Z</time>
      </trkpt>
      <trkpt lat="44.89153" lon="0.57149">
        <ele>61.6617432</ele>
        <time>2013-08-11T07:36:10Z</time>
      </trkpt>
      <trkpt lat="44.89153" lon="0.57111">
        <ele>61.1810303</ele>
        <time>2013-08-11T07:36:15Z</time>
      </trkpt>
      <trkpt lat="44.89155" lon="0.5709">
        <ele>63.1036377</ele>
        <time>2013-08-11T07:36:18Z</time>
      </trkpt>
      <trkpt lat="44.89154" lon="0.5707">
        <ele>63.5843506</ele>
        <time>2013-08-11T07:36:23Z</time>
      </trkpt>
      <trkpt lat="44.89151" lon="0.57063">
        <ele>64.0650635</ele>
        <time>2013-08-11T07:36:27Z</time>
      </trkpt>
      <trkpt lat="44.89153" lon="0.5706">
        <ele>63.5843506</ele>
        <time>2013-08-11T07:36:32Z</time>
      </trkpt>
      <trkpt lat="44.89158" lon="0.57065">
        <ele>64.5456543</ele>
        <time>2013-08-11T07:36:37Z</time>
      </trkpt>
      <trkpt lat="44.8917" lon="0.5708">
        <ele>67.4296875</ele>
        <time>2013-08-11T07:36:43Z</time>
      </trkpt>
      <trkpt lat="44.89181" lon="0.57087">
        <ele>65.9876709</ele>
        <time>2013-08-11T07:36:48Z</time>
      </trkpt>
      <trkpt lat="44.89186" lon="0.57089">
        <ele>66.4682617</ele>
        <time>2013-08-11T07:36:50Z</time>
      </trkpt>
      <trkpt lat="44.89192" lon="0.57095">
        <ele>68.3908691</ele>
        <time>2013-08-11T07:36:54Z</time>
      </trkpt>
      <trkpt lat="44.89202" lon="0.5711">
        <ele>72.7169189</ele>
        <time>2013-08-11T07:37:01Z</time>
      </trkpt>
      <trkpt lat="44.8921" lon="0.57122">
        <ele>72.2362061</ele>
        <time>2013-08-11T07:37:07Z</time>
      </trkpt>
      <trkpt lat="44.89216" lon="0.57134">
        <ele>73.1976318</ele>
        <time>2013-08-11T07:37:13Z</time>
      </trkpt>
      <trkpt lat="44.89222" lon="0.57146">
        <ele>73.6782227</ele>
        <time>2013-08-11T07:37:19Z</time>
      </trkpt>
      <trkpt lat="44.8923" lon="0.57161">
        <ele>75.1202393</ele>
        <time>2013-08-11T07:37:26Z</time>
      </trkpt>
      <trkpt lat="44.89241" lon="0.57169">
        <ele>77.0428467</ele>
        <time>2013-08-11T07:37:33Z</time>
      </trkpt>
      <trkpt lat="44.89255" lon="0.57172">
        <ele>83.7719727</ele>
        <time>2013-08-11T07:37:41Z</time>
      </trkpt>
      <trkpt lat="44.89267" lon="0.57172">
        <ele>91.4625244</ele>
        <time>2013-08-11T07:37:48Z</time>
      </trkpt>
      <trkpt lat="44.89277" lon="0.57179">
        <ele>94.8271484</ele>
        <time>2013-08-11T07:37:55Z</time>
      </trkpt>
      <trkpt lat="44.89284" lon="0.57189">
        <ele>92.904541</ele>
        <time>2013-08-11T07:38:01Z</time>
      </trkpt>
      <trkpt lat="44.89292" lon="0.57204">
        <ele>91.9432373</ele>
        <time>2013-08-11T07:38:08Z</time>
      </trkpt>
      <trkpt lat="44.893" lon="0.57213">
        <ele>89.539917</ele>
        <time>2013-08-11T07:38:13Z</time>
      </trkpt>
      <trkpt lat="44.89307" lon="0.57226">
        <ele>88.5787354</ele>
        <time>2013-08-11T07:38:20Z</time>
      </trkpt>
      <trkpt lat="44.89317" lon="0.57245">
        <ele>92.904541</ele>
        <time>2013-08-11T07:38:27Z</time>
      </trkpt>
      <trkpt lat="44.89326" lon="0.5725">
        <ele>95.7884521</ele>
        <time>2013-08-11T07:38:32Z</time>
      </trkpt>
      <trkpt lat="44.89342" lon="0.57249">
        <ele>100.114502</ele>
        <time>2013-08-11T07:38:40Z</time>
      </trkpt>
      <trkpt lat="44.89355" lon="0.57246">
        <ele>102.998291</ele>
        <time>2013-08-11T07:38:47Z</time>
      </trkpt>
      <trkpt lat="44.89368" lon="0.57243">
        <ele>107.3243408</ele>
        <time>2013-08-11T07:38:54Z</time>
      </trkpt>
      <trkpt lat="44.89377" lon="0.5724">
        <ele>107.3243408</ele>
        <time>2013-08-11T07:38:59Z</time>
      </trkpt>
      <trkpt lat="44.8939" lon="0.57235">
        <ele>106.3630371</ele>
        <time>2013-08-11T07:39:06Z</time>
      </trkpt>
      <trkpt lat="44.89398" lon="0.57229">
        <ele>105.4017334</ele>
        <time>2013-08-11T07:39:12Z</time>
      </trkpt>
      <trkpt lat="44.89407" lon="0.57219">
        <ele>104.9210205</ele>
        <time>2013-08-11T07:39:21Z</time>
      </trkpt>
      <trkpt lat="44.89415" lon="0.57207">
        <ele>105.8824463</ele>
        <time>2013-08-11T07:39:28Z</time>
      </trkpt>
      <trkpt lat="44.89422" lon="0.57198">
        <ele>106.3630371</ele>
        <time>2013-08-11T07:39:34Z</time>
      </trkpt>
      <trkpt lat="44.89431" lon="0.57187">
        <ele>107.3243408</ele>
        <time>2013-08-11T07:39:41Z</time>
      </trkpt>
      <trkpt lat="44.8944" lon="0.57176">
        <ele>108.7662354</ele>
        <time>2013-08-11T07:39:47Z</time>
      </trkpt>
      <trkpt lat="44.89453" lon="0.57164">
        <ele>113.572998</ele>
        <time>2013-08-11T07:39:55Z</time>
      </trkpt>
      <trkpt lat="44.89465" lon="0.5716">
        <ele>117.4182129</ele>
        <time>2013-08-11T07:40:00Z</time>
      </trkpt>
      <trkpt lat="44.89476" lon="0.57161">
        <ele>119.3408203</ele>
        <time>2013-08-11T07:40:06Z</time>
      </trkpt>
      <trkpt lat="44.8949" lon="0.57168">
        <ele>118.3793945</ele>
        <time>2013-08-11T07:40:12Z</time>
      </trkpt>
      <trkpt lat="44.89506" lon="0.57174">
        <ele>116.9375</ele>
        <time>2013-08-11T07:40:18Z</time>
      </trkpt>
      <trkpt lat="44.89517" lon="0.57177">
        <ele>118.3793945</ele>
        <time>2013-08-11T07:40:22Z</time>
      </trkpt>
      <trkpt lat="44.89534" lon="0.57181">
        <ele>121.2635498</ele>
        <time>2013-08-11T07:40:27Z</time>
      </trkpt>
      <trkpt lat="44.8955" lon="0.5718">
        <ele>126.0699463</ele>
        <time>2013-08-11T07:40:32Z</time>
      </trkpt>
      <trkpt lat="44.89566" lon="0.57174">
        <ele>127.0313721</ele>
        <time>2013-08-11T07:40:36Z</time>
      </trkpt>
      <trkpt lat="44.89584" lon="0.5717">
        <ele>130.3959961</ele>
        <time>2013-08-11T07:40:41Z</time>
      </trkpt>
      <trkpt lat="44.89595" lon="0.57168">
        <ele>134.2412109</ele>
        <time>2013-08-11T07:40:45Z</time>
      </trkpt>
      <trkpt lat="44.89611" lon="0.57169">
        <ele>135.2025146</ele>
        <time>2013-08-11T07:40:52Z</time>
      </trkpt>
      <trkpt lat="44.89625" lon="0.57169">
        <ele>135.6831055</ele>
        <time>2013-08-11T07:40:58Z</time>
      </trkpt>
      <trkpt lat="44.89637" lon="0.5717">
        <ele>134.2412109</ele>
        <time>2013-08-11T07:41:03Z</time>
      </trkpt>
      <trkpt lat="44.89649" lon="0.57173">
        <ele>131.8378906</ele>
        <time>2013-08-11T07:41:08Z</time>
      </trkpt>
      <trkpt lat="44.89664" lon="0.57179">
        <ele>131.8378906</ele>
        <time>2013-08-11T07:41:13Z</time>
      </trkpt>
      <trkpt lat="44.89684" lon="0.57194">
        <ele>127.9925537</ele>
        <time>2013-08-11T07:41:17Z</time>
      </trkpt>
      <trkpt lat="44.89704" lon="0.57231">
        <ele>123.1861572</ele>
        <time>2013-08-11T07:41:22Z</time>
      </trkpt>
      <trkpt lat="44.89735" lon="0.57279">
        <ele>120.7828369</ele>
        <time>2013-08-11T07:41:29Z</time>
      </trkpt>
      <trkpt lat="44.89765" lon="0.57321">
        <ele>118.3793945</ele>
        <time>2013-08-11T07:41:36Z</time>
      </trkpt>
      <trkpt lat="44.89793" lon="0.57367">
        <ele>117.4182129</ele>
        <time>2013-08-11T07:41:42Z</time>
      </trkpt>
      <trkpt lat="44.89806" lon="0.57382">
        <ele>116.4567871</ele>
        <time>2013-08-11T07:41:44Z</time>
      </trkpt>
      <trkpt lat="44.89821" lon="0.57416">
        <ele>113.572998</ele>
        <time>2013-08-11T07:41:48Z</time>
      </trkpt>
      <trkpt lat="44.89837" lon="0.57445">
        <ele>115.4956055</ele>
        <time>2013-08-11T07:41:54Z</time>
      </trkpt>
      <trkpt lat="44.8984" lon="0.57446">
        <ele>115.9761963</ele>
        <time>2013-08-11T07:41:55Z</time>
      </trkpt>
      <trkpt lat="44.89847" lon="0.5745">
        <ele>117.4182129</ele>
        <time>2013-08-11T07:41:57Z</time>
      </trkpt>
      <trkpt lat="44.89866" lon="0.57451">
        <ele>119.8214111</ele>
        <time>2013-08-11T07:42:03Z</time>
      </trkpt>
      <trkpt lat="44.89887" lon="0.5742">
        <ele>118.8601074</ele>
        <time>2013-08-11T07:42:11Z</time>
      </trkpt>
      <trkpt lat="44.89903" lon="0.57383">
        <ele>119.8214111</ele>
        <time>2013-08-11T07:42:19Z</time>
      </trkpt>
      <trkpt lat="44.89905" lon="0.57379">
        <ele>120.302124</ele>
        <time>2013-08-11T07:42:20Z</time>
      </trkpt>
      <trkpt lat="44.89905" lon="0.57379">
        <ele>120.302124</ele>
        <time>2013-08-11T07:42:20Z</time>
      </trkpt>
      <trkpt lat="44.89917" lon="0.5736">
        <ele>122.7054443</ele>
        <time>2013-08-11T07:42:25Z</time>
      </trkpt>
      <trkpt lat="44.89942" lon="0.57337">
        <ele>124.6280518</ele>
        <time>2013-08-11T07:42:33Z</time>
      </trkpt>
      <trkpt lat="44.89966" lon="0.57319">
        <ele>128.9541016</ele>
        <time>2013-08-11T07:42:40Z</time>
      </trkpt>
      <trkpt lat="44.89991" lon="0.57299">
        <ele>130.876709</ele>
        <time>2013-08-11T07:42:47Z</time>
      </trkpt>
      <trkpt lat="44.9002" lon="0.57276">
        <ele>134.7219238</ele>
        <time>2013-08-11T07:42:56Z</time>
      </trkpt>
      <trkpt lat="44.90037" lon="0.57257">
        <ele>134.2412109</ele>
        <time>2013-08-11T07:43:02Z</time>
      </trkpt>
      <trkpt lat="44.90046" lon="0.57238">
        <ele>134.2412109</ele>
        <time>2013-08-11T07:43:07Z</time>
      </trkpt>
      <trkpt lat="44.90049" lon="0.5723">
        <ele>133.760498</ele>
        <time>2013-08-11T07:43:09Z</time>
      </trkpt>
      <trkpt lat="44.90056" lon="0.5723">
        <ele>134.2412109</ele>
        <time>2013-08-11T07:43:12Z</time>
      </trkpt>
      <trkpt lat="44.90064" lon="0.57244">
        <ele>134.2412109</ele>
        <time>2013-08-11T07:43:16Z</time>
      </trkpt>
      <trkpt lat="44.90074" lon="0.57252">
        <ele>133.760498</ele>
        <time>2013-08-11T07:43:19Z</time>
      </trkpt>
      <trkpt lat="44.90109" lon="0.57264">
        <ele>133.760498</ele>
        <time>2013-08-11T07:43:27Z</time>
      </trkpt>
      <trkpt lat="44.90147" lon="0.57268">
        <ele>132.3186035</ele>
        <time>2013-08-11T07:43:35Z</time>
      </trkpt>
      <trkpt lat="44.90193" lon="0.57277">
        <ele>132.7993164</ele>
        <time>2013-08-11T07:43:44Z</time>
      </trkpt>
      <trkpt lat="44.90198" lon="0.57278">
        <ele>133.2799072</ele>
        <time>2013-08-11T07:43:45Z</time>
      </trkpt>
      <trkpt lat="44.90213" lon="0.57283">
        <ele>134.2412109</ele>
        <time>2013-08-11T07:43:48Z</time>
      </trkpt>
      <trkpt lat="44.90226" lon="0.57291">
        <ele>134.2412109</ele>
        <time>2013-08-11T07:43:51Z</time>
      </trkpt>
      <trkpt lat="44.90246" lon="0.57322">
        <ele>137.605835</ele>
        <time>2013-08-11T07:43:57Z</time>
      </trkpt>
      <trkpt lat="44.90273" lon="0.57367">
        <ele>140.970459</ele>
        <time>2013-08-11T07:44:04Z</time>
      </trkpt>
      <trkpt lat="44.90303" lon="0.57407">
        <ele>139.5284424</ele>
        <time>2013-08-11T07:44:09Z</time>
      </trkpt>
      <trkpt lat="44.90345" lon="0.57446">
        <ele>131.8378906</ele>
        <time>2013-08-11T07:44:14Z</time>
      </trkpt>
      <trkpt lat="44.90384" lon="0.5748">
        <ele>129.9152832</ele>
        <time>2013-08-11T07:44:19Z</time>
      </trkpt>
      <trkpt lat="44.90416" lon="0.57504">
        <ele>127.5119629</ele>
        <time>2013-08-11T07:44:24Z</time>
      </trkpt>
      <trkpt lat="44.90439" lon="0.57529">
        <ele>126.0699463</ele>
        <time>2013-08-11T07:44:28Z</time>
      </trkpt>
      <trkpt lat="44.90473" lon="0.57576">
        <ele>124.1473389</ele>
        <time>2013-08-11T07:44:33Z</time>
      </trkpt>
      <trkpt lat="44.90514" lon="0.57628">
        <ele>121.2635498</ele>
        <time>2013-08-11T07:44:38Z</time>
      </trkpt>
      <trkpt lat="44.9056" lon="0.57689">
        <ele>117.8988037</ele>
        <time>2013-08-11T07:44:44Z</time>
      </trkpt>
      <trkpt lat="44.90583" lon="0.57723">
        <ele>117.4182129</ele>
        <time>2013-08-11T07:44:48Z</time>
      </trkpt>
      <trkpt lat="44.90601" lon="0.57755">
        <ele>121.2635498</ele>
        <time>2013-08-11T07:44:53Z</time>
      </trkpt>
      <trkpt lat="44.90606" lon="0.57762">
        <ele>122.2247314</ele>
        <time>2013-08-11T07:44:55Z</time>
      </trkpt>
      <trkpt lat="44.90614" lon="0.57776">
        <ele>126.5506592</ele>
        <time>2013-08-11T07:44:59Z</time>
      </trkpt>
      <trkpt lat="44.90616" lon="0.57778">
        <ele>127.5119629</ele>
        <time>2013-08-11T07:45:00Z</time>
      </trkpt>
      <trkpt lat="44.90632" lon="0.57789">
        <ele>127.9925537</ele>
        <time>2013-08-11T07:45:06Z</time>
      </trkpt>
      <trkpt lat="44.90649" lon="0.57796">
        <ele>127.9925537</ele>
        <time>2013-08-11T07:45:12Z</time>
      </trkpt>
      <trkpt lat="44.90671" lon="0.57799">
        <ele>129.4346924</ele>
        <time>2013-08-11T07:45:19Z</time>
      </trkpt>
      <trkpt lat="44.90692" lon="0.57793">
        <ele>128.9541016</ele>
        <time>2013-08-11T07:45:25Z</time>
      </trkpt>
      <trkpt lat="44.90712" lon="0.57792">
        <ele>130.876709</ele>
        <time>2013-08-11T07:45:31Z</time>
      </trkpt>
      <trkpt lat="44.90737" lon="0.57796">
        <ele>131.8378906</ele>
        <time>2013-08-11T07:45:39Z</time>
      </trkpt>
      <trkpt lat="44.90762" lon="0.57802">
        <ele>132.7993164</ele>
        <time>2013-08-11T07:45:47Z</time>
      </trkpt>
      <trkpt lat="44.9078" lon="0.57812">
        <ele>134.2412109</ele>
        <time>2013-08-11T07:45:53Z</time>
      </trkpt>
      <trkpt lat="44.90797" lon="0.57824">
        <ele>134.2412109</ele>
        <time>2013-08-11T07:45:58Z</time>
      </trkpt>
      <trkpt lat="44.90811" lon="0.57843">
        <ele>133.760498</ele>
        <time>2013-08-11T07:46:03Z</time>
      </trkpt>
      <trkpt lat="44.90815" lon="0.5786">
        <ele>134.2412109</ele>
        <time>2013-08-11T07:46:07Z</time>
      </trkpt>
      <trkpt lat="44.90825" lon="0.5788">
        <ele>133.760498</ele>
        <time>2013-08-11T07:46:12Z</time>
      </trkpt>
      <trkpt lat="44.90831" lon="0.57897">
        <ele>137.1252441</ele>
        <time>2013-08-11T07:46:17Z</time>
      </trkpt>
      <trkpt lat="44.90836" lon="0.57916">
        <ele>139.0478516</ele>
        <time>2013-08-11T07:46:22Z</time>
      </trkpt>
      <trkpt lat="44.90842" lon="0.5794">
        <ele>141.4510498</ele>
        <time>2013-08-11T07:46:27Z</time>
      </trkpt>
      <trkpt lat="44.9085" lon="0.57967">
        <ele>144.3352051</ele>
        <time>2013-08-11T07:46:33Z</time>
      </trkpt>
      <trkpt lat="44.90851" lon="0.57972">
        <ele>145.7770996</ele>
        <time>2013-08-11T07:46:34Z</time>
      </trkpt>
      <trkpt lat="44.9085" lon="0.57984">
        <ele>146.2578125</ele>
        <time>2013-08-11T07:46:38Z</time>
      </trkpt>
      <trkpt lat="44.90845" lon="0.57989">
        <ele>149.1416016</ele>
        <time>2013-08-11T07:46:42Z</time>
      </trkpt>
      <trkpt lat="44.90837" lon="0.57989">
        <ele>148.6610107</ele>
        <time>2013-08-11T07:46:46Z</time>
      </trkpt>
      <trkpt lat="44.90815" lon="0.57988">
        <ele>149.6223145</ele>
        <time>2013-08-11T07:46:54Z</time>
      </trkpt>
      <trkpt lat="44.90801" lon="0.58">
        <ele>152.9869385</ele>
        <time>2013-08-11T07:47:00Z</time>
      </trkpt>
      <trkpt lat="44.9079" lon="0.58009">
        <ele>155.8709717</ele>
        <time>2013-08-11T07:47:05Z</time>
      </trkpt>
      <trkpt lat="44.9078" lon="0.58026">
        <ele>155.8709717</ele>
        <time>2013-08-11T07:47:10Z</time>
      </trkpt>
      <trkpt lat="44.90769" lon="0.58044">
        <ele>157.3128662</ele>
        <time>2013-08-11T07:47:15Z</time>
      </trkpt>
      <trkpt lat="44.90768" lon="0.58049">
        <ele>156.8321533</ele>
        <time>2013-08-11T07:47:16Z</time>
      </trkpt>
      <trkpt lat="44.90771" lon="0.58065">
        <ele>155.8709717</ele>
        <time>2013-08-11T07:47:20Z</time>
      </trkpt>
      <trkpt lat="44.90782" lon="0.5809">
        <ele>152.9869385</ele>
        <time>2013-08-11T07:47:26Z</time>
      </trkpt>
      <trkpt lat="44.90797" lon="0.58133">
        <ele>150.5836182</ele>
        <time>2013-08-11T07:47:35Z</time>
      </trkpt>
      <trkpt lat="44.90813" lon="0.58176">
        <ele>148.1804199</ele>
        <time>2013-08-11T07:47:43Z</time>
      </trkpt>
      <trkpt lat="44.90816" lon="0.58182">
        <ele>148.1804199</ele>
        <time>2013-08-11T07:47:44Z</time>
      </trkpt>
      <trkpt lat="44.90823" lon="0.582">
        <ele>147.699707</ele>
        <time>2013-08-11T07:47:47Z</time>
      </trkpt>
      <trkpt lat="44.90839" lon="0.58209">
        <ele>147.699707</ele>
        <time>2013-08-11T07:47:51Z</time>
      </trkpt>
      <trkpt lat="44.90842" lon="0.58208">
        <ele>147.699707</ele>
        <time>2013-08-11T07:47:52Z</time>
      </trkpt>
      <trkpt lat="44.90871" lon="0.58205">
        <ele>150.1030273</ele>
        <time>2013-08-11T07:47:59Z</time>
      </trkpt>
      <trkpt lat="44.90881" lon="0.58202">
        <ele>148.6610107</ele>
        <time>2013-08-11T07:48:01Z</time>
      </trkpt>
      <trkpt lat="44.90889" lon="0.58202">
        <ele>149.6223145</ele>
        <time>2013-08-11T07:48:05Z</time>
      </trkpt>
      <trkpt lat="44.90897" lon="0.58202">
        <ele>148.6610107</ele>
        <time>2013-08-11T07:48:10Z</time>
      </trkpt>
      <trkpt lat="44.90919" lon="0.58192">
        <ele>145.2963867</ele>
        <time>2013-08-11T07:48:16Z</time>
      </trkpt>
      <trkpt lat="44.90923" lon="0.58193">
        <ele>144.8157959</ele>
        <time>2013-08-11T07:48:17Z</time>
      </trkpt>
      <trkpt lat="44.90947" lon="0.58202">
        <ele>143.3736572</ele>
        <time>2013-08-11T07:48:23Z</time>
      </trkpt>
      <trkpt lat="44.90978" lon="0.58212">
        <ele>144.3352051</ele>
        <time>2013-08-11T07:48:31Z</time>
      </trkpt>
      <trkpt lat="44.91007" lon="0.58225">
        <ele>144.3352051</ele>
        <time>2013-08-11T07:48:38Z</time>
      </trkpt>
      <trkpt lat="44.9104" lon="0.58246">
        <ele>143.3736572</ele>
        <time>2013-08-11T07:48:45Z</time>
      </trkpt>
      <trkpt lat="44.9105" lon="0.58255">
        <ele>143.3736572</ele>
        <time>2013-08-11T07:48:47Z</time>
      </trkpt>
      <trkpt lat="44.91059" lon="0.58265">
        <ele>143.8543701</ele>
        <time>2013-08-11T07:48:49Z</time>
      </trkpt>
      <trkpt lat="44.91076" lon="0.5829">
        <ele>143.3736572</ele>
        <time>2013-08-11T07:48:53Z</time>
      </trkpt>
      <trkpt lat="44.91103" lon="0.58312">
        <ele>144.8157959</ele>
        <time>2013-08-11T07:48:59Z</time>
      </trkpt>
      <trkpt lat="44.91108" lon="0.58315">
        <ele>144.8157959</ele>
        <time>2013-08-11T07:49:00Z</time>
      </trkpt>
      <trkpt lat="44.91127" lon="0.58333">
        <ele>144.8157959</ele>
        <time>2013-08-11T07:49:04Z</time>
      </trkpt>
      <trkpt lat="44.91136" lon="0.58344">
        <ele>144.3352051</ele>
        <time>2013-08-11T07:49:06Z</time>
      </trkpt>
      <trkpt lat="44.9115" lon="0.58357">
        <ele>143.3736572</ele>
        <time>2013-08-11T07:49:09Z</time>
      </trkpt>
      <trkpt lat="44.9115" lon="0.58357">
        <ele>143.3736572</ele>
        <time>2013-08-11T07:49:09Z</time>
      </trkpt>
      <trkpt lat="44.91165" lon="0.58375">
        <ele>142.8930664</ele>
        <time>2013-08-11T07:49:14Z</time>
      </trkpt>
      <trkpt lat="44.91165" lon="0.58376">
        <ele>142.8930664</ele>
        <time>2013-08-11T07:49:15Z</time>
      </trkpt>
      <trkpt lat="44.91173" lon="0.58387">
        <ele>141.4510498</ele>
        <time>2013-08-11T07:49:22Z</time>
      </trkpt>
      <trkpt lat="44.91177" lon="0.58391">
        <ele>140.4898682</ele>
        <time>2013-08-11T07:49:25Z</time>
      </trkpt>
      <trkpt lat="44.91179" lon="0.58394">
        <ele>140.970459</ele>
        <time>2013-08-11T07:49:32Z</time>
      </trkpt>
      <trkpt lat="44.91183" lon="0.58399">
        <ele>140.0091553</ele>
        <time>2013-08-11T07:49:37Z</time>
      </trkpt>
      <trkpt lat="44.91187" lon="0.58411">
        <ele>140.970459</ele>
        <time>2013-08-11T07:49:42Z</time>
      </trkpt>
      <trkpt lat="44.91197" lon="0.58438">
        <ele>144.3352051</ele>
        <time>2013-08-11T07:49:47Z</time>
      </trkpt>
      <trkpt lat="44.9121" lon="0.58463">
        <ele>142.4124756</ele>
        <time>2013-08-11T07:49:51Z</time>
      </trkpt>
      <trkpt lat="44.9122" lon="0.58501">
        <ele>140.4898682</ele>
        <time>2013-08-11T07:49:56Z</time>
      </trkpt>
      <trkpt lat="44.91224" lon="0.58514">
        <ele>139.5284424</ele>
        <time>2013-08-11T07:49:58Z</time>
      </trkpt>
      <trkpt lat="44.91236" lon="0.58538">
        <ele>138.5672607</ele>
        <time>2013-08-11T07:50:03Z</time>
      </trkpt>
      <trkpt lat="44.91238" lon="0.58544">
        <ele>138.0865479</ele>
        <time>2013-08-11T07:50:04Z</time>
      </trkpt>
      <trkpt lat="44.9125" lon="0.58568">
        <ele>139.0478516</ele>
        <time>2013-08-11T07:50:08Z</time>
      </trkpt>
      <trkpt lat="44.91265" lon="0.58579">
        <ele>136.1639404</ele>
        <time>2013-08-11T07:50:12Z</time>
      </trkpt>
      <trkpt lat="44.91292" lon="0.58587">
        <ele>137.605835</ele>
        <time>2013-08-11T07:50:19Z</time>
      </trkpt>
      <trkpt lat="44.91305" lon="0.58591">
        <ele>136.1639404</ele>
        <time>2013-08-11T07:50:22Z</time>
      </trkpt>
      <trkpt lat="44.91322" lon="0.586">
        <ele>135.2025146</ele>
        <time>2013-08-11T07:50:26Z</time>
      </trkpt>
      <trkpt lat="44.91339" lon="0.58607">
        <ele>135.6831055</ele>
        <time>2013-08-11T07:50:30Z</time>
      </trkpt>
      <trkpt lat="44.91354" lon="0.58616">
        <ele>135.6831055</ele>
        <time>2013-08-11T07:50:34Z</time>
      </trkpt>
      <trkpt lat="44.91361" lon="0.58636">
        <ele>137.605835</ele>
        <time>2013-08-11T07:50:39Z</time>
      </trkpt>
      <trkpt lat="44.91353" lon="0.58665">
        <ele>140.0091553</ele>
        <time>2013-08-11T07:50:44Z</time>
      </trkpt>
      <trkpt lat="44.91352" lon="0.5867">
        <ele>139.5284424</ele>
        <time>2013-08-11T07:50:45Z</time>
      </trkpt>
      <trkpt lat="44.91354" lon="0.58705">
        <ele>143.8543701</ele>
        <time>2013-08-11T07:50:51Z</time>
      </trkpt>
      <trkpt lat="44.91359" lon="0.58739">
        <ele>141.9317627</ele>
        <time>2013-08-11T07:50:57Z</time>
      </trkpt>
      <trkpt lat="44.91361" lon="0.58767">
        <ele>141.4510498</ele>
        <time>2013-08-11T07:51:02Z</time>
      </trkpt>
      <trkpt lat="44.91362" lon="0.58778">
        <ele>140.4898682</ele>
        <time>2013-08-11T07:51:04Z</time>
      </trkpt>
      <trkpt lat="44.91367" lon="0.58803">
        <ele>140.970459</ele>
        <time>2013-08-11T07:51:08Z</time>
      </trkpt>
      <trkpt lat="44.91371" lon="0.58821">
        <ele>139.5284424</ele>
        <time>2013-08-11T07:51:11Z</time>
      </trkpt>
      <trkpt lat="44.91384" lon="0.58843">
        <ele>138.5672607</ele>
        <time>2013-08-11T07:51:16Z</time>
      </trkpt>
      <trkpt lat="44.91387" lon="0.58846">
        <ele>138.5672607</ele>
        <time>2013-08-11T07:51:17Z</time>
      </trkpt>
      <trkpt lat="44.91407" lon="0.58866">
        <ele>140.0091553</ele>
        <time>2013-08-11T07:51:24Z</time>
      </trkpt>
      <trkpt lat="44.91422" lon="0.58888">
        <ele>140.0091553</ele>
        <time>2013-08-11T07:51:31Z</time>
      </trkpt>
      <trkpt lat="44.91432" lon="0.58915">
        <ele>142.8930664</ele>
        <time>2013-08-11T07:51:38Z</time>
      </trkpt>
      <trkpt lat="44.91437" lon="0.58947">
        <ele>143.8543701</ele>
        <time>2013-08-11T07:51:45Z</time>
      </trkpt>
      <trkpt lat="44.9144" lon="0.58976">
        <ele>144.8157959</ele>
        <time>2013-08-11T07:51:52Z</time>
      </trkpt>
      <trkpt lat="44.91443" lon="0.58993">
        <ele>144.8157959</ele>
        <time>2013-08-11T07:51:57Z</time>
      </trkpt>
      <trkpt lat="44.91447" lon="0.59013">
        <ele>144.3352051</ele>
        <time>2013-08-11T07:52:02Z</time>
      </trkpt>
      <trkpt lat="44.91453" lon="0.59033">
        <ele>144.3352051</ele>
        <time>2013-08-11T07:52:07Z</time>
      </trkpt>
      <trkpt lat="44.91464" lon="0.59056">
        <ele>144.3352051</ele>
        <time>2013-08-11T07:52:13Z</time>
      </trkpt>
      <trkpt lat="44.91477" lon="0.59078">
        <ele>144.3352051</ele>
        <time>2013-08-11T07:52:19Z</time>
      </trkpt>
      <trkpt lat="44.91493" lon="0.59099">
        <ele>143.8543701</ele>
        <time>2013-08-11T07:52:25Z</time>
      </trkpt>
      <trkpt lat="44.9151" lon="0.59118">
        <ele>143.8543701</ele>
        <time>2013-08-11T07:52:30Z</time>
      </trkpt>
      <trkpt lat="44.91517" lon="0.59127">
        <ele>142.8930664</ele>
        <time>2013-08-11T07:52:32Z</time>
      </trkpt>
      <trkpt lat="44.91546" lon="0.59151">
        <ele>140.4898682</ele>
        <time>2013-08-11T07:52:38Z</time>
      </trkpt>
      <trkpt lat="44.91549" lon="0.59154">
        <ele>140.0091553</ele>
        <time>2013-08-11T07:52:39Z</time>
      </trkpt>
      <trkpt lat="44.91555" lon="0.59161">
        <ele>139.0478516</ele>
        <time>2013-08-11T07:52:41Z</time>
      </trkpt>
      <trkpt lat="44.9156" lon="0.59167">
        <ele>137.605835</ele>
        <time>2013-08-11T07:52:43Z</time>
      </trkpt>
      <trkpt lat="44.91577" lon="0.5919">
        <ele>134.2412109</ele>
        <time>2013-08-11T07:52:49Z</time>
      </trkpt>
      <trkpt lat="44.91582" lon="0.59194">
        <ele>134.2412109</ele>
        <time>2013-08-11T07:52:50Z</time>
      </trkpt>
      <trkpt lat="44.91591" lon="0.59203">
        <ele>132.7993164</ele>
        <time>2013-08-11T07:52:52Z</time>
      </trkpt>
      <trkpt lat="44.91604" lon="0.5925">
        <ele>131.8378906</ele>
        <time>2013-08-11T07:52:58Z</time>
      </trkpt>
      <trkpt lat="44.91606" lon="0.59257">
        <ele>131.3572998</ele>
        <time>2013-08-11T07:52:59Z</time>
      </trkpt>
      <trkpt lat="44.91622" lon="0.59274">
        <ele>131.8378906</ele>
        <time>2013-08-11T07:53:04Z</time>
      </trkpt>
      <trkpt lat="44.91629" lon="0.59289">
        <ele>130.876709</ele>
        <time>2013-08-11T07:53:07Z</time>
      </trkpt>
      <trkpt lat="44.91631" lon="0.59303">
        <ele>129.9152832</ele>
        <time>2013-08-11T07:53:09Z</time>
      </trkpt>
      <trkpt lat="44.91635" lon="0.59315">
        <ele>129.9152832</ele>
        <time>2013-08-11T07:53:11Z</time>
      </trkpt>
      <trkpt lat="44.9164" lon="0.59323">
        <ele>128.9541016</ele>
        <time>2013-08-11T07:53:13Z</time>
      </trkpt>
      <trkpt lat="44.91651" lon="0.59336">
        <ele>127.5119629</ele>
        <time>2013-08-11T07:53:16Z</time>
      </trkpt>
      <trkpt lat="44.91668" lon="0.59356">
        <ele>128.9541016</ele>
        <time>2013-08-11T07:53:20Z</time>
      </trkpt>
      <trkpt lat="44.91689" lon="0.59376">
        <ele>130.876709</ele>
        <time>2013-08-11T07:53:25Z</time>
      </trkpt>
      <trkpt lat="44.91698" lon="0.59382">
        <ele>130.3959961</ele>
        <time>2013-08-11T07:53:28Z</time>
      </trkpt>
      <trkpt lat="44.91704" lon="0.59386">
        <ele>130.876709</ele>
        <time>2013-08-11T07:53:30Z</time>
      </trkpt>
      <trkpt lat="44.91715" lon="0.594">
        <ele>130.3959961</ele>
        <time>2013-08-11T07:53:34Z</time>
      </trkpt>
      <trkpt lat="44.91723" lon="0.59422">
        <ele>130.876709</ele>
        <time>2013-08-11T07:53:39Z</time>
      </trkpt>
      <trkpt lat="44.91732" lon="0.59445">
        <ele>130.3959961</ele>
        <time>2013-08-11T07:53:44Z</time>
      </trkpt>
      <trkpt lat="44.9174" lon="0.59477">
        <ele>131.3572998</ele>
        <time>2013-08-11T07:53:50Z</time>
      </trkpt>
      <trkpt lat="44.9175" lon="0.595">
        <ele>130.876709</ele>
        <time>2013-08-11T07:53:56Z</time>
      </trkpt>
      <trkpt lat="44.91759" lon="0.59516">
        <ele>131.8378906</ele>
        <time>2013-08-11T07:54:01Z</time>
      </trkpt>
      <trkpt lat="44.9177" lon="0.59538">
        <ele>130.876709</ele>
        <time>2013-08-11T07:54:05Z</time>
      </trkpt>
      <trkpt lat="44.91778" lon="0.59547">
        <ele>131.3572998</ele>
        <time>2013-08-11T07:54:07Z</time>
      </trkpt>
      <trkpt lat="44.91786" lon="0.59553">
        <ele>132.7993164</ele>
        <time>2013-08-11T07:54:09Z</time>
      </trkpt>
      <trkpt lat="44.91808" lon="0.59572">
        <ele>135.2025146</ele>
        <time>2013-08-11T07:54:15Z</time>
      </trkpt>
      <trkpt lat="44.91827" lon="0.59595">
        <ele>135.6831055</ele>
        <time>2013-08-11T07:54:22Z</time>
      </trkpt>
      <trkpt lat="44.91845" lon="0.59614">
        <ele>138.5672607</ele>
        <time>2013-08-11T07:54:28Z</time>
      </trkpt>
      <trkpt lat="44.91863" lon="0.59624">
        <ele>138.0865479</ele>
        <time>2013-08-11T07:54:32Z</time>
      </trkpt>
      <trkpt lat="44.91871" lon="0.59631">
        <ele>136.6446533</ele>
        <time>2013-08-11T07:54:34Z</time>
      </trkpt>
      <trkpt lat="44.91881" lon="0.59648">
        <ele>134.2412109</ele>
        <time>2013-08-11T07:54:38Z</time>
      </trkpt>
      <trkpt lat="44.91887" lon="0.59662">
        <ele>134.7219238</ele>
        <time>2013-08-11T07:54:41Z</time>
      </trkpt>
      <trkpt lat="44.91895" lon="0.59677">
        <ele>132.7993164</ele>
        <time>2013-08-11T07:54:46Z</time>
      </trkpt>
      <trkpt lat="44.9191" lon="0.59693">
        <ele>131.3572998</ele>
        <time>2013-08-11T07:54:53Z</time>
      </trkpt>
      <trkpt lat="44.91921" lon="0.59699">
        <ele>131.3572998</ele>
        <time>2013-08-11T07:54:58Z</time>
      </trkpt>
      <trkpt lat="44.91934" lon="0.59711">
        <ele>131.3572998</ele>
        <time>2013-08-11T07:55:04Z</time>
      </trkpt>
      <trkpt lat="44.91946" lon="0.59721">
        <ele>132.7993164</ele>
        <time>2013-08-11T07:55:09Z</time>
      </trkpt>
      <trkpt lat="44.91963" lon="0.59737">
        <ele>135.6831055</ele>
        <time>2013-08-11T07:55:15Z</time>
      </trkpt>
      <trkpt lat="44.91979" lon="0.59749">
        <ele>135.6831055</ele>
        <time>2013-08-11T07:55:20Z</time>
      </trkpt>
      <trkpt lat="44.91999" lon="0.59769">
        <ele>135.2025146</ele>
        <time>2013-08-11T07:55:26Z</time>
      </trkpt>
      <trkpt lat="44.92016" lon="0.59787">
        <ele>135.6831055</ele>
        <time>2013-08-11T07:55:32Z</time>
      </trkpt>
      <trkpt lat="44.92027" lon="0.59799">
        <ele>135.2025146</ele>
        <time>2013-08-11T07:55:36Z</time>
      </trkpt>
      <trkpt lat="44.92041" lon="0.5982">
        <ele>134.7219238</ele>
        <time>2013-08-11T07:55:42Z</time>
      </trkpt>
      <trkpt lat="44.92058" lon="0.59832">
        <ele>137.605835</ele>
        <time>2013-08-11T07:55:48Z</time>
      </trkpt>
      <trkpt lat="44.92075" lon="0.59852">
        <ele>140.970459</ele>
        <time>2013-08-11T07:55:55Z</time>
      </trkpt>
      <trkpt lat="44.92087" lon="0.59868">
        <ele>142.4124756</ele>
        <time>2013-08-11T07:56:01Z</time>
      </trkpt>
      <trkpt lat="44.92106" lon="0.59896">
        <ele>143.8543701</ele>
        <time>2013-08-11T07:56:11Z</time>
      </trkpt>
      <trkpt lat="44.92118" lon="0.59917">
        <ele>145.7770996</ele>
        <time>2013-08-11T07:56:18Z</time>
      </trkpt>
      <trkpt lat="44.92129" lon="0.59939">
        <ele>147.2189941</ele>
        <time>2013-08-11T07:56:25Z</time>
      </trkpt>
      <trkpt lat="44.92145" lon="0.59967">
        <ele>151.064209</ele>
        <time>2013-08-11T07:56:34Z</time>
      </trkpt>
      <trkpt lat="44.92159" lon="0.59991">
        <ele>151.5449219</ele>
        <time>2013-08-11T07:56:42Z</time>
      </trkpt>
      <trkpt lat="44.92168" lon="0.60009">
        <ele>152.5063477</ele>
        <time>2013-08-11T07:56:48Z</time>
      </trkpt>
      <trkpt lat="44.92183" lon="0.60037">
        <ele>154.4289551</ele>
        <time>2013-08-11T07:56:57Z</time>
      </trkpt>
      <trkpt lat="44.92193" lon="0.60062">
        <ele>153.9483643</ele>
        <time>2013-08-11T07:57:05Z</time>
      </trkpt>
      <trkpt lat="44.92198" lon="0.60072">
        <ele>153.9483643</ele>
        <time>2013-08-11T07:57:08Z</time>
      </trkpt>
      <trkpt lat="44.92201" lon="0.60075">
        <ele>155.3902588</ele>
        <time>2013-08-11T07:57:10Z</time>
      </trkpt>
      <trkpt lat="44.92209" lon="0.60084">
        <ele>156.8321533</ele>
        <time>2013-08-11T07:57:15Z</time>
      </trkpt>
      <trkpt lat="44.92225" lon="0.60099">
        <ele>157.7935791</ele>
        <time>2013-08-11T07:57:22Z</time>
      </trkpt>
      <trkpt lat="44.92231" lon="0.60107">
        <ele>158.2741699</ele>
        <time>2013-08-11T07:57:25Z</time>
      </trkpt>
      <trkpt lat="44.92247" lon="0.60129">
        <ele>158.2741699</ele>
        <time>2013-08-11T07:57:32Z</time>
      </trkpt>
      <trkpt lat="44.92253" lon="0.60143">
        <ele>159.2354736</ele>
        <time>2013-08-11T07:57:36Z</time>
      </trkpt>
      <trkpt lat="44.92262" lon="0.60157">
        <ele>157.7935791</ele>
        <time>2013-08-11T07:57:40Z</time>
      </trkpt>
      <trkpt lat="44.92269" lon="0.60165">
        <ele>156.8321533</ele>
        <time>2013-08-11T07:57:43Z</time>
      </trkpt>
      <trkpt lat="44.92269" lon="0.60165">
        <ele>156.8321533</ele>
        <time>2013-08-11T07:57:43Z</time>
      </trkpt>
      <trkpt lat="44.92274" lon="0.60172">
        <ele>156.3515625</ele>
        <time>2013-08-11T07:57:45Z</time>
      </trkpt>
      <trkpt lat="44.92284" lon="0.60191">
        <ele>154.4289551</ele>
        <time>2013-08-11T07:57:50Z</time>
      </trkpt>
      <trkpt lat="44.92295" lon="0.60216">
        <ele>155.3902588</ele>
        <time>2013-08-11T07:57:56Z</time>
      </trkpt>
      <trkpt lat="44.92302" lon="0.6024">
        <ele>156.3515625</ele>
        <time>2013-08-11T07:58:01Z</time>
      </trkpt>
      <trkpt lat="44.92308" lon="0.60287">
        <ele>157.7935791</ele>
        <time>2013-08-11T07:58:10Z</time>
      </trkpt>
      <trkpt lat="44.92315" lon="0.60333">
        <ele>159.2354736</ele>
        <time>2013-08-11T07:58:19Z</time>
      </trkpt>
      <trkpt lat="44.92323" lon="0.6035">
        <ele>159.7161865</ele>
        <time>2013-08-11T07:58:24Z</time>
      </trkpt>
      <trkpt lat="44.92341" lon="0.60353">
        <ele>159.7161865</ele>
        <time>2013-08-11T07:58:29Z</time>
      </trkpt>
      <trkpt lat="44.92371" lon="0.60357">
        <ele>159.2354736</ele>
        <time>2013-08-11T07:58:34Z</time>
      </trkpt>
      <trkpt lat="44.92407" lon="0.60356">
        <ele>158.2741699</ele>
        <time>2013-08-11T07:58:39Z</time>
      </trkpt>
      <trkpt lat="44.92413" lon="0.60354">
        <ele>157.7935791</ele>
        <time>2013-08-11T07:58:40Z</time>
      </trkpt>
      <trkpt lat="44.92425" lon="0.60337">
        <ele>156.3515625</ele>
        <time>2013-08-11T07:58:44Z</time>
      </trkpt>
      <trkpt lat="44.92424" lon="0.60331">
        <ele>155.8709717</ele>
        <time>2013-08-11T07:58:45Z</time>
      </trkpt>
      <trkpt lat="44.92422" lon="0.60306">
        <ele>155.8709717</ele>
        <time>2013-08-11T07:58:49Z</time>
      </trkpt>
      <trkpt lat="44.92422" lon="0.60292">
        <ele>155.8709717</ele>
        <time>2013-08-11T07:58:51Z</time>
      </trkpt>
      <trkpt lat="44.92416" lon="0.60238">
        <ele>155.8709717</ele>
        <time>2013-08-11T07:58:58Z</time>
      </trkpt>
      <trkpt lat="44.9241" lon="0.60193">
        <ele>157.7935791</ele>
        <time>2013-08-11T07:59:03Z</time>
      </trkpt>
      <trkpt lat="44.92401" lon="0.60129">
        <ele>156.3515625</ele>
        <time>2013-08-11T07:59:10Z</time>
      </trkpt>
      <trkpt lat="44.92399" lon="0.60071">
        <ele>154.9095459</ele>
        <time>2013-08-11T07:59:16Z</time>
      </trkpt>
      <trkpt lat="44.92399" lon="0.60062">
        <ele>154.4289551</ele>
        <time>2013-08-11T07:59:17Z</time>
      </trkpt>
      <trkpt lat="44.92396" lon="0.60013">
        <ele>153.9483643</ele>
        <time>2013-08-11T07:59:22Z</time>
      </trkpt>
      <trkpt lat="44.92384" lon="0.5997">
        <ele>152.9869385</ele>
        <time>2013-08-11T07:59:27Z</time>
      </trkpt>
      <trkpt lat="44.92385" lon="0.59936">
        <ele>152.9869385</ele>
        <time>2013-08-11T07:59:31Z</time>
      </trkpt>
      <trkpt lat="44.92388" lon="0.59929">
        <ele>153.4676514</ele>
        <time>2013-08-11T07:59:32Z</time>
      </trkpt>
      <trkpt lat="44.92399" lon="0.59902">
        <ele>153.4676514</ele>
        <time>2013-08-11T07:59:36Z</time>
      </trkpt>
      <trkpt lat="44.92405" lon="0.59882">
        <ele>154.4289551</ele>
        <time>2013-08-11T07:59:39Z</time>
      </trkpt>
      <trkpt lat="44.92416" lon="0.59847">
        <ele>155.8709717</ele>
        <time>2013-08-11T07:59:45Z</time>
      </trkpt>
      <trkpt lat="44.92428" lon="0.59818">
        <ele>158.2741699</ele>
        <time>2013-08-11T07:59:51Z</time>
      </trkpt>
      <trkpt lat="44.9244" lon="0.59788">
        <ele>163.0808105</ele>
        <time>2013-08-11T07:59:59Z</time>
      </trkpt>
      <trkpt lat="44.92454" lon="0.59762">
        <ele>166.4453125</ele>
        <time>2013-08-11T08:00:06Z</time>
      </trkpt>
      <trkpt lat="44.92462" lon="0.59747">
        <ele>167.4067383</ele>
        <time>2013-08-11T08:00:10Z</time>
      </trkpt>
      <trkpt lat="44.92473" lon="0.59724">
        <ele>167.8873291</ele>
        <time>2013-08-11T08:00:15Z</time>
      </trkpt>
      <trkpt lat="44.92487" lon="0.597">
        <ele>168.368042</ele>
        <time>2013-08-11T08:00:20Z</time>
      </trkpt>
      <trkpt lat="44.9249" lon="0.59695">
        <ele>168.368042</ele>
        <time>2013-08-11T08:00:21Z</time>
      </trkpt>
      <trkpt lat="44.92507" lon="0.59666">
        <ele>169.8100586</ele>
        <time>2013-08-11T08:00:27Z</time>
      </trkpt>
      <trkpt lat="44.92533" lon="0.59637">
        <ele>169.8100586</ele>
        <time>2013-08-11T08:00:33Z</time>
      </trkpt>
      <trkpt lat="44.92537" lon="0.59633">
        <ele>169.8100586</ele>
        <time>2013-08-11T08:00:34Z</time>
      </trkpt>
      <trkpt lat="44.92555" lon="0.59601">
        <ele>169.3294678</ele>
        <time>2013-08-11T08:00:39Z</time>
      </trkpt>
      <trkpt lat="44.9256" lon="0.59568">
        <ele>165.4841309</ele>
        <time>2013-08-11T08:00:43Z</time>
      </trkpt>
      <trkpt lat="44.92552" lon="0.59529">
        <ele>165.003418</ele>
        <time>2013-08-11T08:00:47Z</time>
      </trkpt>
      <trkpt lat="44.9255" lon="0.59521">
        <ele>165.4841309</ele>
        <time>2013-08-11T08:00:48Z</time>
      </trkpt>
      <trkpt lat="44.9255" lon="0.59521">
        <ele>165.4841309</ele>
        <time>2013-08-11T08:00:48Z</time>
      </trkpt>
      <trkpt lat="44.92537" lon="0.59498">
        <ele>161.638916</ele>
        <time>2013-08-11T08:00:53Z</time>
      </trkpt>
      <trkpt lat="44.92535" lon="0.59486">
        <ele>160.1968994</ele>
        <time>2013-08-11T08:00:56Z</time>
      </trkpt>
      <trkpt lat="44.92535" lon="0.59449">
        <ele>157.7935791</ele>
        <time>2013-08-11T08:01:02Z</time>
      </trkpt>
      <trkpt lat="44.92538" lon="0.59421">
        <ele>156.8321533</ele>
        <time>2013-08-11T08:01:06Z</time>
      </trkpt>
      <trkpt lat="44.92548" lon="0.59388">
        <ele>155.8709717</ele>
        <time>2013-08-11T08:01:11Z</time>
      </trkpt>
      <trkpt lat="44.92555" lon="0.59351">
        <ele>155.8709717</ele>
        <time>2013-08-11T08:01:16Z</time>
      </trkpt>
      <trkpt lat="44.92555" lon="0.59344">
        <ele>156.3515625</ele>
        <time>2013-08-11T08:01:17Z</time>
      </trkpt>
      <trkpt lat="44.92552" lon="0.59322">
        <ele>156.3515625</ele>
        <time>2013-08-11T08:01:20Z</time>
      </trkpt>
      <trkpt lat="44.92549" lon="0.59283">
        <ele>157.7935791</ele>
        <time>2013-08-11T08:01:25Z</time>
      </trkpt>
      <trkpt lat="44.92543" lon="0.59254">
        <ele>158.2741699</ele>
        <time>2013-08-11T08:01:29Z</time>
      </trkpt>
      <trkpt lat="44.92534" lon="0.59234">
        <ele>162.1195068</ele>
        <time>2013-08-11T08:01:33Z</time>
      </trkpt>
      <trkpt lat="44.92526" lon="0.59217">
        <ele>160.6774902</ele>
        <time>2013-08-11T08:01:36Z</time>
      </trkpt>
      <trkpt lat="44.92517" lon="0.59184">
        <ele>160.1968994</ele>
        <time>2013-08-11T08:01:41Z</time>
      </trkpt>
      <trkpt lat="44.92512" lon="0.59155">
        <ele>161.638916</ele>
        <time>2013-08-11T08:01:46Z</time>
      </trkpt>
      <trkpt lat="44.92509" lon="0.59123">
        <ele>163.5615234</ele>
        <time>2013-08-11T08:01:52Z</time>
      </trkpt>
      <trkpt lat="44.92501" lon="0.59095">
        <ele>164.0421143</ele>
        <time>2013-08-11T08:01:57Z</time>
      </trkpt>
      <trkpt lat="44.92508" lon="0.59086">
        <ele>161.638916</ele>
        <time>2013-08-11T08:02:01Z</time>
      </trkpt>
      <trkpt lat="44.92533" lon="0.5909">
        <ele>158.7547607</ele>
        <time>2013-08-11T08:02:07Z</time>
      </trkpt>
      <trkpt lat="44.92556" lon="0.59089">
        <ele>158.2741699</ele>
        <time>2013-08-11T08:02:12Z</time>
      </trkpt>
      <trkpt lat="44.92588" lon="0.59091">
        <ele>158.7547607</ele>
        <time>2013-08-11T08:02:20Z</time>
      </trkpt>
      <trkpt lat="44.92608" lon="0.59091">
        <ele>158.2741699</ele>
        <time>2013-08-11T08:02:25Z</time>
      </trkpt>
      <trkpt lat="44.92636" lon="0.59087">
        <ele>156.8321533</ele>
        <time>2013-08-11T08:02:31Z</time>
      </trkpt>
      <trkpt lat="44.92646" lon="0.59083">
        <ele>155.3902588</ele>
        <time>2013-08-11T08:02:33Z</time>
      </trkpt>
      <trkpt lat="44.92662" lon="0.59076">
        <ele>153.4676514</ele>
        <time>2013-08-11T08:02:36Z</time>
      </trkpt>
      <trkpt lat="44.9269" lon="0.59067">
        <ele>151.5449219</ele>
        <time>2013-08-11T08:02:41Z</time>
      </trkpt>
      <trkpt lat="44.92706" lon="0.59063">
        <ele>150.1030273</ele>
        <time>2013-08-11T08:02:45Z</time>
      </trkpt>
      <trkpt lat="44.92722" lon="0.5905">
        <ele>151.064209</ele>
        <time>2013-08-11T08:02:50Z</time>
      </trkpt>
      <trkpt lat="44.92734" lon="0.59037">
        <ele>153.9483643</ele>
        <time>2013-08-11T08:02:54Z</time>
      </trkpt>
      <trkpt lat="44.92752" lon="0.59021">
        <ele>158.2741699</ele>
        <time>2013-08-11T08:03:00Z</time>
      </trkpt>
      <trkpt lat="44.92769" lon="0.59013">
        <ele>161.638916</ele>
        <time>2013-08-11T08:03:05Z</time>
      </trkpt>
      <trkpt lat="44.92783" lon="0.59007">
        <ele>166.4453125</ele>
        <time>2013-08-11T08:03:10Z</time>
      </trkpt>
      <trkpt lat="44.92797" lon="0.58995">
        <ele>166.4453125</ele>
        <time>2013-08-11T08:03:15Z</time>
      </trkpt>
      <trkpt lat="44.92807" lon="0.58981">
        <ele>166.4453125</ele>
        <time>2013-08-11T08:03:20Z</time>
      </trkpt>
      <trkpt lat="44.92815" lon="0.58963">
        <ele>166.9260254</ele>
        <time>2013-08-11T08:03:26Z</time>
      </trkpt>
      <trkpt lat="44.92818" lon="0.58956">
        <ele>166.4453125</ele>
        <time>2013-08-11T08:03:29Z</time>
      </trkpt>
      <trkpt lat="44.92825" lon="0.58948">
        <ele>165.9647217</ele>
        <time>2013-08-11T08:03:34Z</time>
      </trkpt>
      <trkpt lat="44.92829" lon="0.58937">
        <ele>165.9647217</ele>
        <time>2013-08-11T08:03:38Z</time>
      </trkpt>
      <trkpt lat="44.92837" lon="0.58937">
        <ele>165.4841309</ele>
        <time>2013-08-11T08:03:43Z</time>
      </trkpt>
      <trkpt lat="44.92852" lon="0.5895">
        <ele>164.5227051</ele>
        <time>2013-08-11T08:03:50Z</time>
      </trkpt>
      <trkpt lat="44.9287" lon="0.58971">
        <ele>162.6000977</ele>
        <time>2013-08-11T08:03:58Z</time>
      </trkpt>
      <trkpt lat="44.92881" lon="0.5899">
        <ele>163.5615234</ele>
        <time>2013-08-11T08:04:04Z</time>
      </trkpt>
      <trkpt lat="44.92898" lon="0.59006">
        <ele>164.0421143</ele>
        <time>2013-08-11T08:04:11Z</time>
      </trkpt>
      <trkpt lat="44.92914" lon="0.59013">
        <ele>165.9647217</ele>
        <time>2013-08-11T08:04:17Z</time>
      </trkpt>
      <trkpt lat="44.92935" lon="0.59024">
        <ele>166.9260254</ele>
        <time>2013-08-11T08:04:25Z</time>
      </trkpt>
      <trkpt lat="44.92949" lon="0.59034">
        <ele>167.4067383</ele>
        <time>2013-08-11T08:04:31Z</time>
      </trkpt>
      <trkpt lat="44.92965" lon="0.59042">
        <ele>167.8873291</ele>
        <time>2013-08-11T08:04:37Z</time>
      </trkpt>
      <trkpt lat="44.92985" lon="0.59052">
        <ele>167.4067383</ele>
        <time>2013-08-11T08:04:42Z</time>
      </trkpt>
      <trkpt lat="44.93014" lon="0.59067">
        <ele>165.9647217</ele>
        <time>2013-08-11T08:04:48Z</time>
      </trkpt>
      <trkpt lat="44.93014" lon="0.59067">
        <ele>165.9647217</ele>
        <time>2013-08-11T08:04:48Z</time>
      </trkpt>
      <trkpt lat="44.93022" lon="0.59074">
        <ele>165.4841309</ele>
        <time>2013-08-11T08:04:50Z</time>
      </trkpt>
      <trkpt lat="44.93037" lon="0.5908">
        <ele>164.5227051</ele>
        <time>2013-08-11T08:04:53Z</time>
      </trkpt>
      <trkpt lat="44.93068" lon="0.59097">
        <ele>163.5615234</ele>
        <time>2013-08-11T08:05:00Z</time>
      </trkpt>
      <trkpt lat="44.9309" lon="0.59106">
        <ele>165.003418</ele>
        <time>2013-08-11T08:05:06Z</time>
      </trkpt>
      <trkpt lat="44.93109" lon="0.59112">
        <ele>166.9260254</ele>
        <time>2013-08-11T08:05:13Z</time>
      </trkpt>
      <trkpt lat="44.93131" lon="0.59121">
        <ele>166.9260254</ele>
        <time>2013-08-11T08:05:20Z</time>
      </trkpt>
      <trkpt lat="44.93151" lon="0.59131">
        <ele>167.4067383</ele>
        <time>2013-08-11T08:05:27Z</time>
      </trkpt>
      <trkpt lat="44.93179" lon="0.59143">
        <ele>167.8873291</ele>
        <time>2013-08-11T08:05:36Z</time>
      </trkpt>
      <trkpt lat="44.93195" lon="0.59159">
        <ele>171.2520752</ele>
        <time>2013-08-11T08:05:43Z</time>
      </trkpt>
      <trkpt lat="44.93208" lon="0.59177">
        <ele>174.1358643</ele>
        <time>2013-08-11T08:05:51Z</time>
      </trkpt>
      <trkpt lat="44.93222" lon="0.59188">
        <ele>177.9812012</ele>
        <time>2013-08-11T08:05:59Z</time>
      </trkpt>
      <trkpt lat="44.93229" lon="0.59207">
        <ele>179.9038086</ele>
        <time>2013-08-11T08:06:06Z</time>
      </trkpt>
      <trkpt lat="44.93235" lon="0.59227">
        <ele>179.9038086</ele>
        <time>2013-08-11T08:06:12Z</time>
      </trkpt>
      <trkpt lat="44.93242" lon="0.59259">
        <ele>177.9812012</ele>
        <time>2013-08-11T08:06:20Z</time>
      </trkpt>
      <trkpt lat="44.93242" lon="0.59296">
        <ele>177.0200195</ele>
        <time>2013-08-11T08:06:25Z</time>
      </trkpt>
      <trkpt lat="44.93242" lon="0.59314">
        <ele>177.0200195</ele>
        <time>2013-08-11T08:06:27Z</time>
      </trkpt>
      <trkpt lat="44.93245" lon="0.59341">
        <ele>176.0585938</ele>
        <time>2013-08-11T08:06:30Z</time>
      </trkpt>
      <trkpt lat="44.93255" lon="0.59379">
        <ele>176.0585938</ele>
        <time>2013-08-11T08:06:35Z</time>
      </trkpt>
      <trkpt lat="44.93252" lon="0.59404">
        <ele>176.5393066</ele>
        <time>2013-08-11T08:06:39Z</time>
      </trkpt>
      <trkpt lat="44.93247" lon="0.59405">
        <ele>177.0200195</ele>
        <time>2013-08-11T08:06:40Z</time>
      </trkpt>
      <trkpt lat="44.9323" lon="0.59423">
        <ele>177.9812012</ele>
        <time>2013-08-11T08:06:46Z</time>
      </trkpt>
      <trkpt lat="44.93231" lon="0.59431">
        <ele>178.4619141</ele>
        <time>2013-08-11T08:06:48Z</time>
      </trkpt>
      <trkpt lat="44.93251" lon="0.59457">
        <ele>178.4619141</ele>
        <time>2013-08-11T08:06:55Z</time>
      </trkpt>
      <trkpt lat="44.93286" lon="0.59501">
        <ele>178.4619141</ele>
        <time>2013-08-11T08:07:05Z</time>
      </trkpt>
      <trkpt lat="44.93318" lon="0.59533">
        <ele>180.3845215</ele>
        <time>2013-08-11T08:07:13Z</time>
      </trkpt>
      <trkpt lat="44.93344" lon="0.59555">
        <ele>182.7878418</ele>
        <time>2013-08-11T08:07:19Z</time>
      </trkpt>
      <trkpt lat="44.93369" lon="0.59579">
        <ele>181.826416</ele>
        <time>2013-08-11T08:07:24Z</time>
      </trkpt>
      <trkpt lat="44.9341" lon="0.59622">
        <ele>179.9038086</ele>
        <time>2013-08-11T08:07:32Z</time>
      </trkpt>
      <trkpt lat="44.9344" lon="0.59653">
        <ele>178.4619141</ele>
        <time>2013-08-11T08:07:38Z</time>
      </trkpt>
      <trkpt lat="44.93473" lon="0.59683">
        <ele>177.5006104</ele>
        <time>2013-08-11T08:07:44Z</time>
      </trkpt>
      <trkpt lat="44.93526" lon="0.59733">
        <ele>175.09729</ele>
        <time>2013-08-11T08:07:53Z</time>
      </trkpt>
      <trkpt lat="44.93543" lon="0.59754">
        <ele>173.6552734</ele>
        <time>2013-08-11T08:07:56Z</time>
      </trkpt>
      <trkpt lat="44.93557" lon="0.59788">
        <ele>171.732666</ele>
        <time>2013-08-11T08:08:00Z</time>
      </trkpt>
      <trkpt lat="44.93579" lon="0.59859">
        <ele>171.732666</ele>
        <time>2013-08-11T08:08:08Z</time>
      </trkpt>
      <trkpt lat="44.93583" lon="0.59868">
        <ele>171.732666</ele>
        <time>2013-08-11T08:08:09Z</time>
      </trkpt>
      <trkpt lat="44.93605" lon="0.59907">
        <ele>170.2906494</ele>
        <time>2013-08-11T08:08:14Z</time>
      </trkpt>
      <trkpt lat="44.93634" lon="0.59961">
        <ele>166.9260254</ele>
        <time>2013-08-11T08:08:20Z</time>
      </trkpt>
      <trkpt lat="44.93646" lon="0.60019">
        <ele>165.4841309</ele>
        <time>2013-08-11T08:08:25Z</time>
      </trkpt>
      <trkpt lat="44.93646" lon="0.60063">
        <ele>164.5227051</ele>
        <time>2013-08-11T08:08:29Z</time>
      </trkpt>
      <trkpt lat="44.93654" lon="0.60085">
        <ele>165.003418</ele>
        <time>2013-08-11T08:08:33Z</time>
      </trkpt>
      <trkpt lat="44.93664" lon="0.60085">
        <ele>165.003418</ele>
        <time>2013-08-11T08:08:36Z</time>
      </trkpt>
      <trkpt lat="44.93668" lon="0.60084">
        <ele>165.9647217</ele>
        <time>2013-08-11T08:08:37Z</time>
      </trkpt>
      <trkpt lat="44.93678" lon="0.60084">
        <ele>168.8487549</ele>
        <time>2013-08-11T08:08:40Z</time>
      </trkpt>
      <trkpt lat="44.93707" lon="0.60081">
        <ele>173.6552734</ele>
        <time>2013-08-11T08:08:46Z</time>
      </trkpt>
      <trkpt lat="44.93728" lon="0.60079">
        <ele>176.0585938</ele>
        <time>2013-08-11T08:08:50Z</time>
      </trkpt>
      <trkpt lat="44.93752" lon="0.60072">
        <ele>176.5393066</ele>
        <time>2013-08-11T08:08:56Z</time>
      </trkpt>
      <trkpt lat="44.93769" lon="0.60076">
        <ele>178.4619141</ele>
        <time>2013-08-11T08:09:01Z</time>
      </trkpt>
      <trkpt lat="44.93772" lon="0.60084">
        <ele>178.4619141</ele>
        <time>2013-08-11T08:09:03Z</time>
      </trkpt>
      <trkpt lat="44.9378" lon="0.60111">
        <ele>178.942627</ele>
        <time>2013-08-11T08:09:08Z</time>
      </trkpt>
      <trkpt lat="44.93791" lon="0.60146">
        <ele>175.09729</ele>
        <time>2013-08-11T08:09:13Z</time>
      </trkpt>
      <trkpt lat="44.93797" lon="0.60159">
        <ele>175.09729</ele>
        <time>2013-08-11T08:09:15Z</time>
      </trkpt>
      <trkpt lat="44.93811" lon="0.60206">
        <ele>175.5778809</ele>
        <time>2013-08-11T08:09:21Z</time>
      </trkpt>
      <trkpt lat="44.93822" lon="0.6023">
        <ele>175.5778809</ele>
        <time>2013-08-11T08:09:25Z</time>
      </trkpt>
      <trkpt lat="44.93834" lon="0.60233">
        <ele>172.2132568</ele>
        <time>2013-08-11T08:09:28Z</time>
      </trkpt>
      <trkpt lat="44.93845" lon="0.60218">
        <ele>170.7713623</ele>
        <time>2013-08-11T08:09:31Z</time>
      </trkpt>
      <trkpt lat="44.93858" lon="0.60182">
        <ele>168.8487549</ele>
        <time>2013-08-11T08:09:36Z</time>
      </trkpt>
      <trkpt lat="44.93877" lon="0.60139">
        <ele>166.9260254</ele>
        <time>2013-08-11T08:09:42Z</time>
      </trkpt>
      <trkpt lat="44.93885" lon="0.60112">
        <ele>166.4453125</ele>
        <time>2013-08-11T08:09:46Z</time>
      </trkpt>
      <trkpt lat="44.93885" lon="0.60104">
        <ele>166.4453125</ele>
        <time>2013-08-11T08:09:47Z</time>
      </trkpt>
      <trkpt lat="44.93884" lon="0.60073">
        <ele>166.9260254</ele>
        <time>2013-08-11T08:09:51Z</time>
      </trkpt>
      <trkpt lat="44.93898" lon="0.60057">
        <ele>165.003418</ele>
        <time>2013-08-11T08:09:55Z</time>
      </trkpt>
      <trkpt lat="44.93905" lon="0.60051">
        <ele>164.0421143</ele>
        <time>2013-08-11T08:09:57Z</time>
      </trkpt>
      <trkpt lat="44.93914" lon="0.60032">
        <ele>162.1195068</ele>
        <time>2013-08-11T08:10:00Z</time>
      </trkpt>
      <trkpt lat="44.93923" lon="0.60013">
        <ele>158.7547607</ele>
        <time>2013-08-11T08:10:03Z</time>
      </trkpt>
      <trkpt lat="44.93938" lon="0.59977">
        <ele>157.7935791</ele>
        <time>2013-08-11T08:10:07Z</time>
      </trkpt>
      <trkpt lat="44.93961" lon="0.5994">
        <ele>155.3902588</ele>
        <time>2013-08-11T08:10:12Z</time>
      </trkpt>
      <trkpt lat="44.93978" lon="0.599">
        <ele>154.4289551</ele>
        <time>2013-08-11T08:10:17Z</time>
      </trkpt>
      <trkpt lat="44.93981" lon="0.59892">
        <ele>154.4289551</ele>
        <time>2013-08-11T08:10:18Z</time>
      </trkpt>
      <trkpt lat="44.93995" lon="0.5987">
        <ele>155.8709717</ele>
        <time>2013-08-11T08:10:22Z</time>
      </trkpt>
      <trkpt lat="44.94001" lon="0.59853">
        <ele>155.8709717</ele>
        <time>2013-08-11T08:10:25Z</time>
      </trkpt>
      <trkpt lat="44.94014" lon="0.59836">
        <ele>157.3128662</ele>
        <time>2013-08-11T08:10:30Z</time>
      </trkpt>
      <trkpt lat="44.9403" lon="0.59828">
        <ele>161.638916</ele>
        <time>2013-08-11T08:10:37Z</time>
      </trkpt>
      <trkpt lat="44.94036" lon="0.59826">
        <ele>161.638916</ele>
        <time>2013-08-11T08:10:40Z</time>
      </trkpt>
      <trkpt lat="44.94046" lon="0.59814">
        <ele>164.0421143</ele>
        <time>2013-08-11T08:10:46Z</time>
      </trkpt>
      <trkpt lat="44.94056" lon="0.59807">
        <ele>163.5615234</ele>
        <time>2013-08-11T08:10:51Z</time>
      </trkpt>
      <trkpt lat="44.94059" lon="0.59803">
        <ele>164.5227051</ele>
        <time>2013-08-11T08:10:53Z</time>
      </trkpt>
      <trkpt lat="44.94063" lon="0.59797">
        <ele>163.5615234</ele>
        <time>2013-08-11T08:10:55Z</time>
      </trkpt>
      <trkpt lat="44.94076" lon="0.59775">
        <ele>163.5615234</ele>
        <time>2013-08-11T08:11:02Z</time>
      </trkpt>
      <trkpt lat="44.94084" lon="0.59761">
        <ele>163.5615234</ele>
        <time>2013-08-11T08:11:06Z</time>
      </trkpt>
      <trkpt lat="44.94095" lon="0.59747">
        <ele>163.5615234</ele>
        <time>2013-08-11T08:11:10Z</time>
      </trkpt>
      <trkpt lat="44.94111" lon="0.59735">
        <ele>163.0808105</ele>
        <time>2013-08-11T08:11:14Z</time>
      </trkpt>
      <trkpt lat="44.94115" lon="0.59731">
        <ele>163.0808105</ele>
        <time>2013-08-11T08:11:15Z</time>
      </trkpt>
      <trkpt lat="44.94115" lon="0.59731">
        <ele>163.0808105</ele>
        <time>2013-08-11T08:11:15Z</time>
      </trkpt>
      <trkpt lat="44.9413" lon="0.59723">
        <ele>162.1195068</ele>
        <time>2013-08-11T08:11:18Z</time>
      </trkpt>
      <trkpt lat="44.94157" lon="0.59717">
        <ele>161.638916</ele>
        <time>2013-08-11T08:11:23Z</time>
      </trkpt>
      <trkpt lat="44.9417" lon="0.59713">
        <ele>161.638916</ele>
        <time>2013-08-11T08:11:25Z</time>
      </trkpt>
      <trkpt lat="44.94193" lon="0.59701">
        <ele>159.7161865</ele>
        <time>2013-08-11T08:11:28Z</time>
      </trkpt>
      <trkpt lat="44.94213" lon="0.59692">
        <ele>159.2354736</ele>
        <time>2013-08-11T08:11:31Z</time>
      </trkpt>
      <trkpt lat="44.94243" lon="0.59685">
        <ele>156.3515625</ele>
        <time>2013-08-11T08:11:36Z</time>
      </trkpt>
      <trkpt lat="44.94274" lon="0.59676">
        <ele>159.2354736</ele>
        <time>2013-08-11T08:11:41Z</time>
      </trkpt>
      <trkpt lat="44.94293" lon="0.59672">
        <ele>162.1195068</ele>
        <time>2013-08-11T08:11:45Z</time>
      </trkpt>
      <trkpt lat="44.94306" lon="0.59672">
        <ele>164.5227051</ele>
        <time>2013-08-11T08:11:50Z</time>
      </trkpt>
      <trkpt lat="44.94317" lon="0.59667">
        <ele>165.003418</ele>
        <time>2013-08-11T08:11:56Z</time>
      </trkpt>
      <trkpt lat="44.9432" lon="0.59666">
        <ele>165.003418</ele>
        <time>2013-08-11T08:11:57Z</time>
      </trkpt>
      <trkpt lat="44.94329" lon="0.59677">
        <ele>165.4841309</ele>
        <time>2013-08-11T08:12:02Z</time>
      </trkpt>
      <trkpt lat="44.94338" lon="0.59681">
        <ele>164.0421143</ele>
        <time>2013-08-11T08:12:06Z</time>
      </trkpt>
      <trkpt lat="44.94354" lon="0.59673">
        <ele>165.003418</ele>
        <time>2013-08-11T08:12:13Z</time>
      </trkpt>
      <trkpt lat="44.94363" lon="0.59664">
        <ele>165.4841309</ele>
        <time>2013-08-11T08:12:18Z</time>
      </trkpt>
      <trkpt lat="44.94374" lon="0.59654">
        <ele>164.5227051</ele>
        <time>2013-08-11T08:12:24Z</time>
      </trkpt>
      <trkpt lat="44.94387" lon="0.59644">
        <ele>166.9260254</ele>
        <time>2013-08-11T08:12:31Z</time>
      </trkpt>
      <trkpt lat="44.94401" lon="0.59637">
        <ele>169.3294678</ele>
        <time>2013-08-11T08:12:38Z</time>
      </trkpt>
      <trkpt lat="44.94411" lon="0.59632">
        <ele>170.2906494</ele>
        <time>2013-08-11T08:12:43Z</time>
      </trkpt>
      <trkpt lat="44.94422" lon="0.59626">
        <ele>171.732666</ele>
        <time>2013-08-11T08:12:48Z</time>
      </trkpt>
      <trkpt lat="44.94434" lon="0.59616">
        <ele>171.732666</ele>
        <time>2013-08-11T08:12:54Z</time>
      </trkpt>
      <trkpt lat="44.94444" lon="0.59618">
        <ele>170.7713623</ele>
        <time>2013-08-11T08:12:58Z</time>
      </trkpt>
      <trkpt lat="44.94462" lon="0.59627">
        <ele>167.8873291</ele>
        <time>2013-08-11T08:13:03Z</time>
      </trkpt>
      <trkpt lat="44.94482" lon="0.59635">
        <ele>167.4067383</ele>
        <time>2013-08-11T08:13:07Z</time>
      </trkpt>
      <trkpt lat="44.94499" lon="0.59646">
        <ele>166.9260254</ele>
        <time>2013-08-11T08:13:10Z</time>
      </trkpt>
      <trkpt lat="44.94528" lon="0.59654">
        <ele>162.1195068</ele>
        <time>2013-08-11T08:13:14Z</time>
      </trkpt>
      <trkpt lat="44.94547" lon="0.59658">
        <ele>161.638916</ele>
        <time>2013-08-11T08:13:17Z</time>
      </trkpt>
      <trkpt lat="44.9456" lon="0.59658">
        <ele>163.5615234</ele>
        <time>2013-08-11T08:13:21Z</time>
      </trkpt>
      <trkpt lat="44.94574" lon="0.59664">
        <ele>163.5615234</ele>
        <time>2013-08-11T08:13:27Z</time>
      </trkpt>
      <trkpt lat="44.9458" lon="0.59663">
        <ele>164.0421143</ele>
        <time>2013-08-11T08:13:29Z</time>
      </trkpt>
      <trkpt lat="44.94596" lon="0.59661">
        <ele>165.4841309</ele>
        <time>2013-08-11T08:13:36Z</time>
      </trkpt>
      <trkpt lat="44.94615" lon="0.59662">
        <ele>165.9647217</ele>
        <time>2013-08-11T08:13:43Z</time>
      </trkpt>
      <trkpt lat="44.94632" lon="0.59659">
        <ele>165.9647217</ele>
        <time>2013-08-11T08:13:49Z</time>
      </trkpt>
      <trkpt lat="44.94655" lon="0.59662">
        <ele>164.5227051</ele>
        <time>2013-08-11T08:13:55Z</time>
      </trkpt>
      <trkpt lat="44.94684" lon="0.5967">
        <ele>162.6000977</ele>
        <time>2013-08-11T08:14:00Z</time>
      </trkpt>
      <trkpt lat="44.94703" lon="0.59675">
        <ele>160.1968994</ele>
        <time>2013-08-11T08:14:03Z</time>
      </trkpt>
      <trkpt lat="44.94742" lon="0.5969">
        <ele>154.9095459</ele>
        <time>2013-08-11T08:14:08Z</time>
      </trkpt>
      <trkpt lat="44.94778" lon="0.59699">
        <ele>149.6223145</ele>
        <time>2013-08-11T08:14:12Z</time>
      </trkpt>
      <trkpt lat="44.94819" lon="0.59702">
        <ele>144.8157959</ele>
        <time>2013-08-11T08:14:17Z</time>
      </trkpt>
      <trkpt lat="44.94855" lon="0.59697">
        <ele>140.970459</ele>
        <time>2013-08-11T08:14:22Z</time>
      </trkpt>
      <trkpt lat="44.94872" lon="0.59705">
        <ele>141.4510498</ele>
        <time>2013-08-11T08:14:25Z</time>
      </trkpt>
      <trkpt lat="44.94881" lon="0.59709">
        <ele>141.4510498</ele>
        <time>2013-08-11T08:14:27Z</time>
      </trkpt>
      <trkpt lat="44.94896" lon="0.59714">
        <ele>141.4510498</ele>
        <time>2013-08-11T08:14:31Z</time>
      </trkpt>
      <trkpt lat="44.94908" lon="0.59718">
        <ele>145.2963867</ele>
        <time>2013-08-11T08:14:35Z</time>
      </trkpt>
      <trkpt lat="44.94931" lon="0.59718">
        <ele>151.5449219</ele>
        <time>2013-08-11T08:14:42Z</time>
      </trkpt>
      <trkpt lat="44.94938" lon="0.59721">
        <ele>153.4676514</ele>
        <time>2013-08-11T08:14:45Z</time>
      </trkpt>
      <trkpt lat="44.94954" lon="0.59725">
        <ele>155.8709717</ele>
        <time>2013-08-11T08:14:50Z</time>
      </trkpt>
      <trkpt lat="44.94973" lon="0.59729">
        <ele>157.3128662</ele>
        <time>2013-08-11T08:14:55Z</time>
      </trkpt>
      <trkpt lat="44.94983" lon="0.59731">
        <ele>158.7547607</ele>
        <time>2013-08-11T08:14:57Z</time>
      </trkpt>
      <trkpt lat="44.94996" lon="0.59736">
        <ele>157.7935791</ele>
        <time>2013-08-11T08:15:00Z</time>
      </trkpt>
      <trkpt lat="44.95007" lon="0.59752">
        <ele>152.9869385</ele>
        <time>2013-08-11T08:15:05Z</time>
      </trkpt>
      <trkpt lat="44.95008" lon="0.59762">
        <ele>151.064209</ele>
        <time>2013-08-11T08:15:07Z</time>
      </trkpt>
      <trkpt lat="44.95015" lon="0.59783">
        <ele>149.6223145</ele>
        <time>2013-08-11T08:15:13Z</time>
      </trkpt>
      <trkpt lat="44.95023" lon="0.59798">
        <ele>153.4676514</ele>
        <time>2013-08-11T08:15:19Z</time>
      </trkpt>
      <trkpt lat="44.95037" lon="0.59806">
        <ele>154.4289551</ele>
        <time>2013-08-11T08:15:25Z</time>
      </trkpt>
      <trkpt lat="44.95042" lon="0.59813">
        <ele>153.9483643</ele>
        <time>2013-08-11T08:15:28Z</time>
      </trkpt>
      <trkpt lat="44.95053" lon="0.59824">
        <ele>153.9483643</ele>
        <time>2013-08-11T08:15:35Z</time>
      </trkpt>
      <trkpt lat="44.95059" lon="0.59833">
        <ele>157.7935791</ele>
        <time>2013-08-11T08:15:40Z</time>
      </trkpt>
      <trkpt lat="44.95062" lon="0.59837">
        <ele>158.2741699</ele>
        <time>2013-08-11T08:15:42Z</time>
      </trkpt>
      <trkpt lat="44.95071" lon="0.59849">
        <ele>159.7161865</ele>
        <time>2013-08-11T08:15:48Z</time>
      </trkpt>
      <trkpt lat="44.95082" lon="0.59857">
        <ele>161.638916</ele>
        <time>2013-08-11T08:15:54Z</time>
      </trkpt>
      <trkpt lat="44.95089" lon="0.59866">
        <ele>162.1195068</ele>
        <time>2013-08-11T08:15:58Z</time>
      </trkpt>
      <trkpt lat="44.95098" lon="0.59872">
        <ele>165.003418</ele>
        <time>2013-08-11T08:16:04Z</time>
      </trkpt>
      <trkpt lat="44.95111" lon="0.59881">
        <ele>165.4841309</ele>
        <time>2013-08-11T08:16:11Z</time>
      </trkpt>
      <trkpt lat="44.9512" lon="0.59892">
        <ele>165.9647217</ele>
        <time>2013-08-11T08:16:17Z</time>
      </trkpt>
      <trkpt lat="44.95121" lon="0.59894">
        <ele>165.9647217</ele>
        <time>2013-08-11T08:16:18Z</time>
      </trkpt>
      <trkpt lat="44.95125" lon="0.59901">
        <ele>168.8487549</ele>
        <time>2013-08-11T08:16:22Z</time>
      </trkpt>
      <trkpt lat="44.95131" lon="0.5991">
        <ele>170.2906494</ele>
        <time>2013-08-11T08:16:27Z</time>
      </trkpt>
      <trkpt lat="44.95141" lon="0.5993">
        <ele>171.732666</ele>
        <time>2013-08-11T08:16:34Z</time>
      </trkpt>
      <trkpt lat="44.95151" lon="0.59941">
        <ele>173.1746826</ele>
        <time>2013-08-11T08:16:41Z</time>
      </trkpt>
      <trkpt lat="44.95162" lon="0.59945">
        <ele>176.5393066</ele>
        <time>2013-08-11T08:16:45Z</time>
      </trkpt>
      <trkpt lat="44.95174" lon="0.59949">
        <ele>177.5006104</ele>
        <time>2013-08-11T08:16:51Z</time>
      </trkpt>
      <trkpt lat="44.9519" lon="0.59954">
        <ele>177.9812012</ele>
        <time>2013-08-11T08:16:56Z</time>
      </trkpt>
      <trkpt lat="44.95198" lon="0.59968">
        <ele>177.5006104</ele>
        <time>2013-08-11T08:17:01Z</time>
      </trkpt>
      <trkpt lat="44.95204" lon="0.59985">
        <ele>179.4232178</ele>
        <time>2013-08-11T08:17:06Z</time>
      </trkpt>
      <trkpt lat="44.95207" lon="0.6">
        <ele>181.826416</ele>
        <time>2013-08-11T08:17:11Z</time>
      </trkpt>
      <trkpt lat="44.95211" lon="0.6002">
        <ele>182.7878418</ele>
        <time>2013-08-11T08:17:16Z</time>
      </trkpt>
      <trkpt lat="44.95217" lon="0.60034">
        <ele>180.8652344</ele>
        <time>2013-08-11T08:17:20Z</time>
      </trkpt>
      <trkpt lat="44.95208" lon="0.60044">
        <ele>178.942627</ele>
        <time>2013-08-11T08:17:25Z</time>
      </trkpt>
      <trkpt lat="44.95183" lon="0.60055">
        <ele>176.5393066</ele>
        <time>2013-08-11T08:17:32Z</time>
      </trkpt>
      <trkpt lat="44.9516" lon="0.60068">
        <ele>174.1358643</ele>
        <time>2013-08-11T08:17:38Z</time>
      </trkpt>
      <trkpt lat="44.95134" lon="0.60087">
        <ele>174.1358643</ele>
        <time>2013-08-11T08:17:44Z</time>
      </trkpt>
      <trkpt lat="44.95095" lon="0.60116">
        <ele>171.732666</ele>
        <time>2013-08-11T08:17:52Z</time>
      </trkpt>
      <trkpt lat="44.9509" lon="0.60119">
        <ele>172.2132568</ele>
        <time>2013-08-11T08:17:53Z</time>
      </trkpt>
      <trkpt lat="44.9508" lon="0.60128">
        <ele>172.2132568</ele>
        <time>2013-08-11T08:17:55Z</time>
      </trkpt>
      <trkpt lat="44.9506" lon="0.60155">
        <ele>171.2520752</ele>
        <time>2013-08-11T08:18:00Z</time>
      </trkpt>
      <trkpt lat="44.95046" lon="0.6018">
        <ele>170.7713623</ele>
        <time>2013-08-11T08:18:04Z</time>
      </trkpt>
      <trkpt lat="44.95042" lon="0.60197">
        <ele>171.732666</ele>
        <time>2013-08-11T08:18:06Z</time>
      </trkpt>
      <trkpt lat="44.95042" lon="0.60251">
        <ele>173.6552734</ele>
        <time>2013-08-11T08:18:11Z</time>
      </trkpt>
      <trkpt lat="44.95043" lon="0.60274">
        <ele>172.6939697</ele>
        <time>2013-08-11T08:18:13Z</time>
      </trkpt>
      <trkpt lat="44.95033" lon="0.60324">
        <ele>167.8873291</ele>
        <time>2013-08-11T08:18:17Z</time>
      </trkpt>
      <trkpt lat="44.95025" lon="0.60334">
        <ele>166.9260254</ele>
        <time>2013-08-11T08:18:18Z</time>
      </trkpt>
      <trkpt lat="44.9499" lon="0.60392">
        <ele>164.0421143</ele>
        <time>2013-08-11T08:18:24Z</time>
      </trkpt>
      <trkpt lat="44.9498" lon="0.60411">
        <ele>162.1195068</ele>
        <time>2013-08-11T08:18:26Z</time>
      </trkpt>
      <trkpt lat="44.94954" lon="0.60424">
        <ele>160.1968994</ele>
        <time>2013-08-11T08:18:30Z</time>
      </trkpt>
      <trkpt lat="44.94945" lon="0.60436">
        <ele>160.1968994</ele>
        <time>2013-08-11T08:18:33Z</time>
      </trkpt>
      <trkpt lat="44.94938" lon="0.60454">
        <ele>159.2354736</ele>
        <time>2013-08-11T08:18:38Z</time>
      </trkpt>
      <trkpt lat="44.94937" lon="0.60458">
        <ele>158.2741699</ele>
        <time>2013-08-11T08:18:39Z</time>
      </trkpt>
      <trkpt lat="44.94937" lon="0.60467">
        <ele>159.7161865</ele>
        <time>2013-08-11T08:18:42Z</time>
      </trkpt>
      <trkpt lat="44.94934" lon="0.60481">
        <ele>158.2741699</ele>
        <time>2013-08-11T08:18:46Z</time>
      </trkpt>
      <trkpt lat="44.9493" lon="0.60494">
        <ele>156.8321533</ele>
        <time>2013-08-11T08:18:49Z</time>
      </trkpt>
      <trkpt lat="44.94925" lon="0.6051">
        <ele>154.9095459</ele>
        <time>2013-08-11T08:18:54Z</time>
      </trkpt>
      <trkpt lat="44.94922" lon="0.60513">
        <ele>153.9483643</ele>
        <time>2013-08-11T08:18:55Z</time>
      </trkpt>
      <trkpt lat="44.94903" lon="0.60541">
        <ele>151.064209</ele>
        <time>2013-08-11T08:19:01Z</time>
      </trkpt>
      <trkpt lat="44.94893" lon="0.60556">
        <ele>150.5836182</ele>
        <time>2013-08-11T08:19:04Z</time>
      </trkpt>
      <trkpt lat="44.9488" lon="0.60572">
        <ele>146.7384033</ele>
        <time>2013-08-11T08:19:08Z</time>
      </trkpt>
      <trkpt lat="44.94873" lon="0.60574">
        <ele>145.7770996</ele>
        <time>2013-08-11T08:19:10Z</time>
      </trkpt>
      <trkpt lat="44.94864" lon="0.60576">
        <ele>144.3352051</ele>
        <time>2013-08-11T08:19:13Z</time>
      </trkpt>
      <trkpt lat="44.94855" lon="0.6058">
        <ele>142.4124756</ele>
        <time>2013-08-11T08:19:16Z</time>
      </trkpt>
      <trkpt lat="44.94846" lon="0.60583">
        <ele>140.970459</ele>
        <time>2013-08-11T08:19:19Z</time>
      </trkpt>
      <trkpt lat="44.94841" lon="0.60613">
        <ele>133.760498</ele>
        <time>2013-08-11T08:19:22Z</time>
      </trkpt>
      <trkpt lat="44.94839" lon="0.60628">
        <ele>131.3572998</ele>
        <time>2013-08-11T08:19:23Z</time>
      </trkpt>
      <trkpt lat="44.94833" lon="0.60669">
        <ele>128.4733887</ele>
        <time>2013-08-11T08:19:26Z</time>
      </trkpt>
      <trkpt lat="44.94815" lon="0.60707">
        <ele>123.666748</ele>
        <time>2013-08-11T08:19:30Z</time>
      </trkpt>
      <trkpt lat="44.94801" lon="0.60729">
        <ele>121.2635498</ele>
        <time>2013-08-11T08:19:33Z</time>
      </trkpt>
      <trkpt lat="44.94777" lon="0.6075">
        <ele>118.8601074</ele>
        <time>2013-08-11T08:19:37Z</time>
      </trkpt>
      <trkpt lat="44.94741" lon="0.60782">
        <ele>117.8988037</ele>
        <time>2013-08-11T08:19:43Z</time>
      </trkpt>
      <trkpt lat="44.94713" lon="0.60811">
        <ele>120.302124</ele>
        <time>2013-08-11T08:19:48Z</time>
      </trkpt>
      <trkpt lat="44.94702" lon="0.60838">
        <ele>119.3408203</ele>
        <time>2013-08-11T08:19:52Z</time>
      </trkpt>
      <trkpt lat="44.94702" lon="0.60845">
        <ele>119.3408203</ele>
        <time>2013-08-11T08:19:53Z</time>
      </trkpt>
      <trkpt lat="44.947" lon="0.6086">
        <ele>120.302124</ele>
        <time>2013-08-11T08:19:56Z</time>
      </trkpt>
      <trkpt lat="44.94692" lon="0.60883">
        <ele>123.1861572</ele>
        <time>2013-08-11T08:20:02Z</time>
      </trkpt>
      <trkpt lat="44.94688" lon="0.60896">
        <ele>123.666748</ele>
        <time>2013-08-11T08:20:05Z</time>
      </trkpt>
      <trkpt lat="44.9468" lon="0.60934">
        <ele>120.7828369</ele>
        <time>2013-08-11T08:20:12Z</time>
      </trkpt>
      <trkpt lat="44.94674" lon="0.6096">
        <ele>118.8601074</ele>
        <time>2013-08-11T08:20:17Z</time>
      </trkpt>
      <trkpt lat="44.94665" lon="0.60985">
        <ele>116.9375</ele>
        <time>2013-08-11T08:20:21Z</time>
      </trkpt>
      <trkpt lat="44.94649" lon="0.61022">
        <ele>120.7828369</ele>
        <time>2013-08-11T08:20:26Z</time>
      </trkpt>
      <trkpt lat="44.9464" lon="0.61047">
        <ele>121.2635498</ele>
        <time>2013-08-11T08:20:30Z</time>
      </trkpt>
      <trkpt lat="44.94631" lon="0.61073">
        <ele>123.666748</ele>
        <time>2013-08-11T08:20:34Z</time>
      </trkpt>
      <trkpt lat="44.94627" lon="0.61088">
        <ele>124.1473389</ele>
        <time>2013-08-11T08:20:36Z</time>
      </trkpt>
      <trkpt lat="44.94616" lon="0.61112">
        <ele>125.1087646</ele>
        <time>2013-08-11T08:20:40Z</time>
      </trkpt>
      <trkpt lat="44.946" lon="0.61155">
        <ele>120.302124</ele>
        <time>2013-08-11T08:20:47Z</time>
      </trkpt>
      <trkpt lat="44.94592" lon="0.61171">
        <ele>119.8214111</ele>
        <time>2013-08-11T08:20:50Z</time>
      </trkpt>
      <trkpt lat="44.94581" lon="0.61187">
        <ele>120.302124</ele>
        <time>2013-08-11T08:20:53Z</time>
      </trkpt>
      <trkpt lat="44.94557" lon="0.6123">
        <ele>124.6280518</ele>
        <time>2013-08-11T08:21:00Z</time>
      </trkpt>
      <trkpt lat="44.94542" lon="0.61267">
        <ele>127.0313721</ele>
        <time>2013-08-11T08:21:04Z</time>
      </trkpt>
      <trkpt lat="44.94533" lon="0.61294">
        <ele>124.6280518</ele>
        <time>2013-08-11T08:21:07Z</time>
      </trkpt>
      <trkpt lat="44.94523" lon="0.61318">
        <ele>121.7441406</ele>
        <time>2013-08-11T08:21:10Z</time>
      </trkpt>
      <trkpt lat="44.94502" lon="0.61341">
        <ele>114.5341797</ele>
        <time>2013-08-11T08:21:14Z</time>
      </trkpt>
      <trkpt lat="44.94486" lon="0.61342">
        <ele>112.1309814</ele>
        <time>2013-08-11T08:21:16Z</time>
      </trkpt>
      <trkpt lat="44.94471" lon="0.6134">
        <ele>108.2856445</ele>
        <time>2013-08-11T08:21:19Z</time>
      </trkpt>
      <trkpt lat="44.94471" lon="0.61355">
        <ele>106.3630371</ele>
        <time>2013-08-11T08:21:22Z</time>
      </trkpt>
      <trkpt lat="44.94462" lon="0.61377">
        <ele>105.8824463</ele>
        <time>2013-08-11T08:21:26Z</time>
      </trkpt>
      <trkpt lat="44.94441" lon="0.61378">
        <ele>102.0371094</ele>
        <time>2013-08-11T08:21:30Z</time>
      </trkpt>
      <trkpt lat="44.94423" lon="0.61371">
        <ele>101.0756836</ele>
        <time>2013-08-11T08:21:33Z</time>
      </trkpt>
      <trkpt lat="44.94409" lon="0.6137">
        <ele>99.6337891</ele>
        <time>2013-08-11T08:21:35Z</time>
      </trkpt>
      <trkpt lat="44.94378" lon="0.61372">
        <ele>98.6724854</ele>
        <time>2013-08-11T08:21:40Z</time>
      </trkpt>
      <trkpt lat="44.94355" lon="0.61385">
        <ele>98.1918945</ele>
        <time>2013-08-11T08:21:44Z</time>
      </trkpt>
      <trkpt lat="44.94345" lon="0.61397">
        <ele>98.6724854</ele>
        <time>2013-08-11T08:21:46Z</time>
      </trkpt>
      <trkpt lat="44.94323" lon="0.61416">
        <ele>98.6724854</ele>
        <time>2013-08-11T08:21:51Z</time>
      </trkpt>
      <trkpt lat="44.94319" lon="0.61421">
        <ele>98.1918945</ele>
        <time>2013-08-11T08:21:52Z</time>
      </trkpt>
      <trkpt lat="44.94292" lon="0.61447">
        <ele>97.2304688</ele>
        <time>2013-08-11T08:21:58Z</time>
      </trkpt>
      <trkpt lat="44.94287" lon="0.6145">
        <ele>97.2304688</ele>
        <time>2013-08-11T08:21:59Z</time>
      </trkpt>
      <trkpt lat="44.94274" lon="0.61456">
        <ele>97.7111816</ele>
        <time>2013-08-11T08:22:02Z</time>
      </trkpt>
      <trkpt lat="44.94267" lon="0.61453">
        <ele>100.114502</ele>
        <time>2013-08-11T08:22:06Z</time>
      </trkpt>
      <trkpt lat="44.94262" lon="0.61449">
        <ele>105.4017334</ele>
        <time>2013-08-11T08:22:11Z</time>
      </trkpt>
      <trkpt lat="44.94253" lon="0.61444">
        <ele>110.6888428</ele>
        <time>2013-08-11T08:22:17Z</time>
      </trkpt>
      <trkpt lat="44.94247" lon="0.61441">
        <ele>112.6115723</ele>
        <time>2013-08-11T08:22:21Z</time>
      </trkpt>
      <trkpt lat="44.94239" lon="0.61436">
        <ele>114.0535889</ele>
        <time>2013-08-11T08:22:28Z</time>
      </trkpt>
      <trkpt lat="44.94231" lon="0.61437">
        <ele>113.572998</ele>
        <time>2013-08-11T08:22:32Z</time>
      </trkpt>
      <trkpt lat="44.94223" lon="0.61436">
        <ele>114.0535889</ele>
        <time>2013-08-11T08:22:36Z</time>
      </trkpt>
      <trkpt lat="44.94209" lon="0.6143">
        <ele>116.4567871</ele>
        <time>2013-08-11T08:22:44Z</time>
      </trkpt>
      <trkpt lat="44.94199" lon="0.61424">
        <ele>119.3408203</ele>
        <time>2013-08-11T08:22:50Z</time>
      </trkpt>
      <trkpt lat="44.94187" lon="0.61419">
        <ele>121.2635498</ele>
        <time>2013-08-11T08:22:57Z</time>
      </trkpt>
      <trkpt lat="44.94174" lon="0.61419">
        <ele>118.8601074</ele>
        <time>2013-08-11T08:23:04Z</time>
      </trkpt>
      <trkpt lat="44.94162" lon="0.61418">
        <ele>119.8214111</ele>
        <time>2013-08-11T08:23:11Z</time>
      </trkpt>
      <trkpt lat="44.94146" lon="0.6142">
        <ele>120.302124</ele>
        <time>2013-08-11T08:23:19Z</time>
      </trkpt>
      <trkpt lat="44.94131" lon="0.61428">
        <ele>117.4182129</ele>
        <time>2013-08-11T08:23:26Z</time>
      </trkpt>
      <trkpt lat="44.94118" lon="0.61432">
        <ele>117.4182129</ele>
        <time>2013-08-11T08:23:32Z</time>
      </trkpt>
      <trkpt lat="44.94109" lon="0.61435">
        <ele>116.4567871</ele>
        <time>2013-08-11T08:23:36Z</time>
      </trkpt>
      <trkpt lat="44.94103" lon="0.61432">
        <ele>116.4567871</ele>
        <time>2013-08-11T08:23:39Z</time>
      </trkpt>
      <trkpt lat="44.94092" lon="0.61439">
        <ele>116.9375</ele>
        <time>2013-08-11T08:23:43Z</time>
      </trkpt>
      <trkpt lat="44.9408" lon="0.61444">
        <ele>118.3793945</ele>
        <time>2013-08-11T08:23:46Z</time>
      </trkpt>
      <trkpt lat="44.94077" lon="0.61444">
        <ele>118.3793945</ele>
        <time>2013-08-11T08:23:47Z</time>
      </trkpt>
      <trkpt lat="44.94055" lon="0.61444">
        <ele>119.8214111</ele>
        <time>2013-08-11T08:23:53Z</time>
      </trkpt>
      <trkpt lat="44.94036" lon="0.61446">
        <ele>121.2635498</ele>
        <time>2013-08-11T08:23:58Z</time>
      </trkpt>
      <trkpt lat="44.94015" lon="0.61448">
        <ele>122.7054443</ele>
        <time>2013-08-11T08:24:03Z</time>
      </trkpt>
      <trkpt lat="44.94008" lon="0.61451">
        <ele>122.7054443</ele>
        <time>2013-08-11T08:24:05Z</time>
      </trkpt>
      <trkpt lat="44.93989" lon="0.61466">
        <ele>123.666748</ele>
        <time>2013-08-11T08:24:09Z</time>
      </trkpt>
      <trkpt lat="44.93971" lon="0.61471">
        <ele>126.5506592</ele>
        <time>2013-08-11T08:24:14Z</time>
      </trkpt>
      <trkpt lat="44.93956" lon="0.61476">
        <ele>132.3186035</ele>
        <time>2013-08-11T08:24:20Z</time>
      </trkpt>
      <trkpt lat="44.93946" lon="0.61487">
        <ele>134.7219238</ele>
        <time>2013-08-11T08:24:25Z</time>
      </trkpt>
      <trkpt lat="44.93937" lon="0.61497">
        <ele>133.2799072</ele>
        <time>2013-08-11T08:24:31Z</time>
      </trkpt>
      <trkpt lat="44.93929" lon="0.61506">
        <ele>134.2412109</ele>
        <time>2013-08-11T08:24:37Z</time>
      </trkpt>
      <trkpt lat="44.93919" lon="0.61514">
        <ele>133.760498</ele>
        <time>2013-08-11T08:24:43Z</time>
      </trkpt>
      <trkpt lat="44.93904" lon="0.61523">
        <ele>134.2412109</ele>
        <time>2013-08-11T08:24:50Z</time>
      </trkpt>
      <trkpt lat="44.93893" lon="0.61525">
        <ele>135.2025146</ele>
        <time>2013-08-11T08:24:55Z</time>
      </trkpt>
      <trkpt lat="44.93877" lon="0.61533">
        <ele>140.4898682</ele>
        <time>2013-08-11T08:25:02Z</time>
      </trkpt>
      <trkpt lat="44.93869" lon="0.61539">
        <ele>143.3736572</ele>
        <time>2013-08-11T08:25:07Z</time>
      </trkpt>
      <trkpt lat="44.9386" lon="0.61546">
        <ele>142.8930664</ele>
        <time>2013-08-11T08:25:13Z</time>
      </trkpt>
      <trkpt lat="44.93853" lon="0.61553">
        <ele>141.4510498</ele>
        <time>2013-08-11T08:25:18Z</time>
      </trkpt>
      <trkpt lat="44.93844" lon="0.61564">
        <ele>139.0478516</ele>
        <time>2013-08-11T08:25:24Z</time>
      </trkpt>
      <trkpt lat="44.93835" lon="0.61572">
        <ele>138.5672607</ele>
        <time>2013-08-11T08:25:29Z</time>
      </trkpt>
      <trkpt lat="44.93828" lon="0.61583">
        <ele>138.5672607</ele>
        <time>2013-08-11T08:25:35Z</time>
      </trkpt>
      <trkpt lat="44.93819" lon="0.61596">
        <ele>139.0478516</ele>
        <time>2013-08-11T08:25:41Z</time>
      </trkpt>
      <trkpt lat="44.93808" lon="0.61602">
        <ele>140.970459</ele>
        <time>2013-08-11T08:25:47Z</time>
      </trkpt>
      <trkpt lat="44.93798" lon="0.61603">
        <ele>141.4510498</ele>
        <time>2013-08-11T08:25:52Z</time>
      </trkpt>
      <trkpt lat="44.9379" lon="0.61607">
        <ele>141.9317627</ele>
        <time>2013-08-11T08:25:55Z</time>
      </trkpt>
      <trkpt lat="44.93775" lon="0.61619">
        <ele>144.3352051</ele>
        <time>2013-08-11T08:26:02Z</time>
      </trkpt>
      <trkpt lat="44.93759" lon="0.6163">
        <ele>144.3352051</ele>
        <time>2013-08-11T08:26:07Z</time>
      </trkpt>
      <trkpt lat="44.93741" lon="0.61644">
        <ele>143.8543701</ele>
        <time>2013-08-11T08:26:12Z</time>
      </trkpt>
      <trkpt lat="44.93711" lon="0.61656">
        <ele>145.2963867</ele>
        <time>2013-08-11T08:26:18Z</time>
      </trkpt>
      <trkpt lat="44.93675" lon="0.61656">
        <ele>146.7384033</ele>
        <time>2013-08-11T08:26:24Z</time>
      </trkpt>
      <trkpt lat="44.93648" lon="0.61661">
        <ele>143.3736572</ele>
        <time>2013-08-11T08:26:28Z</time>
      </trkpt>
      <trkpt lat="44.93632" lon="0.61664">
        <ele>140.4898682</ele>
        <time>2013-08-11T08:26:30Z</time>
      </trkpt>
      <trkpt lat="44.93593" lon="0.61693">
        <ele>132.7993164</ele>
        <time>2013-08-11T08:26:34Z</time>
      </trkpt>
      <trkpt lat="44.9355" lon="0.61737">
        <ele>128.9541016</ele>
        <time>2013-08-11T08:26:40Z</time>
      </trkpt>
      <trkpt lat="44.93534" lon="0.6176">
        <ele>126.0699463</ele>
        <time>2013-08-11T08:26:45Z</time>
      </trkpt>
      <trkpt lat="44.93523" lon="0.61775">
        <ele>127.5119629</ele>
        <time>2013-08-11T08:26:50Z</time>
      </trkpt>
      <trkpt lat="44.9351" lon="0.61787">
        <ele>129.9152832</ele>
        <time>2013-08-11T08:26:55Z</time>
      </trkpt>
      <trkpt lat="44.93507" lon="0.61789">
        <ele>129.9152832</ele>
        <time>2013-08-11T08:26:56Z</time>
      </trkpt>
      <trkpt lat="44.93494" lon="0.61798">
        <ele>131.8378906</ele>
        <time>2013-08-11T08:27:01Z</time>
      </trkpt>
      <trkpt lat="44.93481" lon="0.61803">
        <ele>134.2412109</ele>
        <time>2013-08-11T08:27:06Z</time>
      </trkpt>
      <trkpt lat="44.93459" lon="0.61805">
        <ele>134.2412109</ele>
        <time>2013-08-11T08:27:12Z</time>
      </trkpt>
      <trkpt lat="44.9344" lon="0.61801">
        <ele>133.760498</ele>
        <time>2013-08-11T08:27:16Z</time>
      </trkpt>
      <trkpt lat="44.93408" lon="0.61805">
        <ele>131.8378906</ele>
        <time>2013-08-11T08:27:21Z</time>
      </trkpt>
      <trkpt lat="44.93369" lon="0.61809">
        <ele>127.9925537</ele>
        <time>2013-08-11T08:27:26Z</time>
      </trkpt>
      <trkpt lat="44.93361" lon="0.61811">
        <ele>126.5506592</ele>
        <time>2013-08-11T08:27:27Z</time>
      </trkpt>
      <trkpt lat="44.93329" lon="0.61838">
        <ele>117.4182129</ele>
        <time>2013-08-11T08:27:32Z</time>
      </trkpt>
      <trkpt lat="44.93322" lon="0.61846">
        <ele>116.4567871</ele>
        <time>2013-08-11T08:27:33Z</time>
      </trkpt>
      <trkpt lat="44.93293" lon="0.61875">
        <ele>110.6888428</ele>
        <time>2013-08-11T08:27:38Z</time>
      </trkpt>
      <trkpt lat="44.93285" lon="0.61883">
        <ele>107.3243408</ele>
        <time>2013-08-11T08:27:40Z</time>
      </trkpt>
      <trkpt lat="44.93269" lon="0.61893">
        <ele>101.0756836</ele>
        <time>2013-08-11T08:27:45Z</time>
      </trkpt>
      <trkpt lat="44.93263" lon="0.61897">
        <ele>99.1530762</ele>
        <time>2013-08-11T08:27:47Z</time>
      </trkpt>
      <trkpt lat="44.9325" lon="0.61923">
        <ele>92.904541</ele>
        <time>2013-08-11T08:27:51Z</time>
      </trkpt>
      <trkpt lat="44.93224" lon="0.6196">
        <ele>88.5787354</ele>
        <time>2013-08-11T08:27:56Z</time>
      </trkpt>
      <trkpt lat="44.93197" lon="0.61994">
        <ele>88.0980225</ele>
        <time>2013-08-11T08:28:01Z</time>
      </trkpt>
      <trkpt lat="44.93195" lon="0.62002">
        <ele>89.0593262</ele>
        <time>2013-08-11T08:28:02Z</time>
      </trkpt>
      <trkpt lat="44.93191" lon="0.62016">
        <ele>89.539917</ele>
        <time>2013-08-11T08:28:04Z</time>
      </trkpt>
      <trkpt lat="44.93187" lon="0.6204">
        <ele>89.539917</ele>
        <time>2013-08-11T08:28:08Z</time>
      </trkpt>
      <trkpt lat="44.93189" lon="0.62061">
        <ele>89.539917</ele>
        <time>2013-08-11T08:28:12Z</time>
      </trkpt>
      <trkpt lat="44.93198" lon="0.6208">
        <ele>89.539917</ele>
        <time>2013-08-11T08:28:16Z</time>
      </trkpt>
      <trkpt lat="44.93206" lon="0.62101">
        <ele>88.0980225</ele>
        <time>2013-08-11T08:28:20Z</time>
      </trkpt>
      <trkpt lat="44.93207" lon="0.62128">
        <ele>88.0980225</ele>
        <time>2013-08-11T08:28:24Z</time>
      </trkpt>
      <trkpt lat="44.93199" lon="0.62159">
        <ele>86.6560059</ele>
        <time>2013-08-11T08:28:28Z</time>
      </trkpt>
      <trkpt lat="44.93192" lon="0.62213">
        <ele>85.2139893</ele>
        <time>2013-08-11T08:28:34Z</time>
      </trkpt>
      <trkpt lat="44.93191" lon="0.62235">
        <ele>84.7333984</ele>
        <time>2013-08-11T08:28:38Z</time>
      </trkpt>
      <trkpt lat="44.93192" lon="0.62249">
        <ele>83.2913818</ele>
        <time>2013-08-11T08:28:43Z</time>
      </trkpt>
      <trkpt lat="44.93189" lon="0.62248">
        <ele>82.810791</ele>
        <time>2013-08-11T08:28:50Z</time>
      </trkpt>
      <trkpt lat="44.93186" lon="0.62246">
        <ele>85.2139893</ele>
        <time>2013-08-11T08:28:55Z</time>
      </trkpt>
      <trkpt lat="44.93186" lon="0.62245">
        <ele>86.6560059</ele>
        <time>2013-08-11T08:29:00Z</time>
      </trkpt>
      <trkpt lat="44.93185" lon="0.62247">
        <ele>93.8658447</ele>
        <time>2013-08-11T08:29:12Z</time>
      </trkpt>
      <trkpt lat="44.93186" lon="0.62252">
        <ele>92.4239502</ele>
        <time>2013-08-11T08:29:30Z</time>
      </trkpt>
      <trkpt lat="44.93187" lon="0.62252">
        <ele>92.904541</ele>
        <time>2013-08-11T08:29:36Z</time>
      </trkpt>
      <trkpt lat="44.93192" lon="0.62251">
        <ele>91.9432373</ele>
        <time>2013-08-11T08:29:54Z</time>
      </trkpt>
      <trkpt lat="44.93194" lon="0.62254">
        <ele>89.0593262</ele>
        <time>2013-08-11T08:30:00Z</time>
      </trkpt>
      <trkpt lat="44.93194" lon="0.62255">
        <ele>88.5787354</ele>
        <time>2013-08-11T08:30:01Z</time>
      </trkpt>
      <trkpt lat="44.9319" lon="0.62277">
        <ele>88.0980225</ele>
        <time>2013-08-11T08:30:07Z</time>
      </trkpt>
      <trkpt lat="44.93189" lon="0.62311">
        <ele>87.1365967</ele>
        <time>2013-08-11T08:30:13Z</time>
      </trkpt>
      <trkpt lat="44.93185" lon="0.62372">
        <ele>84.7333984</ele>
        <time>2013-08-11T08:30:22Z</time>
      </trkpt>
      <trkpt lat="44.93181" lon="0.62407">
        <ele>83.7719727</ele>
        <time>2013-08-11T08:30:27Z</time>
      </trkpt>
      <trkpt lat="44.9316" lon="0.62449">
        <ele>84.7333984</ele>
        <time>2013-08-11T08:30:34Z</time>
      </trkpt>
      <trkpt lat="44.93152" lon="0.62472">
        <ele>83.7719727</ele>
        <time>2013-08-11T08:30:38Z</time>
      </trkpt>
      <trkpt lat="44.9314" lon="0.62531">
        <ele>80.8881836</ele>
        <time>2013-08-11T08:30:46Z</time>
      </trkpt>
      <trkpt lat="44.93126" lon="0.62605">
        <ele>79.9266357</ele>
        <time>2013-08-11T08:30:55Z</time>
      </trkpt>
      <trkpt lat="44.93121" lon="0.62648">
        <ele>79.4460449</ele>
        <time>2013-08-11T08:31:00Z</time>
      </trkpt>
      <trkpt lat="44.93122" lon="0.62697">
        <ele>78.0040283</ele>
        <time>2013-08-11T08:31:06Z</time>
      </trkpt>
      <trkpt lat="44.93122" lon="0.62705">
        <ele>78.0040283</ele>
        <time>2013-08-11T08:31:07Z</time>
      </trkpt>
      <trkpt lat="44.93122" lon="0.62705">
        <ele>78.0040283</ele>
        <time>2013-08-11T08:31:07Z</time>
      </trkpt>
      <trkpt lat="44.93125" lon="0.62759">
        <ele>78.0040283</ele>
        <time>2013-08-11T08:31:14Z</time>
      </trkpt>
      <trkpt lat="44.93125" lon="0.62787">
        <ele>77.0428467</ele>
        <time>2013-08-11T08:31:18Z</time>
      </trkpt>
      <trkpt lat="44.93112" lon="0.6283">
        <ele>77.0428467</ele>
        <time>2013-08-11T08:31:24Z</time>
      </trkpt>
      <trkpt lat="44.93107" lon="0.62841">
        <ele>78.0040283</ele>
        <time>2013-08-11T08:31:26Z</time>
      </trkpt>
      <trkpt lat="44.93104" lon="0.62856">
        <ele>78.4847412</ele>
        <time>2013-08-11T08:31:29Z</time>
      </trkpt>
      <trkpt lat="44.93104" lon="0.62876">
        <ele>81.3687744</ele>
        <time>2013-08-11T08:31:33Z</time>
      </trkpt>
      <trkpt lat="44.93117" lon="0.62922">
        <ele>79.4460449</ele>
        <time>2013-08-11T08:31:41Z</time>
      </trkpt>
      <trkpt lat="44.93121" lon="0.62934">
        <ele>78.9654541</ele>
        <time>2013-08-11T08:31:43Z</time>
      </trkpt>
      <trkpt lat="44.9312" lon="0.62959">
        <ele>78.9654541</ele>
        <time>2013-08-11T08:31:47Z</time>
      </trkpt>
      <trkpt lat="44.93116" lon="0.62964">
        <ele>79.4460449</ele>
        <time>2013-08-11T08:31:48Z</time>
      </trkpt>
      <trkpt lat="44.93072" lon="0.63016">
        <ele>79.9266357</ele>
        <time>2013-08-11T08:31:58Z</time>
      </trkpt>
      <trkpt lat="44.93062" lon="0.63026">
        <ele>79.9266357</ele>
        <time>2013-08-11T08:32:00Z</time>
      </trkpt>
      <trkpt lat="44.93042" lon="0.63038">
        <ele>78.9654541</ele>
        <time>2013-08-11T08:32:04Z</time>
      </trkpt>
      <trkpt lat="44.93021" lon="0.63045">
        <ele>78.9654541</ele>
        <time>2013-08-11T08:32:08Z</time>
      </trkpt>
      <trkpt lat="44.92983" lon="0.63038">
        <ele>78.4847412</ele>
        <time>2013-08-11T08:32:15Z</time>
      </trkpt>
      <trkpt lat="44.92931" lon="0.63024">
        <ele>78.9654541</ele>
        <time>2013-08-11T08:32:25Z</time>
      </trkpt>
      <trkpt lat="44.92892" lon="0.63022">
        <ele>79.4460449</ele>
        <time>2013-08-11T08:32:32Z</time>
      </trkpt>
      <trkpt lat="44.92846" lon="0.63027">
        <ele>78.4847412</ele>
        <time>2013-08-11T08:32:40Z</time>
      </trkpt>
      <trkpt lat="44.92794" lon="0.63034">
        <ele>78.0040283</ele>
        <time>2013-08-11T08:32:49Z</time>
      </trkpt>
      <trkpt lat="44.92755" lon="0.63045">
        <ele>78.4847412</ele>
        <time>2013-08-11T08:32:56Z</time>
      </trkpt>
      <trkpt lat="44.92726" lon="0.63057">
        <ele>77.5234375</ele>
        <time>2013-08-11T08:33:01Z</time>
      </trkpt>
      <trkpt lat="44.92691" lon="0.63074">
        <ele>77.5234375</ele>
        <time>2013-08-11T08:33:07Z</time>
      </trkpt>
      <trkpt lat="44.92681" lon="0.6308">
        <ele>78.4847412</ele>
        <time>2013-08-11T08:33:09Z</time>
      </trkpt>
      <trkpt lat="44.92672" lon="0.63084">
        <ele>78.9654541</ele>
        <time>2013-08-11T08:33:11Z</time>
      </trkpt>
      <trkpt lat="44.92642" lon="0.63094">
        <ele>78.9654541</ele>
        <time>2013-08-11T08:33:17Z</time>
      </trkpt>
      <trkpt lat="44.92634" lon="0.63096">
        <ele>78.4847412</ele>
        <time>2013-08-11T08:33:19Z</time>
      </trkpt>
      <trkpt lat="44.92605" lon="0.63104">
        <ele>77.5234375</ele>
        <time>2013-08-11T08:33:26Z</time>
      </trkpt>
      <trkpt lat="44.92572" lon="0.63109">
        <ele>75.1202393</ele>
        <time>2013-08-11T08:33:32Z</time>
      </trkpt>
      <trkpt lat="44.92537" lon="0.63112">
        <ele>72.7169189</ele>
        <time>2013-08-11T08:33:38Z</time>
      </trkpt>
      <trkpt lat="44.92525" lon="0.63114">
        <ele>72.2362061</ele>
        <time>2013-08-11T08:33:40Z</time>
      </trkpt>
      <trkpt lat="44.92475" lon="0.63123">
        <ele>72.2362061</ele>
        <time>2013-08-11T08:33:48Z</time>
      </trkpt>
      <trkpt lat="44.92463" lon="0.63124">
        <ele>72.2362061</ele>
        <time>2013-08-11T08:33:50Z</time>
      </trkpt>
      <trkpt lat="44.92445" lon="0.63124">
        <ele>71.7554932</ele>
        <time>2013-08-11T08:33:53Z</time>
      </trkpt>
      <trkpt lat="44.9242" lon="0.63127">
        <ele>71.2749023</ele>
        <time>2013-08-11T08:33:57Z</time>
      </trkpt>
      <trkpt lat="44.92373" lon="0.6314">
        <ele>72.2362061</ele>
        <time>2013-08-11T08:34:05Z</time>
      </trkpt>
      <trkpt lat="44.92336" lon="0.63147">
        <ele>73.6782227</ele>
        <time>2013-08-11T08:34:12Z</time>
      </trkpt>
      <trkpt lat="44.92295" lon="0.63143">
        <ele>73.1976318</ele>
        <time>2013-08-11T08:34:20Z</time>
      </trkpt>
      <trkpt lat="44.92284" lon="0.63141">
        <ele>72.7169189</ele>
        <time>2013-08-11T08:34:22Z</time>
      </trkpt>
      <trkpt lat="44.92256" lon="0.63125">
        <ele>74.1588135</ele>
        <time>2013-08-11T08:34:28Z</time>
      </trkpt>
      <trkpt lat="44.92217" lon="0.63104">
        <ele>75.6008301</ele>
        <time>2013-08-11T08:34:36Z</time>
      </trkpt>
      <trkpt lat="44.92185" lon="0.6308">
        <ele>75.6008301</ele>
        <time>2013-08-11T08:34:42Z</time>
      </trkpt>
      <trkpt lat="44.92139" lon="0.63049">
        <ele>74.6395264</ele>
        <time>2013-08-11T08:34:50Z</time>
      </trkpt>
      <trkpt lat="44.921" lon="0.63019">
        <ele>75.1202393</ele>
        <time>2013-08-11T08:34:57Z</time>
      </trkpt>
      <trkpt lat="44.92079" lon="0.62999">
        <ele>73.6782227</ele>
        <time>2013-08-11T08:35:01Z</time>
      </trkpt>
      <trkpt lat="44.92073" lon="0.62997">
        <ele>73.1976318</ele>
        <time>2013-08-11T08:35:02Z</time>
      </trkpt>
      <trkpt lat="44.92034" lon="0.62985">
        <ele>75.6008301</ele>
        <time>2013-08-11T08:35:09Z</time>
      </trkpt>
      <trkpt lat="44.92028" lon="0.62985">
        <ele>75.6008301</ele>
        <time>2013-08-11T08:35:10Z</time>
      </trkpt>
      <trkpt lat="44.9201" lon="0.62992">
        <ele>76.5621338</ele>
        <time>2013-08-11T08:35:14Z</time>
      </trkpt>
      <trkpt lat="44.91989" lon="0.63012">
        <ele>79.4460449</ele>
        <time>2013-08-11T08:35:21Z</time>
      </trkpt>
      <trkpt lat="44.91973" lon="0.63036">
        <ele>79.9266357</ele>
        <time>2013-08-11T08:35:27Z</time>
      </trkpt>
      <trkpt lat="44.9195" lon="0.63067">
        <ele>80.4074707</ele>
        <time>2013-08-11T08:35:35Z</time>
      </trkpt>
      <trkpt lat="44.91928" lon="0.63097">
        <ele>82.3300781</ele>
        <time>2013-08-11T08:35:43Z</time>
      </trkpt>
      <trkpt lat="44.91908" lon="0.63123">
        <ele>83.7719727</ele>
        <time>2013-08-11T08:35:51Z</time>
      </trkpt>
      <trkpt lat="44.91899" lon="0.63136">
        <ele>86.175293</ele>
        <time>2013-08-11T08:35:56Z</time>
      </trkpt>
      <trkpt lat="44.91888" lon="0.63148">
        <ele>85.6945801</ele>
        <time>2013-08-11T08:36:01Z</time>
      </trkpt>
      <trkpt lat="44.91876" lon="0.63164">
        <ele>84.2526855</ele>
        <time>2013-08-11T08:36:06Z</time>
      </trkpt>
      <trkpt lat="44.91864" lon="0.6318">
        <ele>83.7719727</ele>
        <time>2013-08-11T08:36:11Z</time>
      </trkpt>
      <trkpt lat="44.91848" lon="0.632">
        <ele>84.7333984</ele>
        <time>2013-08-11T08:36:17Z</time>
      </trkpt>
      <trkpt lat="44.91833" lon="0.6322">
        <ele>85.6945801</ele>
        <time>2013-08-11T08:36:23Z</time>
      </trkpt>
      <trkpt lat="44.91816" lon="0.63241">
        <ele>87.1365967</ele>
        <time>2013-08-11T08:36:30Z</time>
      </trkpt>
      <trkpt lat="44.91805" lon="0.63259">
        <ele>89.539917</ele>
        <time>2013-08-11T08:36:35Z</time>
      </trkpt>
      <trkpt lat="44.91794" lon="0.63274">
        <ele>91.9432373</ele>
        <time>2013-08-11T08:36:40Z</time>
      </trkpt>
      <trkpt lat="44.91779" lon="0.63289">
        <ele>93.8658447</ele>
        <time>2013-08-11T08:36:46Z</time>
      </trkpt>
      <trkpt lat="44.91765" lon="0.633">
        <ele>95.3077393</ele>
        <time>2013-08-11T08:36:51Z</time>
      </trkpt>
      <trkpt lat="44.91747" lon="0.63314">
        <ele>96.2692871</ele>
        <time>2013-08-11T08:36:57Z</time>
      </trkpt>
      <trkpt lat="44.91729" lon="0.6333">
        <ele>97.7111816</ele>
        <time>2013-08-11T08:37:03Z</time>
      </trkpt>
      <trkpt lat="44.91714" lon="0.63341">
        <ele>97.7111816</ele>
        <time>2013-08-11T08:37:08Z</time>
      </trkpt>
      <trkpt lat="44.91701" lon="0.63352">
        <ele>99.1530762</ele>
        <time>2013-08-11T08:37:13Z</time>
      </trkpt>
      <trkpt lat="44.91687" lon="0.63367">
        <ele>100.114502</ele>
        <time>2013-08-11T08:37:18Z</time>
      </trkpt>
      <trkpt lat="44.91681" lon="0.63369">
        <ele>100.5950928</ele>
        <time>2013-08-11T08:37:20Z</time>
      </trkpt>
      <trkpt lat="44.91671" lon="0.63362">
        <ele>102.998291</ele>
        <time>2013-08-11T08:37:24Z</time>
      </trkpt>
      <trkpt lat="44.91667" lon="0.63359">
        <ele>103.9597168</ele>
        <time>2013-08-11T08:37:26Z</time>
      </trkpt>
      <trkpt lat="44.91661" lon="0.63343">
        <ele>111.1695557</ele>
        <time>2013-08-11T08:37:33Z</time>
      </trkpt>
      <trkpt lat="44.91654" lon="0.63337">
        <ele>115.0148926</ele>
        <time>2013-08-11T08:37:37Z</time>
      </trkpt>
      <trkpt lat="44.91643" lon="0.63338">
        <ele>113.572998</ele>
        <time>2013-08-11T08:37:44Z</time>
      </trkpt>
      <trkpt lat="44.91635" lon="0.63339">
        <ele>113.0922852</ele>
        <time>2013-08-11T08:37:50Z</time>
      </trkpt>
      <trkpt lat="44.91632" lon="0.63341">
        <ele>112.1309814</ele>
        <time>2013-08-11T08:37:52Z</time>
      </trkpt>
      <trkpt lat="44.91623" lon="0.63345">
        <ele>111.6502686</ele>
        <time>2013-08-11T08:37:59Z</time>
      </trkpt>
      <trkpt lat="44.91622" lon="0.63345">
        <ele>111.6502686</ele>
        <time>2013-08-11T08:38:00Z</time>
      </trkpt>
      <trkpt lat="44.91614" lon="0.6335">
        <ele>112.6115723</ele>
        <time>2013-08-11T08:38:08Z</time>
      </trkpt>
      <trkpt lat="44.91607" lon="0.63352">
        <ele>112.6115723</ele>
        <time>2013-08-11T08:38:14Z</time>
      </trkpt>
      <trkpt lat="44.91598" lon="0.63354">
        <ele>113.572998</ele>
        <time>2013-08-11T08:38:23Z</time>
      </trkpt>
      <trkpt lat="44.91597" lon="0.63354">
        <ele>113.0922852</ele>
        <time>2013-08-11T08:38:24Z</time>
      </trkpt>
      <trkpt lat="44.91589" lon="0.63356">
        <ele>114.5341797</ele>
        <time>2013-08-11T08:38:32Z</time>
      </trkpt>
      <trkpt lat="44.91582" lon="0.63358">
        <ele>116.9375</ele>
        <time>2013-08-11T08:38:45Z</time>
      </trkpt>
      <trkpt lat="44.91578" lon="0.63359">
        <ele>118.3793945</ele>
        <time>2013-08-11T08:38:51Z</time>
      </trkpt>
      <trkpt lat="44.91573" lon="0.63359">
        <ele>121.2635498</ele>
        <time>2013-08-11T08:38:58Z</time>
      </trkpt>
      <trkpt lat="44.91564" lon="0.63363">
        <ele>121.2635498</ele>
        <time>2013-08-11T08:39:05Z</time>
      </trkpt>
      <trkpt lat="44.91554" lon="0.63368">
        <ele>121.2635498</ele>
        <time>2013-08-11T08:39:13Z</time>
      </trkpt>
      <trkpt lat="44.91546" lon="0.63374">
        <ele>121.2635498</ele>
        <time>2013-08-11T08:39:20Z</time>
      </trkpt>
      <trkpt lat="44.9154" lon="0.63376">
        <ele>122.2247314</ele>
        <time>2013-08-11T08:39:24Z</time>
      </trkpt>
      <trkpt lat="44.91531" lon="0.63378">
        <ele>122.2247314</ele>
        <time>2013-08-11T08:39:32Z</time>
      </trkpt>
      <trkpt lat="44.91521" lon="0.63377">
        <ele>122.7054443</ele>
        <time>2013-08-11T08:39:39Z</time>
      </trkpt>
      <trkpt lat="44.91519" lon="0.63376">
        <ele>123.666748</ele>
        <time>2013-08-11T08:39:42Z</time>
      </trkpt>
      <trkpt lat="44.91515" lon="0.63377">
        <ele>124.1473389</ele>
        <time>2013-08-11T08:39:49Z</time>
      </trkpt>
      <trkpt lat="44.91505" lon="0.63376">
        <ele>124.6280518</ele>
        <time>2013-08-11T08:39:56Z</time>
      </trkpt>
      <trkpt lat="44.91503" lon="0.63374">
        <ele>125.5893555</ele>
        <time>2013-08-11T08:39:58Z</time>
      </trkpt>
      <trkpt lat="44.91489" lon="0.63372">
        <ele>124.1473389</ele>
        <time>2013-08-11T08:40:04Z</time>
      </trkpt>
      <trkpt lat="44.91472" lon="0.63368">
        <ele>125.1087646</ele>
        <time>2013-08-11T08:40:10Z</time>
      </trkpt>
      <trkpt lat="44.91455" lon="0.63366">
        <ele>125.5893555</ele>
        <time>2013-08-11T08:40:16Z</time>
      </trkpt>
      <trkpt lat="44.91441" lon="0.6336">
        <ele>126.0699463</ele>
        <time>2013-08-11T08:40:20Z</time>
      </trkpt>
      <trkpt lat="44.9142" lon="0.63355">
        <ele>126.5506592</ele>
        <time>2013-08-11T08:40:24Z</time>
      </trkpt>
      <trkpt lat="44.91393" lon="0.63349">
        <ele>125.5893555</ele>
        <time>2013-08-11T08:40:29Z</time>
      </trkpt>
      <trkpt lat="44.91366" lon="0.6334">
        <ele>124.1473389</ele>
        <time>2013-08-11T08:40:33Z</time>
      </trkpt>
      <trkpt lat="44.9136" lon="0.63338">
        <ele>123.666748</ele>
        <time>2013-08-11T08:40:34Z</time>
      </trkpt>
      <trkpt lat="44.91335" lon="0.63333">
        <ele>123.666748</ele>
        <time>2013-08-11T08:40:38Z</time>
      </trkpt>
      <trkpt lat="44.91324" lon="0.63331">
        <ele>125.5893555</ele>
        <time>2013-08-11T08:40:40Z</time>
      </trkpt>
      <trkpt lat="44.91312" lon="0.63326">
        <ele>127.5119629</ele>
        <time>2013-08-11T08:40:43Z</time>
      </trkpt>
      <trkpt lat="44.91306" lon="0.63324">
        <ele>127.9925537</ele>
        <time>2013-08-11T08:40:45Z</time>
      </trkpt>
      <trkpt lat="44.91298" lon="0.6332">
        <ele>127.5119629</ele>
        <time>2013-08-11T08:40:49Z</time>
      </trkpt>
      <trkpt lat="44.91294" lon="0.63319">
        <ele>126.5506592</ele>
        <time>2013-08-11T08:40:51Z</time>
      </trkpt>
      <trkpt lat="44.91278" lon="0.63314">
        <ele>124.1473389</ele>
        <time>2013-08-11T08:40:57Z</time>
      </trkpt>
      <trkpt lat="44.91265" lon="0.63313">
        <ele>122.2247314</ele>
        <time>2013-08-11T08:41:01Z</time>
      </trkpt>
      <trkpt lat="44.91245" lon="0.63311">
        <ele>121.7441406</ele>
        <time>2013-08-11T08:41:06Z</time>
      </trkpt>
      <trkpt lat="44.91234" lon="0.63312">
        <ele>120.7828369</ele>
        <time>2013-08-11T08:41:09Z</time>
      </trkpt>
      <trkpt lat="44.91222" lon="0.63298">
        <ele>121.2635498</ele>
        <time>2013-08-11T08:41:13Z</time>
      </trkpt>
      <trkpt lat="44.912" lon="0.63256">
        <ele>121.7441406</ele>
        <time>2013-08-11T08:41:19Z</time>
      </trkpt>
      <trkpt lat="44.9117" lon="0.63197">
        <ele>122.2247314</ele>
        <time>2013-08-11T08:41:27Z</time>
      </trkpt>
      <trkpt lat="44.91144" lon="0.63146">
        <ele>123.1861572</ele>
        <time>2013-08-11T08:41:34Z</time>
      </trkpt>
      <trkpt lat="44.91124" lon="0.63105">
        <ele>125.1087646</ele>
        <time>2013-08-11T08:41:41Z</time>
      </trkpt>
      <trkpt lat="44.91105" lon="0.63066">
        <ele>128.4733887</ele>
        <time>2013-08-11T08:41:49Z</time>
      </trkpt>
      <trkpt lat="44.91089" lon="0.63032">
        <ele>130.3959961</ele>
        <time>2013-08-11T08:41:57Z</time>
      </trkpt>
      <trkpt lat="44.91075" lon="0.63034">
        <ele>129.4346924</ele>
        <time>2013-08-11T08:42:02Z</time>
      </trkpt>
      <trkpt lat="44.9106" lon="0.63043">
        <ele>127.5119629</ele>
        <time>2013-08-11T08:42:07Z</time>
      </trkpt>
      <trkpt lat="44.91059" lon="0.63043">
        <ele>127.5119629</ele>
        <time>2013-08-11T08:42:22Z</time>
      </trkpt>
      <trkpt lat="44.91059" lon="0.63044">
        <ele>127.5119629</ele>
        <time>2013-08-11T08:42:32Z</time>
      </trkpt>
      <trkpt lat="44.91057" lon="0.63045">
        <ele>128.4733887</ele>
        <time>2013-08-11T08:42:44Z</time>
      </trkpt>
      <trkpt lat="44.91046" lon="0.63059">
        <ele>127.5119629</ele>
        <time>2013-08-11T08:42:49Z</time>
      </trkpt>
      <trkpt lat="44.91044" lon="0.63079">
        <ele>126.0699463</ele>
        <time>2013-08-11T08:42:52Z</time>
      </trkpt>
      <trkpt lat="44.91037" lon="0.63094">
        <ele>124.1473389</ele>
        <time>2013-08-11T08:42:55Z</time>
      </trkpt>
      <trkpt lat="44.91034" lon="0.63096">
        <ele>122.7054443</ele>
        <time>2013-08-11T08:42:56Z</time>
      </trkpt>
      <trkpt lat="44.91007" lon="0.63086">
        <ele>119.3408203</ele>
        <time>2013-08-11T08:43:01Z</time>
      </trkpt>
      <trkpt lat="44.9099" lon="0.63068">
        <ele>117.4182129</ele>
        <time>2013-08-11T08:43:04Z</time>
      </trkpt>
      <trkpt lat="44.90961" lon="0.63051">
        <ele>115.0148926</ele>
        <time>2013-08-11T08:43:08Z</time>
      </trkpt>
      <trkpt lat="44.90942" lon="0.63045">
        <ele>114.0535889</ele>
        <time>2013-08-11T08:43:10Z</time>
      </trkpt>
      <trkpt lat="44.90921" lon="0.6305">
        <ele>111.1695557</ele>
        <time>2013-08-11T08:43:13Z</time>
      </trkpt>
      <trkpt lat="44.90916" lon="0.63054">
        <ele>110.6888428</ele>
        <time>2013-08-11T08:43:14Z</time>
      </trkpt>
      <trkpt lat="44.90916" lon="0.63054">
        <ele>110.6888428</ele>
        <time>2013-08-11T08:43:14Z</time>
      </trkpt>
      <trkpt lat="44.90891" lon="0.63065">
        <ele>108.7662354</ele>
        <time>2013-08-11T08:43:18Z</time>
      </trkpt>
      <trkpt lat="44.90871" lon="0.63083">
        <ele>106.3630371</ele>
        <time>2013-08-11T08:43:21Z</time>
      </trkpt>
      <trkpt lat="44.90865" lon="0.63089">
        <ele>105.4017334</ele>
        <time>2013-08-11T08:43:22Z</time>
      </trkpt>
      <trkpt lat="44.90833" lon="0.63093">
        <ele>101.0756836</ele>
        <time>2013-08-11T08:43:27Z</time>
      </trkpt>
      <trkpt lat="44.90813" lon="0.6309">
        <ele>97.7111816</ele>
        <time>2013-08-11T08:43:30Z</time>
      </trkpt>
      <trkpt lat="44.90767" lon="0.63093">
        <ele>94.8271484</ele>
        <time>2013-08-11T08:43:37Z</time>
      </trkpt>
      <trkpt lat="44.90755" lon="0.63097">
        <ele>93.8658447</ele>
        <time>2013-08-11T08:43:39Z</time>
      </trkpt>
      <trkpt lat="44.90728" lon="0.6311">
        <ele>92.904541</ele>
        <time>2013-08-11T08:43:44Z</time>
      </trkpt>
      <trkpt lat="44.907" lon="0.63133">
        <ele>94.8271484</ele>
        <time>2013-08-11T08:43:50Z</time>
      </trkpt>
      <trkpt lat="44.90696" lon="0.63138">
        <ele>95.3077393</ele>
        <time>2013-08-11T08:43:51Z</time>
      </trkpt>
      <trkpt lat="44.90687" lon="0.6315">
        <ele>95.3077393</ele>
        <time>2013-08-11T08:43:53Z</time>
      </trkpt>
      <trkpt lat="44.90665" lon="0.63181">
        <ele>94.8271484</ele>
        <time>2013-08-11T08:43:58Z</time>
      </trkpt>
      <trkpt lat="44.90653" lon="0.63191">
        <ele>95.3077393</ele>
        <time>2013-08-11T08:44:00Z</time>
      </trkpt>
      <trkpt lat="44.90632" lon="0.63204">
        <ele>93.3851318</ele>
        <time>2013-08-11T08:44:04Z</time>
      </trkpt>
      <trkpt lat="44.90612" lon="0.63212">
        <ele>90.5013428</ele>
        <time>2013-08-11T08:44:08Z</time>
      </trkpt>
      <trkpt lat="44.90583" lon="0.63215">
        <ele>87.1365967</ele>
        <time>2013-08-11T08:44:13Z</time>
      </trkpt>
      <trkpt lat="44.90548" lon="0.63215">
        <ele>83.7719727</ele>
        <time>2013-08-11T08:44:18Z</time>
      </trkpt>
      <trkpt lat="44.90534" lon="0.63215">
        <ele>81.8493652</ele>
        <time>2013-08-11T08:44:20Z</time>
      </trkpt>
      <trkpt lat="44.9051" lon="0.63213">
        <ele>81.3687744</ele>
        <time>2013-08-11T08:44:24Z</time>
      </trkpt>
      <trkpt lat="44.90478" lon="0.63227">
        <ele>77.5234375</ele>
        <time>2013-08-11T08:44:29Z</time>
      </trkpt>
      <trkpt lat="44.90448" lon="0.63246">
        <ele>77.0428467</ele>
        <time>2013-08-11T08:44:33Z</time>
      </trkpt>
      <trkpt lat="44.90387" lon="0.63267">
        <ele>74.1588135</ele>
        <time>2013-08-11T08:44:42Z</time>
      </trkpt>
      <trkpt lat="44.90356" lon="0.63276">
        <ele>72.7169189</ele>
        <time>2013-08-11T08:44:47Z</time>
      </trkpt>
      <trkpt lat="44.90351" lon="0.63278">
        <ele>72.7169189</ele>
        <time>2013-08-11T08:44:48Z</time>
      </trkpt>
      <trkpt lat="44.90333" lon="0.63272">
        <ele>70.7941895</ele>
        <time>2013-08-11T08:44:52Z</time>
      </trkpt>
      <trkpt lat="44.90324" lon="0.63263">
        <ele>71.2749023</ele>
        <time>2013-08-11T08:44:54Z</time>
      </trkpt>
      <trkpt lat="44.9028" lon="0.63231">
        <ele>71.7554932</ele>
        <time>2013-08-11T08:45:04Z</time>
      </trkpt>
      <trkpt lat="44.90276" lon="0.63229">
        <ele>71.7554932</ele>
        <time>2013-08-11T08:45:05Z</time>
      </trkpt>
      <trkpt lat="44.90255" lon="0.63227">
        <ele>72.2362061</ele>
        <time>2013-08-11T08:45:10Z</time>
      </trkpt>
      <trkpt lat="44.90244" lon="0.63234">
        <ele>72.7169189</ele>
        <time>2013-08-11T08:45:13Z</time>
      </trkpt>
      <trkpt lat="44.90226" lon="0.63248">
        <ele>73.1976318</ele>
        <time>2013-08-11T08:45:18Z</time>
      </trkpt>
      <trkpt lat="44.90218" lon="0.63264">
        <ele>74.1588135</ele>
        <time>2013-08-11T08:45:22Z</time>
      </trkpt>
      <trkpt lat="44.90218" lon="0.63269">
        <ele>74.1588135</ele>
        <time>2013-08-11T08:45:23Z</time>
      </trkpt>
      <trkpt lat="44.90211" lon="0.633">
        <ele>75.1202393</ele>
        <time>2013-08-11T08:45:30Z</time>
      </trkpt>
      <trkpt lat="44.902" lon="0.63305">
        <ele>75.1202393</ele>
        <time>2013-08-11T08:45:34Z</time>
      </trkpt>
      <trkpt lat="44.90186" lon="0.63302">
        <ele>75.6008301</ele>
        <time>2013-08-11T08:45:40Z</time>
      </trkpt>
      <trkpt lat="44.90175" lon="0.63296">
        <ele>78.4847412</ele>
        <time>2013-08-11T08:45:45Z</time>
      </trkpt>
      <trkpt lat="44.90167" lon="0.63286">
        <ele>84.2526855</ele>
        <time>2013-08-11T08:45:50Z</time>
      </trkpt>
      <trkpt lat="44.90156" lon="0.63265">
        <ele>89.0593262</ele>
        <time>2013-08-11T08:45:57Z</time>
      </trkpt>
      <trkpt lat="44.90147" lon="0.6325">
        <ele>92.4239502</ele>
        <time>2013-08-11T08:46:04Z</time>
      </trkpt>
      <trkpt lat="44.90142" lon="0.63234">
        <ele>95.7884521</ele>
        <time>2013-08-11T08:46:10Z</time>
      </trkpt>
      <trkpt lat="44.90133" lon="0.63227">
        <ele>96.2692871</ele>
        <time>2013-08-11T08:46:16Z</time>
      </trkpt>
      <trkpt lat="44.90126" lon="0.63229">
        <ele>96.2692871</ele>
        <time>2013-08-11T08:46:20Z</time>
      </trkpt>
      <trkpt lat="44.90121" lon="0.63237">
        <ele>96.7498779</ele>
        <time>2013-08-11T08:46:26Z</time>
      </trkpt>
      <trkpt lat="44.90119" lon="0.63239">
        <ele>96.7498779</ele>
        <time>2013-08-11T08:46:28Z</time>
      </trkpt>
      <trkpt lat="44.90113" lon="0.63247">
        <ele>94.8271484</ele>
        <time>2013-08-11T08:46:34Z</time>
      </trkpt>
      <trkpt lat="44.90102" lon="0.63254">
        <ele>92.4239502</ele>
        <time>2013-08-11T08:46:41Z</time>
      </trkpt>
      <trkpt lat="44.90092" lon="0.63257">
        <ele>93.3851318</ele>
        <time>2013-08-11T08:46:48Z</time>
      </trkpt>
      <trkpt lat="44.90082" lon="0.63264">
        <ele>95.3077393</ele>
        <time>2013-08-11T08:46:55Z</time>
      </trkpt>
      <trkpt lat="44.9008" lon="0.63264">
        <ele>95.7884521</ele>
        <time>2013-08-11T08:46:57Z</time>
      </trkpt>
      <trkpt lat="44.90071" lon="0.63266">
        <ele>96.7498779</ele>
        <time>2013-08-11T08:47:04Z</time>
      </trkpt>
      <trkpt lat="44.90069" lon="0.63267">
        <ele>96.2692871</ele>
        <time>2013-08-11T08:47:05Z</time>
      </trkpt>
      <trkpt lat="44.90058" lon="0.63274">
        <ele>98.1918945</ele>
        <time>2013-08-11T08:47:13Z</time>
      </trkpt>
      <trkpt lat="44.90052" lon="0.63279">
        <ele>99.1530762</ele>
        <time>2013-08-11T08:47:18Z</time>
      </trkpt>
      <trkpt lat="44.90041" lon="0.63281">
        <ele>97.7111816</ele>
        <time>2013-08-11T08:47:26Z</time>
      </trkpt>
      <trkpt lat="44.90026" lon="0.63284">
        <ele>98.1918945</ele>
        <time>2013-08-11T08:47:36Z</time>
      </trkpt>
      <trkpt lat="44.90014" lon="0.63285">
        <ele>100.5950928</ele>
        <time>2013-08-11T08:47:44Z</time>
      </trkpt>
      <trkpt lat="44.90007" lon="0.63287">
        <ele>102.5177002</ele>
        <time>2013-08-11T08:47:50Z</time>
      </trkpt>
      <trkpt lat="44.89997" lon="0.63294">
        <ele>102.0371094</ele>
        <time>2013-08-11T08:47:56Z</time>
      </trkpt>
      <trkpt lat="44.89985" lon="0.63304">
        <ele>103.4790039</ele>
        <time>2013-08-11T08:48:04Z</time>
      </trkpt>
      <trkpt lat="44.89971" lon="0.63313">
        <ele>105.4017334</ele>
        <time>2013-08-11T08:48:12Z</time>
      </trkpt>
      <trkpt lat="44.89956" lon="0.63318">
        <ele>107.3243408</ele>
        <time>2013-08-11T08:48:21Z</time>
      </trkpt>
      <trkpt lat="44.89941" lon="0.63325">
        <ele>108.7662354</ele>
        <time>2013-08-11T08:48:30Z</time>
      </trkpt>
      <trkpt lat="44.89929" lon="0.63328">
        <ele>109.7276611</ele>
        <time>2013-08-11T08:48:37Z</time>
      </trkpt>
      <trkpt lat="44.89913" lon="0.63332">
        <ele>111.1695557</ele>
        <time>2013-08-11T08:48:46Z</time>
      </trkpt>
      <trkpt lat="44.89896" lon="0.63336">
        <ele>112.6115723</ele>
        <time>2013-08-11T08:48:56Z</time>
      </trkpt>
      <trkpt lat="44.8988" lon="0.6334">
        <ele>114.0535889</ele>
        <time>2013-08-11T08:49:05Z</time>
      </trkpt>
      <trkpt lat="44.89866" lon="0.63344">
        <ele>115.4956055</ele>
        <time>2013-08-11T08:49:14Z</time>
      </trkpt>
      <trkpt lat="44.89851" lon="0.63348">
        <ele>117.4182129</ele>
        <time>2013-08-11T08:49:23Z</time>
      </trkpt>
      <trkpt lat="44.89833" lon="0.63352">
        <ele>119.3408203</ele>
        <time>2013-08-11T08:49:34Z</time>
      </trkpt>
      <trkpt lat="44.8982" lon="0.63355">
        <ele>120.7828369</ele>
        <time>2013-08-11T08:49:42Z</time>
      </trkpt>
      <trkpt lat="44.89806" lon="0.63363">
        <ele>122.7054443</ele>
        <time>2013-08-11T08:49:51Z</time>
      </trkpt>
      <trkpt lat="44.89796" lon="0.63378">
        <ele>124.6280518</ele>
        <time>2013-08-11T08:50:00Z</time>
      </trkpt>
      <trkpt lat="44.89787" lon="0.63393">
        <ele>126.5506592</ele>
        <time>2013-08-11T08:50:09Z</time>
      </trkpt>
      <trkpt lat="44.89775" lon="0.63408">
        <ele>128.9541016</ele>
        <time>2013-08-11T08:50:19Z</time>
      </trkpt>
      <trkpt lat="44.89761" lon="0.63415">
        <ele>131.3572998</ele>
        <time>2013-08-11T08:50:28Z</time>
      </trkpt>
      <trkpt lat="44.89747" lon="0.63417">
        <ele>133.2799072</ele>
        <time>2013-08-11T08:50:36Z</time>
      </trkpt>
      <trkpt lat="44.89732" lon="0.63419">
        <ele>134.2412109</ele>
        <time>2013-08-11T08:50:45Z</time>
      </trkpt>
      <trkpt lat="44.8973" lon="0.63419">
        <ele>134.7219238</ele>
        <time>2013-08-11T08:50:46Z</time>
      </trkpt>
      <trkpt lat="44.89728" lon="0.63431">
        <ele>135.2025146</ele>
        <time>2013-08-11T08:50:51Z</time>
      </trkpt>
      <trkpt lat="44.89725" lon="0.63459">
        <ele>135.6831055</ele>
        <time>2013-08-11T08:50:59Z</time>
      </trkpt>
      <trkpt lat="44.89721" lon="0.63489">
        <ele>135.2025146</ele>
        <time>2013-08-11T08:51:06Z</time>
      </trkpt>
      <trkpt lat="44.89719" lon="0.63528">
        <ele>135.2025146</ele>
        <time>2013-08-11T08:51:13Z</time>
      </trkpt>
      <trkpt lat="44.8972" lon="0.63573">
        <ele>136.1639404</ele>
        <time>2013-08-11T08:51:20Z</time>
      </trkpt>
      <trkpt lat="44.8972" lon="0.63622">
        <ele>135.2025146</ele>
        <time>2013-08-11T08:51:28Z</time>
      </trkpt>
      <trkpt lat="44.89721" lon="0.63626">
        <ele>135.2025146</ele>
        <time>2013-08-11T08:51:29Z</time>
      </trkpt>
      <trkpt lat="44.89718" lon="0.63661">
        <ele>135.6831055</ele>
        <time>2013-08-11T08:51:34Z</time>
      </trkpt>
      <trkpt lat="44.89714" lon="0.637">
        <ele>134.7219238</ele>
        <time>2013-08-11T08:51:39Z</time>
      </trkpt>
      <trkpt lat="44.89713" lon="0.63736">
        <ele>135.2025146</ele>
        <time>2013-08-11T08:51:44Z</time>
      </trkpt>
      <trkpt lat="44.89711" lon="0.6378">
        <ele>134.2412109</ele>
        <time>2013-08-11T08:51:50Z</time>
      </trkpt>
      <trkpt lat="44.8971" lon="0.63794">
        <ele>133.760498</ele>
        <time>2013-08-11T08:51:52Z</time>
      </trkpt>
      <trkpt lat="44.89705" lon="0.6382">
        <ele>134.7219238</ele>
        <time>2013-08-11T08:51:57Z</time>
      </trkpt>
      <trkpt lat="44.89703" lon="0.63828">
        <ele>135.2025146</ele>
        <time>2013-08-11T08:51:59Z</time>
      </trkpt>
      <trkpt lat="44.89699" lon="0.6387">
        <ele>136.6446533</ele>
        <time>2013-08-11T08:52:08Z</time>
      </trkpt>
      <trkpt lat="44.89696" lon="0.63897">
        <ele>138.5672607</ele>
        <time>2013-08-11T08:52:14Z</time>
      </trkpt>
      <trkpt lat="44.89692" lon="0.63937">
        <ele>139.5284424</ele>
        <time>2013-08-11T08:52:23Z</time>
      </trkpt>
      <trkpt lat="44.89692" lon="0.6398">
        <ele>139.5284424</ele>
        <time>2013-08-11T08:52:32Z</time>
      </trkpt>
      <trkpt lat="44.89697" lon="0.64007">
        <ele>140.0091553</ele>
        <time>2013-08-11T08:52:38Z</time>
      </trkpt>
      <trkpt lat="44.89708" lon="0.64036">
        <ele>141.9317627</ele>
        <time>2013-08-11T08:52:45Z</time>
      </trkpt>
      <trkpt lat="44.89714" lon="0.64063">
        <ele>141.4510498</ele>
        <time>2013-08-11T08:52:51Z</time>
      </trkpt>
      <trkpt lat="44.89715" lon="0.64068">
        <ele>140.970459</ele>
        <time>2013-08-11T08:52:52Z</time>
      </trkpt>
      <trkpt lat="44.89725" lon="0.64103">
        <ele>141.9317627</ele>
        <time>2013-08-11T08:52:59Z</time>
      </trkpt>
      <trkpt lat="44.89736" lon="0.64144">
        <ele>141.9317627</ele>
        <time>2013-08-11T08:53:07Z</time>
      </trkpt>
      <trkpt lat="44.8974" lon="0.64162">
        <ele>142.4124756</ele>
        <time>2013-08-11T08:53:10Z</time>
      </trkpt>
      <trkpt lat="44.89755" lon="0.6418">
        <ele>141.9317627</ele>
        <time>2013-08-11T08:53:14Z</time>
      </trkpt>
      <trkpt lat="44.89764" lon="0.64183">
        <ele>140.970459</ele>
        <time>2013-08-11T08:53:16Z</time>
      </trkpt>
      <trkpt lat="44.89802" lon="0.64187">
        <ele>140.0091553</ele>
        <time>2013-08-11T08:53:24Z</time>
      </trkpt>
      <trkpt lat="44.89816" lon="0.64187">
        <ele>139.5284424</ele>
        <time>2013-08-11T08:53:27Z</time>
      </trkpt>
      <trkpt lat="44.89826" lon="0.64187">
        <ele>139.0478516</ele>
        <time>2013-08-11T08:53:29Z</time>
      </trkpt>
      <trkpt lat="44.89846" lon="0.64196">
        <ele>138.0865479</ele>
        <time>2013-08-11T08:53:33Z</time>
      </trkpt>
      <trkpt lat="44.89855" lon="0.64204">
        <ele>138.0865479</ele>
        <time>2013-08-11T08:53:35Z</time>
      </trkpt>
      <trkpt lat="44.89881" lon="0.64231">
        <ele>135.6831055</ele>
        <time>2013-08-11T08:53:40Z</time>
      </trkpt>
      <trkpt lat="44.89911" lon="0.64245">
        <ele>133.2799072</ele>
        <time>2013-08-11T08:53:44Z</time>
      </trkpt>
      <trkpt lat="44.89929" lon="0.64271">
        <ele>130.876709</ele>
        <time>2013-08-11T08:53:48Z</time>
      </trkpt>
      <trkpt lat="44.89931" lon="0.64284">
        <ele>130.3959961</ele>
        <time>2013-08-11T08:53:49Z</time>
      </trkpt>
      <trkpt lat="44.89936" lon="0.6432">
        <ele>129.4346924</ele>
        <time>2013-08-11T08:53:52Z</time>
      </trkpt>
      <trkpt lat="44.89957" lon="0.64363">
        <ele>129.4346924</ele>
        <time>2013-08-11T08:53:57Z</time>
      </trkpt>
      <trkpt lat="44.89976" lon="0.64384">
        <ele>129.4346924</ele>
        <time>2013-08-11T08:54:01Z</time>
      </trkpt>
      <trkpt lat="44.89971" lon="0.64403">
        <ele>129.4346924</ele>
        <time>2013-08-11T08:54:04Z</time>
      </trkpt>
      <trkpt lat="44.89965" lon="0.64406">
        <ele>129.4346924</ele>
        <time>2013-08-11T08:54:05Z</time>
      </trkpt>
      <trkpt lat="44.89949" lon="0.64447">
        <ele>127.0313721</ele>
        <time>2013-08-11T08:54:10Z</time>
      </trkpt>
      <trkpt lat="44.89944" lon="0.64465">
        <ele>124.1473389</ele>
        <time>2013-08-11T08:54:13Z</time>
      </trkpt>
      <trkpt lat="44.89935" lon="0.64461">
        <ele>121.7441406</ele>
        <time>2013-08-11T08:54:15Z</time>
      </trkpt>
      <trkpt lat="44.8993" lon="0.64457">
        <ele>121.2635498</ele>
        <time>2013-08-11T08:54:16Z</time>
      </trkpt>
      <trkpt lat="44.89913" lon="0.64444">
        <ele>119.3408203</ele>
        <time>2013-08-11T08:54:19Z</time>
      </trkpt>
      <trkpt lat="44.89887" lon="0.64447">
        <ele>116.4567871</ele>
        <time>2013-08-11T08:54:23Z</time>
      </trkpt>
      <trkpt lat="44.89875" lon="0.64471">
        <ele>112.1309814</ele>
        <time>2013-08-11T08:54:26Z</time>
      </trkpt>
      <trkpt lat="44.89859" lon="0.64505">
        <ele>110.6888428</ele>
        <time>2013-08-11T08:54:30Z</time>
      </trkpt>
      <trkpt lat="44.89853" lon="0.64518">
        <ele>110.208252</ele>
        <time>2013-08-11T08:54:32Z</time>
      </trkpt>
      <trkpt lat="44.8984" lon="0.64527">
        <ele>110.208252</ele>
        <time>2013-08-11T08:54:36Z</time>
      </trkpt>
      <trkpt lat="44.89818" lon="0.64529">
        <ele>110.208252</ele>
        <time>2013-08-11T08:54:44Z</time>
      </trkpt>
      <trkpt lat="44.89813" lon="0.6453">
        <ele>110.6888428</ele>
        <time>2013-08-11T08:54:46Z</time>
      </trkpt>
      <trkpt lat="44.89808" lon="0.64546">
        <ele>111.1695557</ele>
        <time>2013-08-11T08:54:51Z</time>
      </trkpt>
      <trkpt lat="44.89808" lon="0.64584">
        <ele>112.1309814</ele>
        <time>2013-08-11T08:54:58Z</time>
      </trkpt>
      <trkpt lat="44.89799" lon="0.64604">
        <ele>112.6115723</ele>
        <time>2013-08-11T08:55:02Z</time>
      </trkpt>
      <trkpt lat="44.8979" lon="0.64623">
        <ele>111.6502686</ele>
        <time>2013-08-11T08:55:06Z</time>
      </trkpt>
      <trkpt lat="44.8978" lon="0.64624">
        <ele>111.6502686</ele>
        <time>2013-08-11T08:55:10Z</time>
      </trkpt>
      <trkpt lat="44.89777" lon="0.64617">
        <ele>112.1309814</ele>
        <time>2013-08-11T08:55:12Z</time>
      </trkpt>
      <trkpt lat="44.89764" lon="0.64588">
        <ele>113.0922852</ele>
        <time>2013-08-11T08:55:20Z</time>
      </trkpt>
      <trkpt lat="44.89748" lon="0.64556">
        <ele>117.8988037</ele>
        <time>2013-08-11T08:55:29Z</time>
      </trkpt>
      <trkpt lat="44.89747" lon="0.64538">
        <ele>120.302124</ele>
        <time>2013-08-11T08:55:33Z</time>
      </trkpt>
      <trkpt lat="44.89737" lon="0.64535">
        <ele>120.7828369</ele>
        <time>2013-08-11T08:55:37Z</time>
      </trkpt>
      <trkpt lat="44.8972" lon="0.64537">
        <ele>123.1861572</ele>
        <time>2013-08-11T08:55:42Z</time>
      </trkpt>
      <trkpt lat="44.89718" lon="0.64521">
        <ele>127.0313721</ele>
        <time>2013-08-11T08:55:47Z</time>
      </trkpt>
      <trkpt lat="44.89713" lon="0.645">
        <ele>127.0313721</ele>
        <time>2013-08-11T08:55:53Z</time>
      </trkpt>
      <trkpt lat="44.89705" lon="0.64472">
        <ele>130.3959961</ele>
        <time>2013-08-11T08:56:00Z</time>
      </trkpt>
      <trkpt lat="44.89696" lon="0.6447">
        <ele>131.8378906</ele>
        <time>2013-08-11T08:56:04Z</time>
      </trkpt>
      <trkpt lat="44.89672" lon="0.64476">
        <ele>128.4733887</ele>
        <time>2013-08-11T08:56:12Z</time>
      </trkpt>
      <trkpt lat="44.89657" lon="0.64479">
        <ele>125.5893555</ele>
        <time>2013-08-11T08:56:17Z</time>
      </trkpt>
      <trkpt lat="44.8965" lon="0.6448">
        <ele>125.1087646</ele>
        <time>2013-08-11T08:56:19Z</time>
      </trkpt>
      <trkpt lat="44.89625" lon="0.64487">
        <ele>124.6280518</ele>
        <time>2013-08-11T08:56:26Z</time>
      </trkpt>
      <trkpt lat="44.89597" lon="0.64502">
        <ele>125.5893555</ele>
        <time>2013-08-11T08:56:34Z</time>
      </trkpt>
      <trkpt lat="44.89579" lon="0.64541">
        <ele>127.5119629</ele>
        <time>2013-08-11T08:56:44Z</time>
      </trkpt>
      <trkpt lat="44.89563" lon="0.64563">
        <ele>127.9925537</ele>
        <time>2013-08-11T08:56:51Z</time>
      </trkpt>
      <trkpt lat="44.89549" lon="0.64571">
        <ele>128.4733887</ele>
        <time>2013-08-11T08:56:57Z</time>
      </trkpt>
      <trkpt lat="44.89535" lon="0.6457">
        <ele>129.9152832</ele>
        <time>2013-08-11T08:57:04Z</time>
      </trkpt>
      <trkpt lat="44.89522" lon="0.6457">
        <ele>131.8378906</ele>
        <time>2013-08-11T08:57:11Z</time>
      </trkpt>
      <trkpt lat="44.89512" lon="0.64573">
        <ele>132.7993164</ele>
        <time>2013-08-11T08:57:16Z</time>
      </trkpt>
      <trkpt lat="44.89502" lon="0.64586">
        <ele>136.1639404</ele>
        <time>2013-08-11T08:57:23Z</time>
      </trkpt>
      <trkpt lat="44.89499" lon="0.64607">
        <ele>137.605835</ele>
        <time>2013-08-11T08:57:30Z</time>
      </trkpt>
      <trkpt lat="44.89495" lon="0.6463">
        <ele>140.970459</ele>
        <time>2013-08-11T08:57:37Z</time>
      </trkpt>
      <trkpt lat="44.89491" lon="0.64654">
        <ele>143.3736572</ele>
        <time>2013-08-11T08:57:43Z</time>
      </trkpt>
      <trkpt lat="44.89482" lon="0.64679">
        <ele>143.8543701</ele>
        <time>2013-08-11T08:57:49Z</time>
      </trkpt>
      <trkpt lat="44.8947" lon="0.64686">
        <ele>143.3736572</ele>
        <time>2013-08-11T08:57:53Z</time>
      </trkpt>
      <trkpt lat="44.89454" lon="0.64684">
        <ele>141.4510498</ele>
        <time>2013-08-11T08:57:59Z</time>
      </trkpt>
      <trkpt lat="44.89433" lon="0.64685">
        <ele>138.5672607</ele>
        <time>2013-08-11T08:58:04Z</time>
      </trkpt>
      <trkpt lat="44.89421" lon="0.64688">
        <ele>137.1252441</ele>
        <time>2013-08-11T08:58:06Z</time>
      </trkpt>
      <trkpt lat="44.89405" lon="0.64698">
        <ele>134.7219238</ele>
        <time>2013-08-11T08:58:09Z</time>
      </trkpt>
      <trkpt lat="44.89377" lon="0.64726">
        <ele>129.9152832</ele>
        <time>2013-08-11T08:58:16Z</time>
      </trkpt>
      <trkpt lat="44.89363" lon="0.64744">
        <ele>128.9541016</ele>
        <time>2013-08-11T08:58:20Z</time>
      </trkpt>
      <trkpt lat="44.89339" lon="0.64766">
        <ele>127.9925537</ele>
        <time>2013-08-11T08:58:26Z</time>
      </trkpt>
      <trkpt lat="44.89306" lon="0.64801">
        <ele>128.9541016</ele>
        <time>2013-08-11T08:58:35Z</time>
      </trkpt>
      <trkpt lat="44.89282" lon="0.64829">
        <ele>128.4733887</ele>
        <time>2013-08-11T08:58:42Z</time>
      </trkpt>
      <trkpt lat="44.89249" lon="0.64861">
        <ele>131.8378906</ele>
        <time>2013-08-11T08:58:51Z</time>
      </trkpt>
      <trkpt lat="44.89232" lon="0.64879">
        <ele>131.3572998</ele>
        <time>2013-08-11T08:58:56Z</time>
      </trkpt>
      <trkpt lat="44.89199" lon="0.64914">
        <ele>132.3186035</ele>
        <time>2013-08-11T08:59:06Z</time>
      </trkpt>
      <trkpt lat="44.89189" lon="0.64925">
        <ele>132.7993164</ele>
        <time>2013-08-11T08:59:09Z</time>
      </trkpt>
      <trkpt lat="44.89155" lon="0.64959">
        <ele>134.7219238</ele>
        <time>2013-08-11T08:59:19Z</time>
      </trkpt>
      <trkpt lat="44.89123" lon="0.64989">
        <ele>138.5672607</ele>
        <time>2013-08-11T08:59:28Z</time>
      </trkpt>
      <trkpt lat="44.89118" lon="0.64992">
        <ele>139.5284424</ele>
        <time>2013-08-11T08:59:29Z</time>
      </trkpt>
      <trkpt lat="44.89094" lon="0.65011">
        <ele>141.4510498</ele>
        <time>2013-08-11T08:59:36Z</time>
      </trkpt>
      <trkpt lat="44.89054" lon="0.65038">
        <ele>143.8543701</ele>
        <time>2013-08-11T08:59:46Z</time>
      </trkpt>
      <trkpt lat="44.89036" lon="0.65051">
        <ele>144.3352051</ele>
        <time>2013-08-11T08:59:51Z</time>
      </trkpt>
      <trkpt lat="44.89014" lon="0.65067">
        <ele>145.7770996</ele>
        <time>2013-08-11T08:59:57Z</time>
      </trkpt>
      <trkpt lat="44.88992" lon="0.65085">
        <ele>148.1804199</ele>
        <time>2013-08-11T09:00:03Z</time>
      </trkpt>
      <trkpt lat="44.88982" lon="0.65096">
        <ele>148.1804199</ele>
        <time>2013-08-11T09:00:06Z</time>
      </trkpt>
      <trkpt lat="44.88968" lon="0.65108">
        <ele>148.6610107</ele>
        <time>2013-08-11T09:00:10Z</time>
      </trkpt>
      <trkpt lat="44.88952" lon="0.65132">
        <ele>151.064209</ele>
        <time>2013-08-11T09:00:17Z</time>
      </trkpt>
      <trkpt lat="44.88939" lon="0.65145">
        <ele>151.5449219</ele>
        <time>2013-08-11T09:00:21Z</time>
      </trkpt>
      <trkpt lat="44.88932" lon="0.65152">
        <ele>151.5449219</ele>
        <time>2013-08-11T09:00:23Z</time>
      </trkpt>
      <trkpt lat="44.88915" lon="0.65171">
        <ele>151.064209</ele>
        <time>2013-08-11T09:00:29Z</time>
      </trkpt>
      <trkpt lat="44.88891" lon="0.65188">
        <ele>151.5449219</ele>
        <time>2013-08-11T09:00:36Z</time>
      </trkpt>
      <trkpt lat="44.88872" lon="0.65196">
        <ele>151.064209</ele>
        <time>2013-08-11T09:00:41Z</time>
      </trkpt>
      <trkpt lat="44.88855" lon="0.65204">
        <ele>151.5449219</ele>
        <time>2013-08-11T09:00:45Z</time>
      </trkpt>
      <trkpt lat="44.88833" lon="0.65218">
        <ele>152.5063477</ele>
        <time>2013-08-11T09:00:50Z</time>
      </trkpt>
      <trkpt lat="44.88809" lon="0.65235">
        <ele>151.5449219</ele>
        <time>2013-08-11T09:00:55Z</time>
      </trkpt>
      <trkpt lat="44.88795" lon="0.65255">
        <ele>152.5063477</ele>
        <time>2013-08-11T09:00:59Z</time>
      </trkpt>
      <trkpt lat="44.88786" lon="0.65265">
        <ele>152.0257568</ele>
        <time>2013-08-11T09:01:01Z</time>
      </trkpt>
      <trkpt lat="44.88763" lon="0.65302">
        <ele>149.6223145</ele>
        <time>2013-08-11T09:01:07Z</time>
      </trkpt>
      <trkpt lat="44.88757" lon="0.65314">
        <ele>149.1416016</ele>
        <time>2013-08-11T09:01:09Z</time>
      </trkpt>
      <trkpt lat="44.88746" lon="0.65331">
        <ele>150.1030273</ele>
        <time>2013-08-11T09:01:12Z</time>
      </trkpt>
      <trkpt lat="44.88736" lon="0.65351">
        <ele>148.6610107</ele>
        <time>2013-08-11T09:01:15Z</time>
      </trkpt>
      <trkpt lat="44.88728" lon="0.65363">
        <ele>147.699707</ele>
        <time>2013-08-11T09:01:17Z</time>
      </trkpt>
      <trkpt lat="44.88711" lon="0.65373">
        <ele>145.7770996</ele>
        <time>2013-08-11T09:01:21Z</time>
      </trkpt>
      <trkpt lat="44.88708" lon="0.65368">
        <ele>145.7770996</ele>
        <time>2013-08-11T09:01:22Z</time>
      </trkpt>
      <trkpt lat="44.88669" lon="0.65324">
        <ele>143.3736572</ele>
        <time>2013-08-11T09:01:30Z</time>
      </trkpt>
      <trkpt lat="44.88663" lon="0.65318">
        <ele>143.3736572</ele>
        <time>2013-08-11T09:01:31Z</time>
      </trkpt>
      <trkpt lat="44.88635" lon="0.65273">
        <ele>141.9317627</ele>
        <time>2013-08-11T09:01:37Z</time>
      </trkpt>
      <trkpt lat="44.8861" lon="0.65214">
        <ele>144.3352051</ele>
        <time>2013-08-11T09:01:44Z</time>
      </trkpt>
      <trkpt lat="44.88585" lon="0.65158">
        <ele>149.6223145</ele>
        <time>2013-08-11T09:01:51Z</time>
      </trkpt>
      <trkpt lat="44.88559" lon="0.65117">
        <ele>151.064209</ele>
        <time>2013-08-11T09:01:57Z</time>
      </trkpt>
      <trkpt lat="44.88529" lon="0.65058">
        <ele>147.2189941</ele>
        <time>2013-08-11T09:02:05Z</time>
      </trkpt>
      <trkpt lat="44.88513" lon="0.65022">
        <ele>143.8543701</ele>
        <time>2013-08-11T09:02:11Z</time>
      </trkpt>
      <trkpt lat="44.88506" lon="0.65008">
        <ele>141.9317627</ele>
        <time>2013-08-11T09:02:14Z</time>
      </trkpt>
      <trkpt lat="44.88492" lon="0.64981">
        <ele>141.9317627</ele>
        <time>2013-08-11T09:02:21Z</time>
      </trkpt>
      <trkpt lat="44.88483" lon="0.64959">
        <ele>143.8543701</ele>
        <time>2013-08-11T09:02:28Z</time>
      </trkpt>
      <trkpt lat="44.88474" lon="0.64932">
        <ele>144.3352051</ele>
        <time>2013-08-11T09:02:35Z</time>
      </trkpt>
      <trkpt lat="44.88465" lon="0.64912">
        <ele>144.8157959</ele>
        <time>2013-08-11T09:02:40Z</time>
      </trkpt>
      <trkpt lat="44.8846" lon="0.64882">
        <ele>143.3736572</ele>
        <time>2013-08-11T09:02:46Z</time>
      </trkpt>
      <trkpt lat="44.88458" lon="0.6485">
        <ele>142.8930664</ele>
        <time>2013-08-11T09:02:52Z</time>
      </trkpt>
      <trkpt lat="44.88464" lon="0.64814">
        <ele>141.4510498</ele>
        <time>2013-08-11T09:02:57Z</time>
      </trkpt>
      <trkpt lat="44.88471" lon="0.64754">
        <ele>137.1252441</ele>
        <time>2013-08-11T09:03:04Z</time>
      </trkpt>
      <trkpt lat="44.88472" lon="0.64737">
        <ele>136.1639404</ele>
        <time>2013-08-11T09:03:06Z</time>
      </trkpt>
      <trkpt lat="44.88469" lon="0.64689">
        <ele>135.2025146</ele>
        <time>2013-08-11T09:03:12Z</time>
      </trkpt>
      <trkpt lat="44.88463" lon="0.64653">
        <ele>133.2799072</ele>
        <time>2013-08-11T09:03:17Z</time>
      </trkpt>
      <trkpt lat="44.88459" lon="0.64638">
        <ele>133.760498</ele>
        <time>2013-08-11T09:03:19Z</time>
      </trkpt>
      <trkpt lat="44.88448" lon="0.6459">
        <ele>133.760498</ele>
        <time>2013-08-11T09:03:25Z</time>
      </trkpt>
      <trkpt lat="44.88439" lon="0.64541">
        <ele>135.2025146</ele>
        <time>2013-08-11T09:03:31Z</time>
      </trkpt>
      <trkpt lat="44.88438" lon="0.64512">
        <ele>134.7219238</ele>
        <time>2013-08-11T09:03:35Z</time>
      </trkpt>
      <trkpt lat="44.88435" lon="0.64492">
        <ele>135.2025146</ele>
        <time>2013-08-11T09:03:38Z</time>
      </trkpt>
      <trkpt lat="44.88429" lon="0.64469">
        <ele>137.605835</ele>
        <time>2013-08-11T09:03:42Z</time>
      </trkpt>
      <trkpt lat="44.88418" lon="0.64444">
        <ele>140.4898682</ele>
        <time>2013-08-11T09:03:47Z</time>
      </trkpt>
      <trkpt lat="44.884" lon="0.64393">
        <ele>140.970459</ele>
        <time>2013-08-11T09:03:56Z</time>
      </trkpt>
      <trkpt lat="44.88386" lon="0.64357">
        <ele>141.9317627</ele>
        <time>2013-08-11T09:04:02Z</time>
      </trkpt>
      <trkpt lat="44.88381" lon="0.64329">
        <ele>142.4124756</ele>
        <time>2013-08-11T09:04:07Z</time>
      </trkpt>
      <trkpt lat="44.88377" lon="0.64312">
        <ele>141.4510498</ele>
        <time>2013-08-11T09:04:10Z</time>
      </trkpt>
      <trkpt lat="44.88362" lon="0.64285">
        <ele>140.970459</ele>
        <time>2013-08-11T09:04:15Z</time>
      </trkpt>
      <trkpt lat="44.88352" lon="0.64264">
        <ele>140.970459</ele>
        <time>2013-08-11T09:04:19Z</time>
      </trkpt>
      <trkpt lat="44.88345" lon="0.64246">
        <ele>141.4510498</ele>
        <time>2013-08-11T09:04:23Z</time>
      </trkpt>
      <trkpt lat="44.88342" lon="0.64235">
        <ele>139.5284424</ele>
        <time>2013-08-11T09:04:27Z</time>
      </trkpt>
      <trkpt lat="44.8834" lon="0.64232">
        <ele>140.970459</ele>
        <time>2013-08-11T09:04:32Z</time>
      </trkpt>
      <trkpt lat="44.88335" lon="0.64233">
        <ele>142.4124756</ele>
        <time>2013-08-11T09:04:39Z</time>
      </trkpt>
      <trkpt lat="44.88334" lon="0.64236">
        <ele>143.3736572</ele>
        <time>2013-08-11T09:05:12Z</time>
      </trkpt>
      <trkpt lat="44.88334" lon="0.64234">
        <ele>143.8543701</ele>
        <time>2013-08-11T09:05:24Z</time>
      </trkpt>
      <trkpt lat="44.88334" lon="0.64235">
        <ele>144.3352051</ele>
        <time>2013-08-11T09:05:34Z</time>
      </trkpt>
      <trkpt lat="44.88336" lon="0.64234">
        <ele>143.3736572</ele>
        <time>2013-08-11T09:05:40Z</time>
      </trkpt>
      <trkpt lat="44.88337" lon="0.64234">
        <ele>143.3736572</ele>
        <time>2013-08-11T09:05:44Z</time>
      </trkpt>
      <trkpt lat="44.8835" lon="0.64232">
        <ele>141.4510498</ele>
        <time>2013-08-11T09:05:50Z</time>
      </trkpt>
      <trkpt lat="44.88379" lon="0.64225">
        <ele>138.0865479</ele>
        <time>2013-08-11T09:05:56Z</time>
      </trkpt>
      <trkpt lat="44.88384" lon="0.64224">
        <ele>137.1252441</ele>
        <time>2013-08-11T09:05:57Z</time>
      </trkpt>
      <trkpt lat="44.88402" lon="0.64224">
        <ele>135.2025146</ele>
        <time>2013-08-11T09:06:00Z</time>
      </trkpt>
      <trkpt lat="44.88424" lon="0.64212">
        <ele>133.760498</ele>
        <time>2013-08-11T09:06:05Z</time>
      </trkpt>
      <trkpt lat="44.88417" lon="0.64194">
        <ele>133.760498</ele>
        <time>2013-08-11T09:06:09Z</time>
      </trkpt>
      <trkpt lat="44.8841" lon="0.64184">
        <ele>133.2799072</ele>
        <time>2013-08-11T09:06:11Z</time>
      </trkpt>
      <trkpt lat="44.88392" lon="0.6414">
        <ele>133.2799072</ele>
        <time>2013-08-11T09:06:18Z</time>
      </trkpt>
      <trkpt lat="44.88377" lon="0.64098">
        <ele>136.1639404</ele>
        <time>2013-08-11T09:06:24Z</time>
      </trkpt>
      <trkpt lat="44.8836" lon="0.64056">
        <ele>135.6831055</ele>
        <time>2013-08-11T09:06:30Z</time>
      </trkpt>
      <trkpt lat="44.88344" lon="0.64006">
        <ele>136.1639404</ele>
        <time>2013-08-11T09:06:36Z</time>
      </trkpt>
      <trkpt lat="44.88331" lon="0.6397">
        <ele>135.6831055</ele>
        <time>2013-08-11T09:06:40Z</time>
      </trkpt>
      <trkpt lat="44.8831" lon="0.63941">
        <ele>133.2799072</ele>
        <time>2013-08-11T09:06:44Z</time>
      </trkpt>
      <trkpt lat="44.8829" lon="0.63901">
        <ele>133.760498</ele>
        <time>2013-08-11T09:06:50Z</time>
      </trkpt>
      <trkpt lat="44.88279" lon="0.63888">
        <ele>131.8378906</ele>
        <time>2013-08-11T09:06:53Z</time>
      </trkpt>
      <trkpt lat="44.88271" lon="0.63882">
        <ele>131.3572998</ele>
        <time>2013-08-11T09:06:55Z</time>
      </trkpt>
      <trkpt lat="44.88266" lon="0.63866">
        <ele>129.9152832</ele>
        <time>2013-08-11T09:06:59Z</time>
      </trkpt>
      <trkpt lat="44.88262" lon="0.63822">
        <ele>133.760498</ele>
        <time>2013-08-11T09:07:05Z</time>
      </trkpt>
      <trkpt lat="44.88257" lon="0.63797">
        <ele>133.2799072</ele>
        <time>2013-08-11T09:07:09Z</time>
      </trkpt>
      <trkpt lat="44.88257" lon="0.63785">
        <ele>130.876709</ele>
        <time>2013-08-11T09:07:11Z</time>
      </trkpt>
      <trkpt lat="44.88258" lon="0.63751">
        <ele>129.9152832</ele>
        <time>2013-08-11T09:07:17Z</time>
      </trkpt>
      <trkpt lat="44.8825" lon="0.63751">
        <ele>131.3572998</ele>
        <time>2013-08-11T09:07:22Z</time>
      </trkpt>
      <trkpt lat="44.88247" lon="0.63749">
        <ele>131.8378906</ele>
        <time>2013-08-11T09:07:24Z</time>
      </trkpt>
      <trkpt lat="44.88226" lon="0.63743">
        <ele>133.2799072</ele>
        <time>2013-08-11T09:07:32Z</time>
      </trkpt>
      <trkpt lat="44.88204" lon="0.63739">
        <ele>131.3572998</ele>
        <time>2013-08-11T09:07:38Z</time>
      </trkpt>
      <trkpt lat="44.88188" lon="0.63742">
        <ele>130.876709</ele>
        <time>2013-08-11T09:07:43Z</time>
      </trkpt>
      <trkpt lat="44.8817" lon="0.63749">
        <ele>130.3959961</ele>
        <time>2013-08-11T09:07:48Z</time>
      </trkpt>
      <trkpt lat="44.8816" lon="0.63753">
        <ele>129.9152832</ele>
        <time>2013-08-11T09:07:51Z</time>
      </trkpt>
      <trkpt lat="44.88144" lon="0.63759">
        <ele>132.7993164</ele>
        <time>2013-08-11T09:07:55Z</time>
      </trkpt>
      <trkpt lat="44.8812" lon="0.63764">
        <ele>133.760498</ele>
        <time>2013-08-11T09:08:01Z</time>
      </trkpt>
      <trkpt lat="44.88103" lon="0.63764">
        <ele>132.7993164</ele>
        <time>2013-08-11T09:08:07Z</time>
      </trkpt>
      <trkpt lat="44.88106" lon="0.63757">
        <ele>130.876709</ele>
        <time>2013-08-11T09:08:11Z</time>
      </trkpt>
      <trkpt lat="44.88113" lon="0.63738">
        <ele>129.9152832</ele>
        <time>2013-08-11T09:08:17Z</time>
      </trkpt>
      <trkpt lat="44.88121" lon="0.6372">
        <ele>128.4733887</ele>
        <time>2013-08-11T09:08:22Z</time>
      </trkpt>
      <trkpt lat="44.8813" lon="0.63697">
        <ele>127.0313721</ele>
        <time>2013-08-11T09:08:27Z</time>
      </trkpt>
      <trkpt lat="44.88138" lon="0.63677">
        <ele>127.9925537</ele>
        <time>2013-08-11T09:08:31Z</time>
      </trkpt>
      <trkpt lat="44.8814" lon="0.63668">
        <ele>127.5119629</ele>
        <time>2013-08-11T09:08:33Z</time>
      </trkpt>
      <trkpt lat="44.88152" lon="0.63656">
        <ele>125.1087646</ele>
        <time>2013-08-11T09:08:38Z</time>
      </trkpt>
      <trkpt lat="44.88156" lon="0.63655">
        <ele>125.1087646</ele>
        <time>2013-08-11T09:08:39Z</time>
      </trkpt>
      <trkpt lat="44.88184" lon="0.63647">
        <ele>124.6280518</ele>
        <time>2013-08-11T09:08:45Z</time>
      </trkpt>
      <trkpt lat="44.88189" lon="0.63646">
        <ele>125.1087646</ele>
        <time>2013-08-11T09:08:46Z</time>
      </trkpt>
      <trkpt lat="44.88223" lon="0.63646">
        <ele>126.5506592</ele>
        <time>2013-08-11T09:08:51Z</time>
      </trkpt>
      <trkpt lat="44.88258" lon="0.63645">
        <ele>125.5893555</ele>
        <time>2013-08-11T09:08:56Z</time>
      </trkpt>
      <trkpt lat="44.88287" lon="0.63637">
        <ele>124.1473389</ele>
        <time>2013-08-11T09:09:01Z</time>
      </trkpt>
      <trkpt lat="44.88303" lon="0.63634">
        <ele>123.666748</ele>
        <time>2013-08-11T09:09:04Z</time>
      </trkpt>
      <trkpt lat="44.88334" lon="0.63631">
        <ele>125.1087646</ele>
        <time>2013-08-11T09:09:10Z</time>
      </trkpt>
      <trkpt lat="44.88364" lon="0.63628">
        <ele>124.1473389</ele>
        <time>2013-08-11T09:09:15Z</time>
      </trkpt>
      <trkpt lat="44.88403" lon="0.63623">
        <ele>125.1087646</ele>
        <time>2013-08-11T09:09:21Z</time>
      </trkpt>
      <trkpt lat="44.88434" lon="0.63618">
        <ele>126.5506592</ele>
        <time>2013-08-11T09:09:26Z</time>
      </trkpt>
      <trkpt lat="44.88446" lon="0.63616">
        <ele>127.0313721</ele>
        <time>2013-08-11T09:09:28Z</time>
      </trkpt>
      <trkpt lat="44.88473" lon="0.63618">
        <ele>127.5119629</ele>
        <time>2013-08-11T09:09:33Z</time>
      </trkpt>
      <trkpt lat="44.88504" lon="0.63617">
        <ele>126.0699463</ele>
        <time>2013-08-11T09:09:38Z</time>
      </trkpt>
      <trkpt lat="44.8854" lon="0.63615">
        <ele>125.1087646</ele>
        <time>2013-08-11T09:09:44Z</time>
      </trkpt>
      <trkpt lat="44.88575" lon="0.63617">
        <ele>127.5119629</ele>
        <time>2013-08-11T09:09:50Z</time>
      </trkpt>
      <trkpt lat="44.88585" lon="0.63617">
        <ele>129.4346924</ele>
        <time>2013-08-11T09:09:52Z</time>
      </trkpt>
      <trkpt lat="44.88621" lon="0.63615">
        <ele>126.5506592</ele>
        <time>2013-08-11T09:09:58Z</time>
      </trkpt>
      <trkpt lat="44.88634" lon="0.63615">
        <ele>125.5893555</ele>
        <time>2013-08-11T09:10:00Z</time>
      </trkpt>
      <trkpt lat="44.88665" lon="0.63611">
        <ele>122.7054443</ele>
        <time>2013-08-11T09:10:05Z</time>
      </trkpt>
      <trkpt lat="44.88677" lon="0.63608">
        <ele>121.2635498</ele>
        <time>2013-08-11T09:10:07Z</time>
      </trkpt>
      <trkpt lat="44.887" lon="0.63595">
        <ele>119.3408203</ele>
        <time>2013-08-11T09:10:11Z</time>
      </trkpt>
      <trkpt lat="44.88706" lon="0.63584">
        <ele>118.8601074</ele>
        <time>2013-08-11T09:10:13Z</time>
      </trkpt>
      <trkpt lat="44.88729" lon="0.63549">
        <ele>120.7828369</ele>
        <time>2013-08-11T09:10:19Z</time>
      </trkpt>
      <trkpt lat="44.88734" lon="0.63546">
        <ele>120.302124</ele>
        <time>2013-08-11T09:10:20Z</time>
      </trkpt>
      <trkpt lat="44.88751" lon="0.63533">
        <ele>122.7054443</ele>
        <time>2013-08-11T09:10:23Z</time>
      </trkpt>
      <trkpt lat="44.88771" lon="0.6352">
        <ele>122.7054443</ele>
        <time>2013-08-11T09:10:27Z</time>
      </trkpt>
      <trkpt lat="44.88776" lon="0.63501">
        <ele>123.666748</ele>
        <time>2013-08-11T09:10:31Z</time>
      </trkpt>
      <trkpt lat="44.88768" lon="0.63482">
        <ele>124.6280518</ele>
        <time>2013-08-11T09:10:35Z</time>
      </trkpt>
      <trkpt lat="44.88765" lon="0.63478">
        <ele>124.6280518</ele>
        <time>2013-08-11T09:10:36Z</time>
      </trkpt>
      <trkpt lat="44.88749" lon="0.63455">
        <ele>126.5506592</ele>
        <time>2013-08-11T09:10:43Z</time>
      </trkpt>
      <trkpt lat="44.88738" lon="0.63442">
        <ele>127.9925537</ele>
        <time>2013-08-11T09:10:47Z</time>
      </trkpt>
      <trkpt lat="44.88718" lon="0.63425">
        <ele>128.4733887</ele>
        <time>2013-08-11T09:10:54Z</time>
      </trkpt>
      <trkpt lat="44.88712" lon="0.63421">
        <ele>127.9925537</ele>
        <time>2013-08-11T09:10:56Z</time>
      </trkpt>
      <trkpt lat="44.88703" lon="0.63415">
        <ele>127.0313721</ele>
        <time>2013-08-11T09:10:59Z</time>
      </trkpt>
      <trkpt lat="44.88687" lon="0.63405">
        <ele>126.5506592</ele>
        <time>2013-08-11T09:11:05Z</time>
      </trkpt>
      <trkpt lat="44.88669" lon="0.63396">
        <ele>124.6280518</ele>
        <time>2013-08-11T09:11:11Z</time>
      </trkpt>
      <trkpt lat="44.88649" lon="0.63385">
        <ele>126.0699463</ele>
        <time>2013-08-11T09:11:18Z</time>
      </trkpt>
      <trkpt lat="44.88636" lon="0.63378">
        <ele>125.5893555</ele>
        <time>2013-08-11T09:11:23Z</time>
      </trkpt>
      <trkpt lat="44.88626" lon="0.63363">
        <ele>125.1087646</ele>
        <time>2013-08-11T09:11:28Z</time>
      </trkpt>
      <trkpt lat="44.88617" lon="0.63345">
        <ele>128.4733887</ele>
        <time>2013-08-11T09:11:33Z</time>
      </trkpt>
      <trkpt lat="44.88605" lon="0.63315">
        <ele>131.3572998</ele>
        <time>2013-08-11T09:11:41Z</time>
      </trkpt>
      <trkpt lat="44.88597" lon="0.63283">
        <ele>131.8378906</ele>
        <time>2013-08-11T09:11:49Z</time>
      </trkpt>
      <trkpt lat="44.88596" lon="0.63258">
        <ele>128.9541016</ele>
        <time>2013-08-11T09:11:55Z</time>
      </trkpt>
      <trkpt lat="44.88597" lon="0.63238">
        <ele>127.9925537</ele>
        <time>2013-08-11T09:12:01Z</time>
      </trkpt>
      <trkpt lat="44.88601" lon="0.63214">
        <ele>128.9541016</ele>
        <time>2013-08-11T09:12:08Z</time>
      </trkpt>
      <trkpt lat="44.88607" lon="0.63189">
        <ele>130.3959961</ele>
        <time>2013-08-11T09:12:16Z</time>
      </trkpt>
      <trkpt lat="44.88611" lon="0.6317">
        <ele>132.7993164</ele>
        <time>2013-08-11T09:12:22Z</time>
      </trkpt>
      <trkpt lat="44.88616" lon="0.63147">
        <ele>133.2799072</ele>
        <time>2013-08-11T09:12:29Z</time>
      </trkpt>
      <trkpt lat="44.88621" lon="0.63125">
        <ele>132.7993164</ele>
        <time>2013-08-11T09:12:36Z</time>
      </trkpt>
      <trkpt lat="44.88633" lon="0.63108">
        <ele>130.876709</ele>
        <time>2013-08-11T09:12:41Z</time>
      </trkpt>
      <trkpt lat="44.88642" lon="0.63082">
        <ele>130.876709</ele>
        <time>2013-08-11T09:12:46Z</time>
      </trkpt>
      <trkpt lat="44.88642" lon="0.63075">
        <ele>130.3959961</ele>
        <time>2013-08-11T09:12:47Z</time>
      </trkpt>
      <trkpt lat="44.88634" lon="0.63035">
        <ele>126.5506592</ele>
        <time>2013-08-11T09:12:52Z</time>
      </trkpt>
      <trkpt lat="44.88632" lon="0.63026">
        <ele>126.0699463</ele>
        <time>2013-08-11T09:12:53Z</time>
      </trkpt>
      <trkpt lat="44.8863" lon="0.63007">
        <ele>126.0699463</ele>
        <time>2013-08-11T09:12:55Z</time>
      </trkpt>
      <trkpt lat="44.88622" lon="0.6298">
        <ele>125.1087646</ele>
        <time>2013-08-11T09:12:58Z</time>
      </trkpt>
      <trkpt lat="44.88604" lon="0.62957">
        <ele>124.6280518</ele>
        <time>2013-08-11T09:13:03Z</time>
      </trkpt>
      <trkpt lat="44.88584" lon="0.62941">
        <ele>124.6280518</ele>
        <time>2013-08-11T09:13:09Z</time>
      </trkpt>
      <trkpt lat="44.88565" lon="0.62923">
        <ele>127.0313721</ele>
        <time>2013-08-11T09:13:16Z</time>
      </trkpt>
      <trkpt lat="44.88551" lon="0.62906">
        <ele>127.5119629</ele>
        <time>2013-08-11T09:13:20Z</time>
      </trkpt>
      <trkpt lat="44.88539" lon="0.62892">
        <ele>127.5119629</ele>
        <time>2013-08-11T09:13:23Z</time>
      </trkpt>
      <trkpt lat="44.88512" lon="0.62855">
        <ele>127.5119629</ele>
        <time>2013-08-11T09:13:29Z</time>
      </trkpt>
      <trkpt lat="44.88496" lon="0.62826">
        <ele>129.9152832</ele>
        <time>2013-08-11T09:13:33Z</time>
      </trkpt>
      <trkpt lat="44.88489" lon="0.62811">
        <ele>130.3959961</ele>
        <time>2013-08-11T09:13:35Z</time>
      </trkpt>
      <trkpt lat="44.88481" lon="0.62799">
        <ele>129.9152832</ele>
        <time>2013-08-11T09:13:37Z</time>
      </trkpt>
      <trkpt lat="44.88471" lon="0.62775">
        <ele>129.4346924</ele>
        <time>2013-08-11T09:13:41Z</time>
      </trkpt>
      <trkpt lat="44.88459" lon="0.62751">
        <ele>127.9925537</ele>
        <time>2013-08-11T09:13:45Z</time>
      </trkpt>
      <trkpt lat="44.88452" lon="0.62739">
        <ele>126.5506592</ele>
        <time>2013-08-11T09:13:47Z</time>
      </trkpt>
      <trkpt lat="44.88435" lon="0.62699">
        <ele>127.5119629</ele>
        <time>2013-08-11T09:13:53Z</time>
      </trkpt>
      <trkpt lat="44.88431" lon="0.62685">
        <ele>128.4733887</ele>
        <time>2013-08-11T09:13:55Z</time>
      </trkpt>
      <trkpt lat="44.8841" lon="0.62647">
        <ele>125.1087646</ele>
        <time>2013-08-11T09:14:02Z</time>
      </trkpt>
      <trkpt lat="44.88382" lon="0.62616">
        <ele>120.7828369</ele>
        <time>2013-08-11T09:14:08Z</time>
      </trkpt>
      <trkpt lat="44.88373" lon="0.62606">
        <ele>120.302124</ele>
        <time>2013-08-11T09:14:10Z</time>
      </trkpt>
      <trkpt lat="44.88363" lon="0.62586">
        <ele>119.3408203</ele>
        <time>2013-08-11T09:14:13Z</time>
      </trkpt>
      <trkpt lat="44.88356" lon="0.62564">
        <ele>119.3408203</ele>
        <time>2013-08-11T09:14:17Z</time>
      </trkpt>
      <trkpt lat="44.88339" lon="0.62516">
        <ele>118.3793945</ele>
        <time>2013-08-11T09:14:25Z</time>
      </trkpt>
      <trkpt lat="44.88335" lon="0.62506">
        <ele>117.4182129</ele>
        <time>2013-08-11T09:14:27Z</time>
      </trkpt>
      <trkpt lat="44.8833" lon="0.62504">
        <ele>119.8214111</ele>
        <time>2013-08-11T09:14:34Z</time>
      </trkpt>
      <trkpt lat="44.88328" lon="0.62499">
        <ele>119.8214111</ele>
        <time>2013-08-11T09:14:39Z</time>
      </trkpt>
      <trkpt lat="44.88321" lon="0.62481">
        <ele>118.8601074</ele>
        <time>2013-08-11T09:14:44Z</time>
      </trkpt>
      <trkpt lat="44.88308" lon="0.62441">
        <ele>119.8214111</ele>
        <time>2013-08-11T09:14:51Z</time>
      </trkpt>
      <trkpt lat="44.88307" lon="0.62433">
        <ele>119.8214111</ele>
        <time>2013-08-11T09:14:52Z</time>
      </trkpt>
      <trkpt lat="44.88307" lon="0.62425">
        <ele>119.8214111</ele>
        <time>2013-08-11T09:14:53Z</time>
      </trkpt>
      <trkpt lat="44.88307" lon="0.62425">
        <ele>119.8214111</ele>
        <time>2013-08-11T09:14:53Z</time>
      </trkpt>
      <trkpt lat="44.88313" lon="0.62406">
        <ele>118.3793945</ele>
        <time>2013-08-11T09:14:56Z</time>
      </trkpt>
      <trkpt lat="44.88339" lon="0.62381">
        <ele>121.7441406</ele>
        <time>2013-08-11T09:15:01Z</time>
      </trkpt>
      <trkpt lat="44.88343" lon="0.62376">
        <ele>121.7441406</ele>
        <time>2013-08-11T09:15:02Z</time>
      </trkpt>
      <trkpt lat="44.88347" lon="0.62357">
        <ele>122.2247314</ele>
        <time>2013-08-11T09:15:07Z</time>
      </trkpt>
      <trkpt lat="44.88341" lon="0.62357">
        <ele>120.7828369</ele>
        <time>2013-08-11T09:15:09Z</time>
      </trkpt>
      <trkpt lat="44.88329" lon="0.62353">
        <ele>113.572998</ele>
        <time>2013-08-11T09:15:15Z</time>
      </trkpt>
      <trkpt lat="44.88315" lon="0.62345">
        <ele>112.1309814</ele>
        <time>2013-08-11T09:15:21Z</time>
      </trkpt>
      <trkpt lat="44.88308" lon="0.62338">
        <ele>114.5341797</ele>
        <time>2013-08-11T09:15:24Z</time>
      </trkpt>
      <trkpt lat="44.88294" lon="0.62338">
        <ele>117.8988037</ele>
        <time>2013-08-11T09:15:28Z</time>
      </trkpt>
      <trkpt lat="44.8828" lon="0.62342">
        <ele>117.8988037</ele>
        <time>2013-08-11T09:15:33Z</time>
      </trkpt>
      <trkpt lat="44.88275" lon="0.62342">
        <ele>119.8214111</ele>
        <time>2013-08-11T09:15:35Z</time>
      </trkpt>
      <trkpt lat="44.88264" lon="0.62344">
        <ele>118.8601074</ele>
        <time>2013-08-11T09:15:40Z</time>
      </trkpt>
      <trkpt lat="44.88243" lon="0.62353">
        <ele>117.8988037</ele>
        <time>2013-08-11T09:15:46Z</time>
      </trkpt>
      <trkpt lat="44.88227" lon="0.62358">
        <ele>116.9375</ele>
        <time>2013-08-11T09:15:51Z</time>
      </trkpt>
      <trkpt lat="44.88214" lon="0.62364">
        <ele>115.9761963</ele>
        <time>2013-08-11T09:15:56Z</time>
      </trkpt>
      <trkpt lat="44.88187" lon="0.6236">
        <ele>114.0535889</ele>
        <time>2013-08-11T09:16:05Z</time>
      </trkpt>
      <trkpt lat="44.8817" lon="0.62355">
        <ele>113.572998</ele>
        <time>2013-08-11T09:16:11Z</time>
      </trkpt>
      <trkpt lat="44.88151" lon="0.62349">
        <ele>111.1695557</ele>
        <time>2013-08-11T09:16:16Z</time>
      </trkpt>
      <trkpt lat="44.88135" lon="0.62339">
        <ele>108.7662354</ele>
        <time>2013-08-11T09:16:21Z</time>
      </trkpt>
      <trkpt lat="44.88116" lon="0.62329">
        <ele>109.7276611</ele>
        <time>2013-08-11T09:16:27Z</time>
      </trkpt>
      <trkpt lat="44.881" lon="0.6232">
        <ele>108.7662354</ele>
        <time>2013-08-11T09:16:32Z</time>
      </trkpt>
      <trkpt lat="44.88078" lon="0.62314">
        <ele>105.4017334</ele>
        <time>2013-08-11T09:16:39Z</time>
      </trkpt>
      <trkpt lat="44.88063" lon="0.62312">
        <ele>105.8824463</ele>
        <time>2013-08-11T09:16:43Z</time>
      </trkpt>
      <trkpt lat="44.8805" lon="0.62304">
        <ele>103.9597168</ele>
        <time>2013-08-11T09:16:48Z</time>
      </trkpt>
      <trkpt lat="44.88038" lon="0.62293">
        <ele>102.0371094</ele>
        <time>2013-08-11T09:16:53Z</time>
      </trkpt>
      <trkpt lat="44.88025" lon="0.62283">
        <ele>104.9210205</ele>
        <time>2013-08-11T09:16:58Z</time>
      </trkpt>
      <trkpt lat="44.88012" lon="0.6227">
        <ele>105.8824463</ele>
        <time>2013-08-11T09:17:03Z</time>
      </trkpt>
      <trkpt lat="44.88003" lon="0.62258">
        <ele>108.7662354</ele>
        <time>2013-08-11T09:17:07Z</time>
      </trkpt>
      <trkpt lat="44.87992" lon="0.62247">
        <ele>115.4956055</ele>
        <time>2013-08-11T09:17:11Z</time>
      </trkpt>
      <trkpt lat="44.87971" lon="0.62226">
        <ele>122.2247314</ele>
        <time>2013-08-11T09:17:18Z</time>
      </trkpt>
      <trkpt lat="44.87955" lon="0.6221">
        <ele>122.7054443</ele>
        <time>2013-08-11T09:17:23Z</time>
      </trkpt>
      <trkpt lat="44.87937" lon="0.62193">
        <ele>125.1087646</ele>
        <time>2013-08-11T09:17:29Z</time>
      </trkpt>
      <trkpt lat="44.87924" lon="0.62178">
        <ele>128.9541016</ele>
        <time>2013-08-11T09:17:34Z</time>
      </trkpt>
      <trkpt lat="44.87906" lon="0.62158">
        <ele>128.9541016</ele>
        <time>2013-08-11T09:17:41Z</time>
      </trkpt>
      <trkpt lat="44.87889" lon="0.62143">
        <ele>129.9152832</ele>
        <time>2013-08-11T09:17:47Z</time>
      </trkpt>
      <trkpt lat="44.87872" lon="0.62126">
        <ele>131.3572998</ele>
        <time>2013-08-11T09:17:53Z</time>
      </trkpt>
      <trkpt lat="44.87856" lon="0.62108">
        <ele>130.3959961</ele>
        <time>2013-08-11T09:17:59Z</time>
      </trkpt>
      <trkpt lat="44.87843" lon="0.62093">
        <ele>132.3186035</ele>
        <time>2013-08-11T09:18:04Z</time>
      </trkpt>
      <trkpt lat="44.87828" lon="0.62078">
        <ele>136.6446533</ele>
        <time>2013-08-11T09:18:09Z</time>
      </trkpt>
      <trkpt lat="44.87809" lon="0.62055">
        <ele>140.970459</ele>
        <time>2013-08-11T09:18:15Z</time>
      </trkpt>
      <trkpt lat="44.8779" lon="0.62039">
        <ele>140.0091553</ele>
        <time>2013-08-11T09:18:22Z</time>
      </trkpt>
      <trkpt lat="44.87779" lon="0.62022">
        <ele>138.5672607</ele>
        <time>2013-08-11T09:18:28Z</time>
      </trkpt>
      <trkpt lat="44.87768" lon="0.62009">
        <ele>136.1639404</ele>
        <time>2013-08-11T09:18:32Z</time>
      </trkpt>
      <trkpt lat="44.87756" lon="0.61989">
        <ele>135.6831055</ele>
        <time>2013-08-11T09:18:38Z</time>
      </trkpt>
      <trkpt lat="44.87744" lon="0.6197">
        <ele>140.4898682</ele>
        <time>2013-08-11T09:18:43Z</time>
      </trkpt>
      <trkpt lat="44.87729" lon="0.61954">
        <ele>135.2025146</ele>
        <time>2013-08-11T09:18:49Z</time>
      </trkpt>
      <trkpt lat="44.87712" lon="0.6194">
        <ele>134.7219238</ele>
        <time>2013-08-11T09:18:55Z</time>
      </trkpt>
      <trkpt lat="44.87703" lon="0.61926">
        <ele>135.6831055</ele>
        <time>2013-08-11T09:19:00Z</time>
      </trkpt>
      <trkpt lat="44.87696" lon="0.61912">
        <ele>136.6446533</ele>
        <time>2013-08-11T09:19:05Z</time>
      </trkpt>
      <trkpt lat="44.87692" lon="0.61901">
        <ele>137.1252441</ele>
        <time>2013-08-11T09:19:09Z</time>
      </trkpt>
      <trkpt lat="44.87697" lon="0.61884">
        <ele>136.1639404</ele>
        <time>2013-08-11T09:19:15Z</time>
      </trkpt>
      <trkpt lat="44.87701" lon="0.61876">
        <ele>133.2799072</ele>
        <time>2013-08-11T09:19:18Z</time>
      </trkpt>
      <trkpt lat="44.87711" lon="0.61856">
        <ele>135.2025146</ele>
        <time>2013-08-11T09:19:24Z</time>
      </trkpt>
      <trkpt lat="44.8772" lon="0.61834">
        <ele>137.1252441</ele>
        <time>2013-08-11T09:19:30Z</time>
      </trkpt>
      <trkpt lat="44.87722" lon="0.61829">
        <ele>137.1252441</ele>
        <time>2013-08-11T09:19:31Z</time>
      </trkpt>
      <trkpt lat="44.87722" lon="0.61829">
        <ele>137.1252441</ele>
        <time>2013-08-11T09:19:31Z</time>
      </trkpt>
      <trkpt lat="44.87726" lon="0.61809">
        <ele>138.5672607</ele>
        <time>2013-08-11T09:19:36Z</time>
      </trkpt>
      <trkpt lat="44.87732" lon="0.61789">
        <ele>138.0865479</ele>
        <time>2013-08-11T09:19:41Z</time>
      </trkpt>
      <trkpt lat="44.87734" lon="0.61772">
        <ele>137.1252441</ele>
        <time>2013-08-11T09:19:45Z</time>
      </trkpt>
      <trkpt lat="44.87743" lon="0.61767">
        <ele>138.0865479</ele>
        <time>2013-08-11T09:19:50Z</time>
      </trkpt>
      <trkpt lat="44.87752" lon="0.61751">
        <ele>138.0865479</ele>
        <time>2013-08-11T09:19:55Z</time>
      </trkpt>
      <trkpt lat="44.87756" lon="0.61741">
        <ele>137.1252441</ele>
        <time>2013-08-11T09:19:57Z</time>
      </trkpt>
      <trkpt lat="44.8777" lon="0.61708">
        <ele>136.6446533</ele>
        <time>2013-08-11T09:20:03Z</time>
      </trkpt>
      <trkpt lat="44.87802" lon="0.61674">
        <ele>136.6446533</ele>
        <time>2013-08-11T09:20:09Z</time>
      </trkpt>
      <trkpt lat="44.87814" lon="0.61627">
        <ele>137.1252441</ele>
        <time>2013-08-11T09:20:14Z</time>
      </trkpt>
      <trkpt lat="44.87813" lon="0.61602">
        <ele>137.605835</ele>
        <time>2013-08-11T09:20:17Z</time>
      </trkpt>
      <trkpt lat="44.87817" lon="0.61593">
        <ele>136.1639404</ele>
        <time>2013-08-11T09:20:19Z</time>
      </trkpt>
      <trkpt lat="44.87832" lon="0.61584">
        <ele>134.7219238</ele>
        <time>2013-08-11T09:20:23Z</time>
      </trkpt>
      <trkpt lat="44.8785" lon="0.61574">
        <ele>134.7219238</ele>
        <time>2013-08-11T09:20:26Z</time>
      </trkpt>
      <trkpt lat="44.87895" lon="0.61558">
        <ele>135.6831055</ele>
        <time>2013-08-11T09:20:33Z</time>
      </trkpt>
      <trkpt lat="44.87914" lon="0.61556">
        <ele>133.760498</ele>
        <time>2013-08-11T09:20:37Z</time>
      </trkpt>
      <trkpt lat="44.87938" lon="0.61581">
        <ele>130.876709</ele>
        <time>2013-08-11T09:20:43Z</time>
      </trkpt>
      <trkpt lat="44.87958" lon="0.61603">
        <ele>133.2799072</ele>
        <time>2013-08-11T09:20:47Z</time>
      </trkpt>
      <trkpt lat="44.87969" lon="0.61604">
        <ele>132.7993164</ele>
        <time>2013-08-11T09:20:49Z</time>
      </trkpt>
      <trkpt lat="44.88002" lon="0.61595">
        <ele>131.3572998</ele>
        <time>2013-08-11T09:20:54Z</time>
      </trkpt>
      <trkpt lat="44.88012" lon="0.61588">
        <ele>130.876709</ele>
        <time>2013-08-11T09:20:56Z</time>
      </trkpt>
      <trkpt lat="44.88022" lon="0.61551">
        <ele>126.0699463</ele>
        <time>2013-08-11T09:21:01Z</time>
      </trkpt>
      <trkpt lat="44.88022" lon="0.61528">
        <ele>125.5893555</ele>
        <time>2013-08-11T09:21:03Z</time>
      </trkpt>
      <trkpt lat="44.88028" lon="0.61471">
        <ele>123.1861572</ele>
        <time>2013-08-11T09:21:08Z</time>
      </trkpt>
      <trkpt lat="44.88033" lon="0.61457">
        <ele>119.3408203</ele>
        <time>2013-08-11T09:21:10Z</time>
      </trkpt>
      <trkpt lat="44.88051" lon="0.61438">
        <ele>109.7276611</ele>
        <time>2013-08-11T09:21:14Z</time>
      </trkpt>
      <trkpt lat="44.88058" lon="0.61433">
        <ele>108.7662354</ele>
        <time>2013-08-11T09:21:15Z</time>
      </trkpt>
      <trkpt lat="44.88072" lon="0.61424">
        <ele>108.2856445</ele>
        <time>2013-08-11T09:21:17Z</time>
      </trkpt>
      <trkpt lat="44.88094" lon="0.61402">
        <ele>107.8050537</ele>
        <time>2013-08-11T09:21:21Z</time>
      </trkpt>
      <trkpt lat="44.88108" lon="0.61372">
        <ele>107.3243408</ele>
        <time>2013-08-11T09:21:25Z</time>
      </trkpt>
      <trkpt lat="44.88114" lon="0.61347">
        <ele>108.7662354</ele>
        <time>2013-08-11T09:21:28Z</time>
      </trkpt>
      <trkpt lat="44.88114" lon="0.61306">
        <ele>111.6502686</ele>
        <time>2013-08-11T09:21:33Z</time>
      </trkpt>
      <trkpt lat="44.88114" lon="0.61299">
        <ele>112.1309814</ele>
        <time>2013-08-11T09:21:34Z</time>
      </trkpt>
      <trkpt lat="44.88111" lon="0.61266">
        <ele>116.4567871</ele>
        <time>2013-08-11T09:21:39Z</time>
      </trkpt>
      <trkpt lat="44.8811" lon="0.61237">
        <ele>115.9761963</ele>
        <time>2013-08-11T09:21:44Z</time>
      </trkpt>
      <trkpt lat="44.88112" lon="0.61227">
        <ele>113.572998</ele>
        <time>2013-08-11T09:21:46Z</time>
      </trkpt>
      <trkpt lat="44.88114" lon="0.61205">
        <ele>114.0535889</ele>
        <time>2013-08-11T09:21:50Z</time>
      </trkpt>
      <trkpt lat="44.88118" lon="0.61165">
        <ele>115.4956055</ele>
        <time>2013-08-11T09:21:57Z</time>
      </trkpt>
      <trkpt lat="44.88119" lon="0.61153">
        <ele>119.8214111</ele>
        <time>2013-08-11T09:21:59Z</time>
      </trkpt>
      <trkpt lat="44.88119" lon="0.61127">
        <ele>126.5506592</ele>
        <time>2013-08-11T09:22:03Z</time>
      </trkpt>
      <trkpt lat="44.88123" lon="0.61106">
        <ele>126.0699463</ele>
        <time>2013-08-11T09:22:07Z</time>
      </trkpt>
      <trkpt lat="44.88126" lon="0.61087">
        <ele>126.0699463</ele>
        <time>2013-08-11T09:22:10Z</time>
      </trkpt>
      <trkpt lat="44.88126" lon="0.61067">
        <ele>125.1087646</ele>
        <time>2013-08-11T09:22:13Z</time>
      </trkpt>
      <trkpt lat="44.88127" lon="0.61049">
        <ele>122.7054443</ele>
        <time>2013-08-11T09:22:16Z</time>
      </trkpt>
      <trkpt lat="44.88131" lon="0.61028">
        <ele>121.7441406</ele>
        <time>2013-08-11T09:22:19Z</time>
      </trkpt>
      <trkpt lat="44.88136" lon="0.61007">
        <ele>120.7828369</ele>
        <time>2013-08-11T09:22:22Z</time>
      </trkpt>
      <trkpt lat="44.8814" lon="0.60974">
        <ele>118.8601074</ele>
        <time>2013-08-11T09:22:26Z</time>
      </trkpt>
      <trkpt lat="44.88142" lon="0.60966">
        <ele>118.3793945</ele>
        <time>2013-08-11T09:22:27Z</time>
      </trkpt>
      <trkpt lat="44.88142" lon="0.60966">
        <ele>118.3793945</ele>
        <time>2013-08-11T09:22:27Z</time>
      </trkpt>
      <trkpt lat="44.88141" lon="0.60951">
        <ele>117.8988037</ele>
        <time>2013-08-11T09:22:30Z</time>
      </trkpt>
      <trkpt lat="44.88131" lon="0.6095">
        <ele>117.4182129</ele>
        <time>2013-08-11T09:22:33Z</time>
      </trkpt>
      <trkpt lat="44.88106" lon="0.60961">
        <ele>116.9375</ele>
        <time>2013-08-11T09:22:40Z</time>
      </trkpt>
      <trkpt lat="44.88083" lon="0.60969">
        <ele>116.4567871</ele>
        <time>2013-08-11T09:22:47Z</time>
      </trkpt>
      <trkpt lat="44.88061" lon="0.60978">
        <ele>118.3793945</ele>
        <time>2013-08-11T09:22:54Z</time>
      </trkpt>
      <trkpt lat="44.88035" lon="0.60988">
        <ele>119.3408203</ele>
        <time>2013-08-11T09:23:02Z</time>
      </trkpt>
      <trkpt lat="44.88006" lon="0.60999">
        <ele>118.8601074</ele>
        <time>2013-08-11T09:23:09Z</time>
      </trkpt>
      <trkpt lat="44.87968" lon="0.61013">
        <ele>118.8601074</ele>
        <time>2013-08-11T09:23:18Z</time>
      </trkpt>
      <trkpt lat="44.87941" lon="0.61023">
        <ele>123.1861572</ele>
        <time>2013-08-11T09:23:26Z</time>
      </trkpt>
      <trkpt lat="44.87924" lon="0.61032">
        <ele>124.6280518</ele>
        <time>2013-08-11T09:23:32Z</time>
      </trkpt>
      <trkpt lat="44.87906" lon="0.6104">
        <ele>124.6280518</ele>
        <time>2013-08-11T09:23:37Z</time>
      </trkpt>
      <trkpt lat="44.87885" lon="0.61046">
        <ele>123.1861572</ele>
        <time>2013-08-11T09:23:41Z</time>
      </trkpt>
      <trkpt lat="44.87858" lon="0.61054">
        <ele>119.8214111</ele>
        <time>2013-08-11T09:23:45Z</time>
      </trkpt>
      <trkpt lat="44.87815" lon="0.61071">
        <ele>122.2247314</ele>
        <time>2013-08-11T09:23:51Z</time>
      </trkpt>
      <trkpt lat="44.87783" lon="0.61085">
        <ele>125.5893555</ele>
        <time>2013-08-11T09:23:57Z</time>
      </trkpt>
      <trkpt lat="44.87752" lon="0.61099">
        <ele>125.1087646</ele>
        <time>2013-08-11T09:24:03Z</time>
      </trkpt>
      <trkpt lat="44.87725" lon="0.6111">
        <ele>125.1087646</ele>
        <time>2013-08-11T09:24:08Z</time>
      </trkpt>
      <trkpt lat="44.87716" lon="0.61113">
        <ele>125.5893555</ele>
        <time>2013-08-11T09:24:10Z</time>
      </trkpt>
      <trkpt lat="44.87705" lon="0.61118">
        <ele>126.0699463</ele>
        <time>2013-08-11T09:24:13Z</time>
      </trkpt>
      <trkpt lat="44.87691" lon="0.61114">
        <ele>126.5506592</ele>
        <time>2013-08-11T09:24:17Z</time>
      </trkpt>
      <trkpt lat="44.87681" lon="0.61085">
        <ele>124.1473389</ele>
        <time>2013-08-11T09:24:21Z</time>
      </trkpt>
      <trkpt lat="44.87677" lon="0.61051">
        <ele>121.7441406</ele>
        <time>2013-08-11T09:24:25Z</time>
      </trkpt>
      <trkpt lat="44.87678" lon="0.61042">
        <ele>121.2635498</ele>
        <time>2013-08-11T09:24:26Z</time>
      </trkpt>
      <trkpt lat="44.87678" lon="0.60962">
        <ele>120.302124</ele>
        <time>2013-08-11T09:24:34Z</time>
      </trkpt>
      <trkpt lat="44.87673" lon="0.60911">
        <ele>117.4182129</ele>
        <time>2013-08-11T09:24:39Z</time>
      </trkpt>
      <trkpt lat="44.87666" lon="0.60823">
        <ele>115.0148926</ele>
        <time>2013-08-11T09:24:48Z</time>
      </trkpt>
      <trkpt lat="44.87665" lon="0.60796">
        <ele>115.0148926</ele>
        <time>2013-08-11T09:24:51Z</time>
      </trkpt>
      <trkpt lat="44.87667" lon="0.60733">
        <ele>114.5341797</ele>
        <time>2013-08-11T09:24:58Z</time>
      </trkpt>
      <trkpt lat="44.87665" lon="0.60684">
        <ele>115.9761963</ele>
        <time>2013-08-11T09:25:04Z</time>
      </trkpt>
      <trkpt lat="44.87658" lon="0.60621">
        <ele>115.9761963</ele>
        <time>2013-08-11T09:25:12Z</time>
      </trkpt>
      <trkpt lat="44.87651" lon="0.60587">
        <ele>114.5341797</ele>
        <time>2013-08-11T09:25:16Z</time>
      </trkpt>
      <trkpt lat="44.87645" lon="0.60541">
        <ele>113.0922852</ele>
        <time>2013-08-11T09:25:21Z</time>
      </trkpt>
      <trkpt lat="44.87641" lon="0.60521">
        <ele>112.6115723</ele>
        <time>2013-08-11T09:25:23Z</time>
      </trkpt>
      <trkpt lat="44.87634" lon="0.60491">
        <ele>112.1309814</ele>
        <time>2013-08-11T09:25:26Z</time>
      </trkpt>
      <trkpt lat="44.87626" lon="0.60461">
        <ele>111.6502686</ele>
        <time>2013-08-11T09:25:29Z</time>
      </trkpt>
      <trkpt lat="44.87599" lon="0.60398">
        <ele>114.0535889</ele>
        <time>2013-08-11T09:25:36Z</time>
      </trkpt>
      <trkpt lat="44.87575" lon="0.6035">
        <ele>112.6115723</ele>
        <time>2013-08-11T09:25:42Z</time>
      </trkpt>
      <trkpt lat="44.87552" lon="0.60306">
        <ele>109.7276611</ele>
        <time>2013-08-11T09:25:48Z</time>
      </trkpt>
      <trkpt lat="44.8753" lon="0.6026">
        <ele>111.1695557</ele>
        <time>2013-08-11T09:25:55Z</time>
      </trkpt>
      <trkpt lat="44.8751" lon="0.60214">
        <ele>114.5341797</ele>
        <time>2013-08-11T09:26:03Z</time>
      </trkpt>
      <trkpt lat="44.87506" lon="0.60202">
        <ele>115.0148926</ele>
        <time>2013-08-11T09:26:05Z</time>
      </trkpt>
      <trkpt lat="44.875" lon="0.60173">
        <ele>114.0535889</ele>
        <time>2013-08-11T09:26:09Z</time>
      </trkpt>
      <trkpt lat="44.87478" lon="0.60109">
        <ele>111.6502686</ele>
        <time>2013-08-11T09:26:17Z</time>
      </trkpt>
      <trkpt lat="44.87452" lon="0.60039">
        <ele>108.7662354</ele>
        <time>2013-08-11T09:26:25Z</time>
      </trkpt>
      <trkpt lat="44.8745" lon="0.6003">
        <ele>108.7662354</ele>
        <time>2013-08-11T09:26:26Z</time>
      </trkpt>
      <trkpt lat="44.87436" lon="0.5995">
        <ele>106.8436279</ele>
        <time>2013-08-11T09:26:34Z</time>
      </trkpt>
      <trkpt lat="44.87421" lon="0.59847">
        <ele>106.3630371</ele>
        <time>2013-08-11T09:26:44Z</time>
      </trkpt>
      <trkpt lat="44.87408" lon="0.59807">
        <ele>107.3243408</ele>
        <time>2013-08-11T09:26:49Z</time>
      </trkpt>
      <trkpt lat="44.87378" lon="0.59761">
        <ele>108.2856445</ele>
        <time>2013-08-11T09:26:57Z</time>
      </trkpt>
      <trkpt lat="44.87369" lon="0.59751">
        <ele>108.2856445</ele>
        <time>2013-08-11T09:26:59Z</time>
      </trkpt>
      <trkpt lat="44.87363" lon="0.59725">
        <ele>109.2469482</ele>
        <time>2013-08-11T09:27:03Z</time>
      </trkpt>
      <trkpt lat="44.8736" lon="0.59675">
        <ele>110.6888428</ele>
        <time>2013-08-11T09:27:11Z</time>
      </trkpt>
      <trkpt lat="44.8736" lon="0.59663">
        <ele>110.6888428</ele>
        <time>2013-08-11T09:27:13Z</time>
      </trkpt>
      <trkpt lat="44.87361" lon="0.59637">
        <ele>112.1309814</ele>
        <time>2013-08-11T09:27:18Z</time>
      </trkpt>
      <trkpt lat="44.8736" lon="0.59602">
        <ele>115.4956055</ele>
        <time>2013-08-11T09:27:25Z</time>
      </trkpt>
      <trkpt lat="44.87364" lon="0.59582">
        <ele>115.4956055</ele>
        <time>2013-08-11T09:27:30Z</time>
      </trkpt>
      <trkpt lat="44.87363" lon="0.59573">
        <ele>115.9761963</ele>
        <time>2013-08-11T09:27:35Z</time>
      </trkpt>
      <trkpt lat="44.87358" lon="0.59554">
        <ele>115.9761963</ele>
        <time>2013-08-11T09:27:40Z</time>
      </trkpt>
      <trkpt lat="44.87357" lon="0.59531">
        <ele>114.0535889</ele>
        <time>2013-08-11T09:27:46Z</time>
      </trkpt>
      <trkpt lat="44.87359" lon="0.59506">
        <ele>109.2469482</ele>
        <time>2013-08-11T09:27:52Z</time>
      </trkpt>
      <trkpt lat="44.87355" lon="0.5948">
        <ele>108.2856445</ele>
        <time>2013-08-11T09:27:58Z</time>
      </trkpt>
      <trkpt lat="44.87352" lon="0.59454">
        <ele>112.1309814</ele>
        <time>2013-08-11T09:28:04Z</time>
      </trkpt>
      <trkpt lat="44.87348" lon="0.59432">
        <ele>118.3793945</ele>
        <time>2013-08-11T09:28:09Z</time>
      </trkpt>
      <trkpt lat="44.87345" lon="0.59404">
        <ele>124.1473389</ele>
        <time>2013-08-11T09:28:15Z</time>
      </trkpt>
      <trkpt lat="44.87343" lon="0.59395">
        <ele>124.6280518</ele>
        <time>2013-08-11T09:28:17Z</time>
      </trkpt>
      <trkpt lat="44.8734" lon="0.5938">
        <ele>124.1473389</ele>
        <time>2013-08-11T09:28:20Z</time>
      </trkpt>
      <trkpt lat="44.87336" lon="0.59348">
        <ele>125.5893555</ele>
        <time>2013-08-11T09:28:25Z</time>
      </trkpt>
      <trkpt lat="44.87336" lon="0.59334">
        <ele>126.5506592</ele>
        <time>2013-08-11T09:28:27Z</time>
      </trkpt>
      <trkpt lat="44.87331" lon="0.59314">
        <ele>127.0313721</ele>
        <time>2013-08-11T09:28:30Z</time>
      </trkpt>
      <trkpt lat="44.87331" lon="0.59282">
        <ele>131.3572998</ele>
        <time>2013-08-11T09:28:35Z</time>
      </trkpt>
      <trkpt lat="44.8733" lon="0.59277">
        <ele>131.3572998</ele>
        <time>2013-08-11T09:28:36Z</time>
      </trkpt>
      <trkpt lat="44.87327" lon="0.59248">
        <ele>127.9925537</ele>
        <time>2013-08-11T09:28:41Z</time>
      </trkpt>
      <trkpt lat="44.87321" lon="0.59216">
        <ele>120.7828369</ele>
        <time>2013-08-11T09:28:47Z</time>
      </trkpt>
      <trkpt lat="44.87317" lon="0.59201">
        <ele>120.302124</ele>
        <time>2013-08-11T09:28:50Z</time>
      </trkpt>
      <trkpt lat="44.87309" lon="0.59168">
        <ele>116.4567871</ele>
        <time>2013-08-11T09:28:56Z</time>
      </trkpt>
      <trkpt lat="44.87297" lon="0.59142">
        <ele>120.302124</ele>
        <time>2013-08-11T09:29:01Z</time>
      </trkpt>
      <trkpt lat="44.87296" lon="0.59137">
        <ele>120.7828369</ele>
        <time>2013-08-11T09:29:02Z</time>
      </trkpt>
      <trkpt lat="44.87288" lon="0.59113">
        <ele>120.7828369</ele>
        <time>2013-08-11T09:29:08Z</time>
      </trkpt>
      <trkpt lat="44.87281" lon="0.59097">
        <ele>121.7441406</ele>
        <time>2013-08-11T09:29:12Z</time>
      </trkpt>
      <trkpt lat="44.87274" lon="0.59074">
        <ele>126.0699463</ele>
        <time>2013-08-11T09:29:17Z</time>
      </trkpt>
      <trkpt lat="44.87264" lon="0.59048">
        <ele>136.1639404</ele>
        <time>2013-08-11T09:29:22Z</time>
      </trkpt>
      <trkpt lat="44.87254" lon="0.59017">
        <ele>137.605835</ele>
        <time>2013-08-11T09:29:28Z</time>
      </trkpt>
      <trkpt lat="44.87241" lon="0.58996">
        <ele>140.970459</ele>
        <time>2013-08-11T09:29:32Z</time>
      </trkpt>
      <trkpt lat="44.87224" lon="0.58965">
        <ele>141.9317627</ele>
        <time>2013-08-11T09:29:38Z</time>
      </trkpt>
      <trkpt lat="44.87218" lon="0.58954">
        <ele>140.0091553</ele>
        <time>2013-08-11T09:29:40Z</time>
      </trkpt>
      <trkpt lat="44.87214" lon="0.58937">
        <ele>137.605835</ele>
        <time>2013-08-11T09:29:43Z</time>
      </trkpt>
      <trkpt lat="44.87207" lon="0.58915">
        <ele>134.7219238</ele>
        <time>2013-08-11T09:29:47Z</time>
      </trkpt>
      <trkpt lat="44.872" lon="0.58877">
        <ele>131.8378906</ele>
        <time>2013-08-11T09:29:53Z</time>
      </trkpt>
      <trkpt lat="44.87201" lon="0.58853">
        <ele>128.9541016</ele>
        <time>2013-08-11T09:29:57Z</time>
      </trkpt>
      <trkpt lat="44.87207" lon="0.5881">
        <ele>120.302124</ele>
        <time>2013-08-11T09:30:02Z</time>
      </trkpt>
      <trkpt lat="44.87209" lon="0.58771">
        <ele>117.8988037</ele>
        <time>2013-08-11T09:30:06Z</time>
      </trkpt>
      <trkpt lat="44.87205" lon="0.58736">
        <ele>116.4567871</ele>
        <time>2013-08-11T09:30:10Z</time>
      </trkpt>
      <trkpt lat="44.87199" lon="0.58717">
        <ele>119.3408203</ele>
        <time>2013-08-11T09:30:15Z</time>
      </trkpt>
      <trkpt lat="44.87199" lon="0.5871">
        <ele>117.4182129</ele>
        <time>2013-08-11T09:30:17Z</time>
      </trkpt>
      <trkpt lat="44.87201" lon="0.58701">
        <ele>117.4182129</ele>
        <time>2013-08-11T09:30:21Z</time>
      </trkpt>
      <trkpt lat="44.87194" lon="0.58688">
        <ele>115.9761963</ele>
        <time>2013-08-11T09:30:26Z</time>
      </trkpt>
      <trkpt lat="44.87179" lon="0.58677">
        <ele>114.5341797</ele>
        <time>2013-08-11T09:30:30Z</time>
      </trkpt>
      <trkpt lat="44.87148" lon="0.58657">
        <ele>110.208252</ele>
        <time>2013-08-11T09:30:36Z</time>
      </trkpt>
      <trkpt lat="44.87137" lon="0.58651">
        <ele>108.7662354</ele>
        <time>2013-08-11T09:30:38Z</time>
      </trkpt>
      <trkpt lat="44.87099" lon="0.58625">
        <ele>108.2856445</ele>
        <time>2013-08-11T09:30:44Z</time>
      </trkpt>
      <trkpt lat="44.87046" lon="0.58589">
        <ele>108.7662354</ele>
        <time>2013-08-11T09:30:52Z</time>
      </trkpt>
      <trkpt lat="44.87025" lon="0.58576">
        <ele>107.8050537</ele>
        <time>2013-08-11T09:30:55Z</time>
      </trkpt>
      <trkpt lat="44.86994" lon="0.58569">
        <ele>105.8824463</ele>
        <time>2013-08-11T09:30:59Z</time>
      </trkpt>
      <trkpt lat="44.86935" lon="0.58582">
        <ele>104.4404297</ele>
        <time>2013-08-11T09:31:06Z</time>
      </trkpt>
      <trkpt lat="44.86879" lon="0.58602">
        <ele>103.4790039</ele>
        <time>2013-08-11T09:31:13Z</time>
      </trkpt>
      <trkpt lat="44.86871" lon="0.58605">
        <ele>103.9597168</ele>
        <time>2013-08-11T09:31:14Z</time>
      </trkpt>
      <trkpt lat="44.86857" lon="0.58608">
        <ele>104.4404297</ele>
        <time>2013-08-11T09:31:16Z</time>
      </trkpt>
      <trkpt lat="44.86846" lon="0.58595">
        <ele>105.8824463</ele>
        <time>2013-08-11T09:31:18Z</time>
      </trkpt>
      <trkpt lat="44.86845" lon="0.58578">
        <ele>105.8824463</ele>
        <time>2013-08-11T09:31:20Z</time>
      </trkpt>
      <trkpt lat="44.86846" lon="0.58529">
        <ele>108.2856445</ele>
        <time>2013-08-11T09:31:27Z</time>
      </trkpt>
      <trkpt lat="44.86846" lon="0.58489">
        <ele>110.208252</ele>
        <time>2013-08-11T09:31:34Z</time>
      </trkpt>
      <trkpt lat="44.86844" lon="0.58435">
        <ele>112.6115723</ele>
        <time>2013-08-11T09:31:44Z</time>
      </trkpt>
      <trkpt lat="44.86842" lon="0.58399">
        <ele>115.4956055</ele>
        <time>2013-08-11T09:31:51Z</time>
      </trkpt>
      <trkpt lat="44.8684" lon="0.58361">
        <ele>117.8988037</ele>
        <time>2013-08-11T09:31:59Z</time>
      </trkpt>
      <trkpt lat="44.86839" lon="0.58313">
        <ele>120.302124</ele>
        <time>2013-08-11T09:32:09Z</time>
      </trkpt>
      <trkpt lat="44.86838" lon="0.58252">
        <ele>121.7441406</ele>
        <time>2013-08-11T09:32:21Z</time>
      </trkpt>
      <trkpt lat="44.86835" lon="0.58212">
        <ele>121.2635498</ele>
        <time>2013-08-11T09:32:28Z</time>
      </trkpt>
      <trkpt lat="44.86828" lon="0.58159">
        <ele>121.2635498</ele>
        <time>2013-08-11T09:32:36Z</time>
      </trkpt>
      <trkpt lat="44.86815" lon="0.58094">
        <ele>120.302124</ele>
        <time>2013-08-11T09:32:45Z</time>
      </trkpt>
      <trkpt lat="44.868" lon="0.58021">
        <ele>120.302124</ele>
        <time>2013-08-11T09:32:55Z</time>
      </trkpt>
      <trkpt lat="44.86798" lon="0.58014">
        <ele>120.302124</ele>
        <time>2013-08-11T09:32:56Z</time>
      </trkpt>
      <trkpt lat="44.86801" lon="0.57988">
        <ele>120.302124</ele>
        <time>2013-08-11T09:33:00Z</time>
      </trkpt>
      <trkpt lat="44.86813" lon="0.57934">
        <ele>121.2635498</ele>
        <time>2013-08-11T09:33:10Z</time>
      </trkpt>
      <trkpt lat="44.86821" lon="0.57896">
        <ele>123.1861572</ele>
        <time>2013-08-11T09:33:19Z</time>
      </trkpt>
      <trkpt lat="44.86829" lon="0.57865">
        <ele>123.1861572</ele>
        <time>2013-08-11T09:33:27Z</time>
      </trkpt>
      <trkpt lat="44.86836" lon="0.57833">
        <ele>123.666748</ele>
        <time>2013-08-11T09:33:36Z</time>
      </trkpt>
      <trkpt lat="44.86844" lon="0.57798">
        <ele>125.5893555</ele>
        <time>2013-08-11T09:33:47Z</time>
      </trkpt>
      <trkpt lat="44.86851" lon="0.57764">
        <ele>126.5506592</ele>
        <time>2013-08-11T09:33:58Z</time>
      </trkpt>
      <trkpt lat="44.86859" lon="0.57733">
        <ele>127.9925537</ele>
        <time>2013-08-11T09:34:08Z</time>
      </trkpt>
      <trkpt lat="44.86859" lon="0.5773">
        <ele>127.9925537</ele>
        <time>2013-08-11T09:34:09Z</time>
      </trkpt>
      <trkpt lat="44.86853" lon="0.57717">
        <ele>129.4346924</ele>
        <time>2013-08-11T09:34:14Z</time>
      </trkpt>
      <trkpt lat="44.86838" lon="0.57696">
        <ele>129.4346924</ele>
        <time>2013-08-11T09:34:21Z</time>
      </trkpt>
      <trkpt lat="44.86812" lon="0.57665">
        <ele>129.9152832</ele>
        <time>2013-08-11T09:34:30Z</time>
      </trkpt>
      <trkpt lat="44.8678" lon="0.57621">
        <ele>131.3572998</ele>
        <time>2013-08-11T09:34:41Z</time>
      </trkpt>
      <trkpt lat="44.86777" lon="0.57616">
        <ele>131.3572998</ele>
        <time>2013-08-11T09:34:42Z</time>
      </trkpt>
      <trkpt lat="44.86765" lon="0.57589">
        <ele>131.3572998</ele>
        <time>2013-08-11T09:34:48Z</time>
      </trkpt>
      <trkpt lat="44.86764" lon="0.57579">
        <ele>131.3572998</ele>
        <time>2013-08-11T09:34:50Z</time>
      </trkpt>
      <trkpt lat="44.86767" lon="0.57562">
        <ele>131.3572998</ele>
        <time>2013-08-11T09:34:55Z</time>
      </trkpt>
      <trkpt lat="44.86768" lon="0.5756">
        <ele>131.8378906</ele>
        <time>2013-08-11T09:35:02Z</time>
      </trkpt>
      <trkpt lat="44.86767" lon="0.5756">
        <ele>131.3572998</ele>
        <time>2013-08-11T09:35:10Z</time>
      </trkpt>
      <trkpt lat="44.86767" lon="0.57561">
        <ele>131.8378906</ele>
        <time>2013-08-11T09:35:20Z</time>
      </trkpt>
      <trkpt lat="44.86767" lon="0.5756">
        <ele>131.8378906</ele>
        <time>2013-08-11T09:35:27Z</time>
      </trkpt>
      <trkpt lat="44.8677" lon="0.57544">
        <ele>131.3572998</ele>
        <time>2013-08-11T09:35:33Z</time>
      </trkpt>
      <trkpt lat="44.86777" lon="0.57515">
        <ele>129.4346924</ele>
        <time>2013-08-11T09:35:38Z</time>
      </trkpt>
      <trkpt lat="44.86788" lon="0.57463">
        <ele>126.5506592</ele>
        <time>2013-08-11T09:35:44Z</time>
      </trkpt>
      <trkpt lat="44.86794" lon="0.57435">
        <ele>123.666748</ele>
        <time>2013-08-11T09:35:47Z</time>
      </trkpt>
      <trkpt lat="44.868" lon="0.57414">
        <ele>122.2247314</ele>
        <time>2013-08-11T09:35:49Z</time>
      </trkpt>
      <trkpt lat="44.86807" lon="0.57392">
        <ele>119.3408203</ele>
        <time>2013-08-11T09:35:51Z</time>
      </trkpt>
      <trkpt lat="44.86812" lon="0.57346">
        <ele>115.9761963</ele>
        <time>2013-08-11T09:35:55Z</time>
      </trkpt>
      <trkpt lat="44.86799" lon="0.57326">
        <ele>113.0922852</ele>
        <time>2013-08-11T09:35:59Z</time>
      </trkpt>
      <trkpt lat="44.86794" lon="0.57325">
        <ele>113.572998</ele>
        <time>2013-08-11T09:36:00Z</time>
      </trkpt>
      <trkpt lat="44.86752" lon="0.57317">
        <ele>114.5341797</ele>
        <time>2013-08-11T09:36:08Z</time>
      </trkpt>
      <trkpt lat="44.86728" lon="0.5731">
        <ele>114.5341797</ele>
        <time>2013-08-11T09:36:13Z</time>
      </trkpt>
      <trkpt lat="44.86719" lon="0.5729">
        <ele>114.0535889</ele>
        <time>2013-08-11T09:36:17Z</time>
      </trkpt>
      <trkpt lat="44.86722" lon="0.57284">
        <ele>114.5341797</ele>
        <time>2013-08-11T09:36:20Z</time>
      </trkpt>
      <trkpt lat="44.86723" lon="0.57283">
        <ele>114.0535889</ele>
        <time>2013-08-11T09:36:21Z</time>
      </trkpt>
      <trkpt lat="44.86729" lon="0.57281">
        <ele>115.4956055</ele>
        <time>2013-08-11T09:36:24Z</time>
      </trkpt>
      <trkpt lat="44.86739" lon="0.57261">
        <ele>112.6115723</ele>
        <time>2013-08-11T09:36:29Z</time>
      </trkpt>
      <trkpt lat="44.86745" lon="0.57239">
        <ele>110.208252</ele>
        <time>2013-08-11T09:36:33Z</time>
      </trkpt>
      <trkpt lat="44.86739" lon="0.57215">
        <ele>109.2469482</ele>
        <time>2013-08-11T09:36:38Z</time>
      </trkpt>
      <trkpt lat="44.86734" lon="0.57203">
        <ele>110.208252</ele>
        <time>2013-08-11T09:36:40Z</time>
      </trkpt>
      <trkpt lat="44.86719" lon="0.57157">
        <ele>116.4567871</ele>
        <time>2013-08-11T09:36:46Z</time>
      </trkpt>
      <trkpt lat="44.86712" lon="0.57135">
        <ele>114.5341797</ele>
        <time>2013-08-11T09:36:49Z</time>
      </trkpt>
      <trkpt lat="44.86697" lon="0.57085">
        <ele>110.6888428</ele>
        <time>2013-08-11T09:36:54Z</time>
      </trkpt>
      <trkpt lat="44.86693" lon="0.57077">
        <ele>109.7276611</ele>
        <time>2013-08-11T09:36:55Z</time>
      </trkpt>
      <trkpt lat="44.86698" lon="0.5706">
        <ele>107.8050537</ele>
        <time>2013-08-11T09:36:59Z</time>
      </trkpt>
      <trkpt lat="44.86702" lon="0.57058">
        <ele>108.2856445</ele>
        <time>2013-08-11T09:37:00Z</time>
      </trkpt>
      <trkpt lat="44.86709" lon="0.57056">
        <ele>109.7276611</ele>
        <time>2013-08-11T09:37:02Z</time>
      </trkpt>
      <trkpt lat="44.86746" lon="0.57055">
        <ele>113.572998</ele>
        <time>2013-08-11T09:37:09Z</time>
      </trkpt>
      <trkpt lat="44.86757" lon="0.57058">
        <ele>115.0148926</ele>
        <time>2013-08-11T09:37:11Z</time>
      </trkpt>
      <trkpt lat="44.86787" lon="0.57057">
        <ele>113.572998</ele>
        <time>2013-08-11T09:37:16Z</time>
      </trkpt>
      <trkpt lat="44.86792" lon="0.57057">
        <ele>112.1309814</ele>
        <time>2013-08-11T09:37:17Z</time>
      </trkpt>
      <trkpt lat="44.86816" lon="0.57063">
        <ele>109.2469482</ele>
        <time>2013-08-11T09:37:22Z</time>
      </trkpt>
      <trkpt lat="44.86826" lon="0.57068">
        <ele>109.7276611</ele>
        <time>2013-08-11T09:37:24Z</time>
      </trkpt>
      <trkpt lat="44.86835" lon="0.57071">
        <ele>111.1695557</ele>
        <time>2013-08-11T09:37:26Z</time>
      </trkpt>
      <trkpt lat="44.86854" lon="0.5707">
        <ele>110.6888428</ele>
        <time>2013-08-11T09:37:30Z</time>
      </trkpt>
      <trkpt lat="44.86876" lon="0.57068">
        <ele>109.2469482</ele>
        <time>2013-08-11T09:37:34Z</time>
      </trkpt>
      <trkpt lat="44.86908" lon="0.57059">
        <ele>110.208252</ele>
        <time>2013-08-11T09:37:40Z</time>
      </trkpt>
      <trkpt lat="44.86942" lon="0.57056">
        <ele>111.1695557</ele>
        <time>2013-08-11T09:37:46Z</time>
      </trkpt>
      <trkpt lat="44.86962" lon="0.57052">
        <ele>109.2469482</ele>
        <time>2013-08-11T09:37:50Z</time>
      </trkpt>
      <trkpt lat="44.86999" lon="0.57041">
        <ele>104.9210205</ele>
        <time>2013-08-11T09:37:57Z</time>
      </trkpt>
      <trkpt lat="44.87006" lon="0.57025">
        <ele>102.998291</ele>
        <time>2013-08-11T09:38:01Z</time>
      </trkpt>
      <trkpt lat="44.86988" lon="0.56972">
        <ele>99.6337891</ele>
        <time>2013-08-11T09:38:10Z</time>
      </trkpt>
      <trkpt lat="44.86972" lon="0.56931">
        <ele>98.1918945</ele>
        <time>2013-08-11T09:38:16Z</time>
      </trkpt>
      <trkpt lat="44.86958" lon="0.56896">
        <ele>98.6724854</ele>
        <time>2013-08-11T09:38:21Z</time>
      </trkpt>
      <trkpt lat="44.86951" lon="0.56876">
        <ele>98.1918945</ele>
        <time>2013-08-11T09:38:24Z</time>
      </trkpt>
      <trkpt lat="44.86935" lon="0.56851">
        <ele>94.8271484</ele>
        <time>2013-08-11T09:38:28Z</time>
      </trkpt>
      <trkpt lat="44.86925" lon="0.56834">
        <ele>94.8271484</ele>
        <time>2013-08-11T09:38:31Z</time>
      </trkpt>
      <trkpt lat="44.86911" lon="0.56812">
        <ele>96.2692871</ele>
        <time>2013-08-11T09:38:35Z</time>
      </trkpt>
      <trkpt lat="44.86893" lon="0.56776">
        <ele>103.9597168</ele>
        <time>2013-08-11T09:38:42Z</time>
      </trkpt>
      <trkpt lat="44.8689" lon="0.56771">
        <ele>103.9597168</ele>
        <time>2013-08-11T09:38:43Z</time>
      </trkpt>
      <trkpt lat="44.8687" lon="0.5674">
        <ele>105.8824463</ele>
        <time>2013-08-11T09:38:49Z</time>
      </trkpt>
      <trkpt lat="44.86846" lon="0.56706">
        <ele>104.9210205</ele>
        <time>2013-08-11T09:38:56Z</time>
      </trkpt>
      <trkpt lat="44.86819" lon="0.56668">
        <ele>104.4404297</ele>
        <time>2013-08-11T09:39:04Z</time>
      </trkpt>
      <trkpt lat="44.86801" lon="0.5664">
        <ele>101.0756836</ele>
        <time>2013-08-11T09:39:11Z</time>
      </trkpt>
      <trkpt lat="44.86785" lon="0.56612">
        <ele>99.6337891</ele>
        <time>2013-08-11T09:39:18Z</time>
      </trkpt>
      <trkpt lat="44.86766" lon="0.56587">
        <ele>98.6724854</ele>
        <time>2013-08-11T09:39:24Z</time>
      </trkpt>
      <trkpt lat="44.86757" lon="0.56571">
        <ele>97.7111816</ele>
        <time>2013-08-11T09:39:27Z</time>
      </trkpt>
      <trkpt lat="44.86756" lon="0.56548">
        <ele>95.7884521</ele>
        <time>2013-08-11T09:39:31Z</time>
      </trkpt>
      <trkpt lat="44.86769" lon="0.5654">
        <ele>96.2692871</ele>
        <time>2013-08-11T09:39:35Z</time>
      </trkpt>
      <trkpt lat="44.86783" lon="0.5653">
        <ele>96.2692871</ele>
        <time>2013-08-11T09:39:40Z</time>
      </trkpt>
      <trkpt lat="44.86786" lon="0.56529">
        <ele>96.2692871</ele>
        <time>2013-08-11T09:39:41Z</time>
      </trkpt>
      <trkpt lat="44.86798" lon="0.56518">
        <ele>97.7111816</ele>
        <time>2013-08-11T09:39:46Z</time>
      </trkpt>
      <trkpt lat="44.86799" lon="0.56503">
        <ele>97.2304688</ele>
        <time>2013-08-11T09:39:51Z</time>
      </trkpt>
      <trkpt lat="44.86806" lon="0.56496">
        <ele>97.2304688</ele>
        <time>2013-08-11T09:39:54Z</time>
      </trkpt>
      <trkpt lat="44.86817" lon="0.56484">
        <ele>97.2304688</ele>
        <time>2013-08-11T09:39:58Z</time>
      </trkpt>
      <trkpt lat="44.86834" lon="0.56457">
        <ele>95.7884521</ele>
        <time>2013-08-11T09:40:04Z</time>
      </trkpt>
      <trkpt lat="44.86854" lon="0.56423">
        <ele>94.8271484</ele>
        <time>2013-08-11T09:40:11Z</time>
      </trkpt>
      <trkpt lat="44.86875" lon="0.56386">
        <ele>92.4239502</ele>
        <time>2013-08-11T09:40:17Z</time>
      </trkpt>
      <trkpt lat="44.86894" lon="0.56353">
        <ele>90.5013428</ele>
        <time>2013-08-11T09:40:22Z</time>
      </trkpt>
      <trkpt lat="44.86899" lon="0.56343">
        <ele>89.539917</ele>
        <time>2013-08-11T09:40:24Z</time>
      </trkpt>
      <trkpt lat="44.86906" lon="0.56327">
        <ele>91.4625244</ele>
        <time>2013-08-11T09:40:30Z</time>
      </trkpt>
      <trkpt lat="44.86907" lon="0.56326">
        <ele>94.8271484</ele>
        <time>2013-08-11T09:40:32Z</time>
      </trkpt>
      <trkpt lat="44.86912" lon="0.56315">
        <ele>93.8658447</ele>
        <time>2013-08-11T09:40:37Z</time>
      </trkpt>
      <trkpt lat="44.8692" lon="0.56309">
        <ele>94.8271484</ele>
        <time>2013-08-11T09:40:40Z</time>
      </trkpt>
      <trkpt lat="44.86925" lon="0.56303">
        <ele>95.7884521</ele>
        <time>2013-08-11T09:40:42Z</time>
      </trkpt>
      <trkpt lat="44.86935" lon="0.56272">
        <ele>95.3077393</ele>
        <time>2013-08-11T09:40:46Z</time>
      </trkpt>
      <trkpt lat="44.86945" lon="0.56245">
        <ele>95.7884521</ele>
        <time>2013-08-11T09:40:49Z</time>
      </trkpt>
      <trkpt lat="44.8698" lon="0.56193">
        <ele>95.3077393</ele>
        <time>2013-08-11T09:40:56Z</time>
      </trkpt>
      <trkpt lat="44.86998" lon="0.56167">
        <ele>94.3465576</ele>
        <time>2013-08-11T09:40:59Z</time>
      </trkpt>
      <trkpt lat="44.87018" lon="0.56148">
        <ele>95.7884521</ele>
        <time>2013-08-11T09:41:03Z</time>
      </trkpt>
      <trkpt lat="44.87032" lon="0.5612">
        <ele>95.3077393</ele>
        <time>2013-08-11T09:41:08Z</time>
      </trkpt>
      <trkpt lat="44.87038" lon="0.56089">
        <ele>93.3851318</ele>
        <time>2013-08-11T09:41:13Z</time>
      </trkpt>
      <trkpt lat="44.87038" lon="0.56079">
        <ele>93.3851318</ele>
        <time>2013-08-11T09:41:14Z</time>
      </trkpt>
      <trkpt lat="44.87037" lon="0.56064">
        <ele>92.4239502</ele>
        <time>2013-08-11T09:41:16Z</time>
      </trkpt>
      <trkpt lat="44.87049" lon="0.56053">
        <ele>90.9819336</ele>
        <time>2013-08-11T09:41:20Z</time>
      </trkpt>
      <trkpt lat="44.87084" lon="0.56045">
        <ele>88.0980225</ele>
        <time>2013-08-11T09:41:24Z</time>
      </trkpt>
      <trkpt lat="44.87113" lon="0.56038">
        <ele>84.2526855</ele>
        <time>2013-08-11T09:41:28Z</time>
      </trkpt>
      <trkpt lat="44.87121" lon="0.56036">
        <ele>82.810791</ele>
        <time>2013-08-11T09:41:30Z</time>
      </trkpt>
      <trkpt lat="44.87135" lon="0.56035">
        <ele>83.2913818</ele>
        <time>2013-08-11T09:41:35Z</time>
      </trkpt>
      <trkpt lat="44.87137" lon="0.56027">
        <ele>83.7719727</ele>
        <time>2013-08-11T09:41:37Z</time>
      </trkpt>
      <trkpt lat="44.87138" lon="0.56017">
        <ele>83.7719727</ele>
        <time>2013-08-11T09:41:39Z</time>
      </trkpt>
      <trkpt lat="44.87151" lon="0.56004">
        <ele>81.8493652</ele>
        <time>2013-08-11T09:41:43Z</time>
      </trkpt>
      <trkpt lat="44.87177" lon="0.55989">
        <ele>80.8881836</ele>
        <time>2013-08-11T09:41:48Z</time>
      </trkpt>
      <trkpt lat="44.87213" lon="0.55964">
        <ele>81.3687744</ele>
        <time>2013-08-11T09:41:56Z</time>
      </trkpt>
      <trkpt lat="44.87218" lon="0.55961">
        <ele>81.3687744</ele>
        <time>2013-08-11T09:41:57Z</time>
      </trkpt>
      <trkpt lat="44.87235" lon="0.55953">
        <ele>81.8493652</ele>
        <time>2013-08-11T09:42:01Z</time>
      </trkpt>
      <trkpt lat="44.87235" lon="0.55953">
        <ele>81.8493652</ele>
        <time>2013-08-11T09:42:01Z</time>
      </trkpt>
      <trkpt lat="44.87244" lon="0.55948">
        <ele>81.8493652</ele>
        <time>2013-08-11T09:42:03Z</time>
      </trkpt>
      <trkpt lat="44.87263" lon="0.55946">
        <ele>83.7719727</ele>
        <time>2013-08-11T09:42:08Z</time>
      </trkpt>
      <trkpt lat="44.87281" lon="0.55944">
        <ele>87.1365967</ele>
        <time>2013-08-11T09:42:16Z</time>
      </trkpt>
      <trkpt lat="44.87295" lon="0.55938">
        <ele>88.5787354</ele>
        <time>2013-08-11T09:42:22Z</time>
      </trkpt>
      <trkpt lat="44.87315" lon="0.55935">
        <ele>89.0593262</ele>
        <time>2013-08-11T09:42:29Z</time>
      </trkpt>
      <trkpt lat="44.87341" lon="0.5594">
        <ele>90.0206299</ele>
        <time>2013-08-11T09:42:37Z</time>
      </trkpt>
      <trkpt lat="44.87352" lon="0.55939">
        <ele>90.5013428</ele>
        <time>2013-08-11T09:42:40Z</time>
      </trkpt>
      <trkpt lat="44.87359" lon="0.55924">
        <ele>90.9819336</ele>
        <time>2013-08-11T09:42:45Z</time>
      </trkpt>
      <trkpt lat="44.87359" lon="0.55909">
        <ele>91.4625244</ele>
        <time>2013-08-11T09:42:48Z</time>
      </trkpt>
      <trkpt lat="44.87377" lon="0.55887">
        <ele>90.5013428</ele>
        <time>2013-08-11T09:42:54Z</time>
      </trkpt>
      <trkpt lat="44.87388" lon="0.5587">
        <ele>89.539917</ele>
        <time>2013-08-11T09:42:57Z</time>
      </trkpt>
      <trkpt lat="44.87403" lon="0.55856">
        <ele>90.9819336</ele>
        <time>2013-08-11T09:43:01Z</time>
      </trkpt>
      <trkpt lat="44.87409" lon="0.55839">
        <ele>91.9432373</ele>
        <time>2013-08-11T09:43:05Z</time>
      </trkpt>
      <trkpt lat="44.87406" lon="0.55815">
        <ele>96.7498779</ele>
        <time>2013-08-11T09:43:11Z</time>
      </trkpt>
      <trkpt lat="44.87403" lon="0.55803">
        <ele>99.1530762</ele>
        <time>2013-08-11T09:43:14Z</time>
      </trkpt>
      <trkpt lat="44.87407" lon="0.55794">
        <ele>101.0756836</ele>
        <time>2013-08-11T09:43:18Z</time>
      </trkpt>
      <trkpt lat="44.87419" lon="0.55789">
        <ele>103.4790039</ele>
        <time>2013-08-11T09:43:23Z</time>
      </trkpt>
      <trkpt lat="44.87429" lon="0.55789">
        <ele>105.8824463</ele>
        <time>2013-08-11T09:43:26Z</time>
      </trkpt>
      <trkpt lat="44.8745" lon="0.55782">
        <ele>106.8436279</ele>
        <time>2013-08-11T09:43:32Z</time>
      </trkpt>
      <trkpt lat="44.87465" lon="0.55777">
        <ele>104.9210205</ele>
        <time>2013-08-11T09:43:36Z</time>
      </trkpt>
      <trkpt lat="44.8748" lon="0.55785">
        <ele>104.9210205</ele>
        <time>2013-08-11T09:43:40Z</time>
      </trkpt>
      <trkpt lat="44.87485" lon="0.55784">
        <ele>103.9597168</ele>
        <time>2013-08-11T09:43:41Z</time>
      </trkpt>
      <trkpt lat="44.87497" lon="0.55766">
        <ele>106.8436279</ele>
        <time>2013-08-11T09:43:46Z</time>
      </trkpt>
      <trkpt lat="44.8751" lon="0.55737">
        <ele>102.998291</ele>
        <time>2013-08-11T09:43:53Z</time>
      </trkpt>
      <trkpt lat="44.87522" lon="0.55713">
        <ele>100.114502</ele>
        <time>2013-08-11T09:43:59Z</time>
      </trkpt>
      <trkpt lat="44.87534" lon="0.55699">
        <ele>100.5950928</ele>
        <time>2013-08-11T09:44:04Z</time>
      </trkpt>
      <trkpt lat="44.87539" lon="0.55693">
        <ele>101.0756836</ele>
        <time>2013-08-11T09:44:07Z</time>
      </trkpt>
      <trkpt lat="44.87547" lon="0.557">
        <ele>102.5177002</ele>
        <time>2013-08-11T09:44:11Z</time>
      </trkpt>
      <trkpt lat="44.87571" lon="0.55729">
        <ele>101.5563965</ele>
        <time>2013-08-11T09:44:18Z</time>
      </trkpt>
      <trkpt lat="44.87575" lon="0.55734">
        <ele>101.5563965</ele>
        <time>2013-08-11T09:44:19Z</time>
      </trkpt>
      <trkpt lat="44.87582" lon="0.55741">
        <ele>101.5563965</ele>
        <time>2013-08-11T09:44:21Z</time>
      </trkpt>
      <trkpt lat="44.87592" lon="0.5575">
        <ele>102.0371094</ele>
        <time>2013-08-11T09:44:24Z</time>
      </trkpt>
      <trkpt lat="44.87607" lon="0.55757">
        <ele>102.0371094</ele>
        <time>2013-08-11T09:44:29Z</time>
      </trkpt>
      <trkpt lat="44.87621" lon="0.55744">
        <ele>101.5563965</ele>
        <time>2013-08-11T09:44:34Z</time>
      </trkpt>
      <trkpt lat="44.87637" lon="0.55722">
        <ele>100.114502</ele>
        <time>2013-08-11T09:44:41Z</time>
      </trkpt>
      <trkpt lat="44.87643" lon="0.55713">
        <ele>100.5950928</ele>
        <time>2013-08-11T09:44:43Z</time>
      </trkpt>
      <trkpt lat="44.8768" lon="0.55701">
        <ele>102.998291</ele>
        <time>2013-08-11T09:44:47Z</time>
      </trkpt>
      <trkpt lat="44.87704" lon="0.55697">
        <ele>102.5177002</ele>
        <time>2013-08-11T09:44:51Z</time>
      </trkpt>
      <trkpt lat="44.87712" lon="0.55702">
        <ele>103.9597168</ele>
        <time>2013-08-11T09:44:55Z</time>
      </trkpt>
      <trkpt lat="44.87714" lon="0.55702">
        <ele>104.9210205</ele>
        <time>2013-08-11T09:44:56Z</time>
      </trkpt>
      <trkpt lat="44.87731" lon="0.55711">
        <ele>104.4404297</ele>
        <time>2013-08-11T09:45:03Z</time>
      </trkpt>
      <trkpt lat="44.87736" lon="0.55714">
        <ele>104.9210205</ele>
        <time>2013-08-11T09:45:06Z</time>
      </trkpt>
      <trkpt lat="44.87752" lon="0.55713">
        <ele>105.8824463</ele>
        <time>2013-08-11T09:45:13Z</time>
      </trkpt>
      <trkpt lat="44.87764" lon="0.55703">
        <ele>107.3243408</ele>
        <time>2013-08-11T09:45:20Z</time>
      </trkpt>
      <trkpt lat="44.87774" lon="0.55701">
        <ele>109.7276611</ele>
        <time>2013-08-11T09:45:25Z</time>
      </trkpt>
      <trkpt lat="44.87788" lon="0.55697">
        <ele>112.6115723</ele>
        <time>2013-08-11T09:45:31Z</time>
      </trkpt>
      <trkpt lat="44.87799" lon="0.55695">
        <ele>114.5341797</ele>
        <time>2013-08-11T09:45:36Z</time>
      </trkpt>
      <trkpt lat="44.8781" lon="0.55697">
        <ele>116.4567871</ele>
        <time>2013-08-11T09:45:43Z</time>
      </trkpt>
      <trkpt lat="44.87822" lon="0.55697">
        <ele>117.8988037</ele>
        <time>2013-08-11T09:45:48Z</time>
      </trkpt>
      <trkpt lat="44.87828" lon="0.55683">
        <ele>118.8601074</ele>
        <time>2013-08-11T09:45:53Z</time>
      </trkpt>
      <trkpt lat="44.87832" lon="0.55652">
        <ele>115.4956055</ele>
        <time>2013-08-11T09:45:59Z</time>
      </trkpt>
      <trkpt lat="44.87834" lon="0.556">
        <ele>111.6502686</ele>
        <time>2013-08-11T09:46:07Z</time>
      </trkpt>
      <trkpt lat="44.87836" lon="0.55537">
        <ele>108.7662354</ele>
        <time>2013-08-11T09:46:15Z</time>
      </trkpt>
      <trkpt lat="44.87837" lon="0.55483">
        <ele>107.8050537</ele>
        <time>2013-08-11T09:46:22Z</time>
      </trkpt>
      <trkpt lat="44.87836" lon="0.55469">
        <ele>107.8050537</ele>
        <time>2013-08-11T09:46:24Z</time>
      </trkpt>
      <trkpt lat="44.87836" lon="0.55469">
        <ele>107.8050537</ele>
        <time>2013-08-11T09:46:24Z</time>
      </trkpt>
      <trkpt lat="44.87836" lon="0.55428">
        <ele>105.8824463</ele>
        <time>2013-08-11T09:46:30Z</time>
      </trkpt>
      <trkpt lat="44.87834" lon="0.55383">
        <ele>105.4017334</ele>
        <time>2013-08-11T09:46:37Z</time>
      </trkpt>
      <trkpt lat="44.87833" lon="0.55364">
        <ele>105.8824463</ele>
        <time>2013-08-11T09:46:40Z</time>
      </trkpt>
      <trkpt lat="44.8783" lon="0.55314">
        <ele>108.7662354</ele>
        <time>2013-08-11T09:46:48Z</time>
      </trkpt>
      <trkpt lat="44.87827" lon="0.55269">
        <ele>110.208252</ele>
        <time>2013-08-11T09:46:56Z</time>
      </trkpt>
      <trkpt lat="44.87824" lon="0.55244">
        <ele>111.6502686</ele>
        <time>2013-08-11T09:47:01Z</time>
      </trkpt>
      <trkpt lat="44.87813" lon="0.55241">
        <ele>112.1309814</ele>
        <time>2013-08-11T09:47:05Z</time>
      </trkpt>
      <trkpt lat="44.87785" lon="0.55253">
        <ele>112.1309814</ele>
        <time>2013-08-11T09:47:11Z</time>
      </trkpt>
      <trkpt lat="44.87757" lon="0.55265">
        <ele>112.1309814</ele>
        <time>2013-08-11T09:47:16Z</time>
      </trkpt>
      <trkpt lat="44.87715" lon="0.55274">
        <ele>111.1695557</ele>
        <time>2013-08-11T09:47:23Z</time>
      </trkpt>
      <trkpt lat="44.87679" lon="0.55277">
        <ele>108.7662354</ele>
        <time>2013-08-11T09:47:29Z</time>
      </trkpt>
      <trkpt lat="44.87667" lon="0.55277">
        <ele>107.3243408</ele>
        <time>2013-08-11T09:47:31Z</time>
      </trkpt>
      <trkpt lat="44.87645" lon="0.55283">
        <ele>106.8436279</ele>
        <time>2013-08-11T09:47:35Z</time>
      </trkpt>
      <trkpt lat="44.87604" lon="0.55306">
        <ele>105.4017334</ele>
        <time>2013-08-11T09:47:42Z</time>
      </trkpt>
      <trkpt lat="44.87574" lon="0.55326">
        <ele>104.9210205</ele>
        <time>2013-08-11T09:47:47Z</time>
      </trkpt>
      <trkpt lat="44.87547" lon="0.55346">
        <ele>102.5177002</ele>
        <time>2013-08-11T09:47:52Z</time>
      </trkpt>
      <trkpt lat="44.87517" lon="0.55381">
        <ele>100.5950928</ele>
        <time>2013-08-11T09:47:58Z</time>
      </trkpt>
      <trkpt lat="44.87467" lon="0.5544">
        <ele>102.5177002</ele>
        <time>2013-08-11T09:48:07Z</time>
      </trkpt>
      <trkpt lat="44.8743" lon="0.55481">
        <ele>101.5563965</ele>
        <time>2013-08-11T09:48:13Z</time>
      </trkpt>
      <trkpt lat="44.87414" lon="0.55498">
        <ele>100.5950928</ele>
        <time>2013-08-11T09:48:16Z</time>
      </trkpt>
      <trkpt lat="44.87406" lon="0.55501">
        <ele>100.114502</ele>
        <time>2013-08-11T09:48:19Z</time>
      </trkpt>
      <trkpt lat="44.874" lon="0.55493">
        <ele>100.114502</ele>
        <time>2013-08-11T09:48:21Z</time>
      </trkpt>
      <trkpt lat="44.87381" lon="0.55455">
        <ele>99.6337891</ele>
        <time>2013-08-11T09:48:29Z</time>
      </trkpt>
      <trkpt lat="44.87362" lon="0.55428">
        <ele>99.1530762</ele>
        <time>2013-08-11T09:48:35Z</time>
      </trkpt>
      <trkpt lat="44.8734" lon="0.55403">
        <ele>98.6724854</ele>
        <time>2013-08-11T09:48:42Z</time>
      </trkpt>
      <trkpt lat="44.87337" lon="0.55399">
        <ele>98.6724854</ele>
        <time>2013-08-11T09:48:43Z</time>
      </trkpt>
      <trkpt lat="44.87312" lon="0.55377">
        <ele>100.114502</ele>
        <time>2013-08-11T09:48:50Z</time>
      </trkpt>
      <trkpt lat="44.87275" lon="0.55354">
        <ele>101.0756836</ele>
        <time>2013-08-11T09:49:00Z</time>
      </trkpt>
      <trkpt lat="44.87268" lon="0.55342">
        <ele>102.0371094</ele>
        <time>2013-08-11T09:49:04Z</time>
      </trkpt>
      <trkpt lat="44.87267" lon="0.55322">
        <ele>102.0371094</ele>
        <time>2013-08-11T09:49:09Z</time>
      </trkpt>
      <trkpt lat="44.87268" lon="0.55288">
        <ele>102.998291</ele>
        <time>2013-08-11T09:49:17Z</time>
      </trkpt>
      <trkpt lat="44.8727" lon="0.55243">
        <ele>102.5177002</ele>
        <time>2013-08-11T09:49:27Z</time>
      </trkpt>
      <trkpt lat="44.87272" lon="0.55226">
        <ele>102.5177002</ele>
        <time>2013-08-11T09:49:31Z</time>
      </trkpt>
      <trkpt lat="44.87272" lon="0.55208">
        <ele>102.998291</ele>
        <time>2013-08-11T09:49:35Z</time>
      </trkpt>
      <trkpt lat="44.87274" lon="0.55171">
        <ele>103.4790039</ele>
        <time>2013-08-11T09:49:43Z</time>
      </trkpt>
      <trkpt lat="44.87275" lon="0.55151">
        <ele>104.4404297</ele>
        <time>2013-08-11T09:49:48Z</time>
      </trkpt>
      <trkpt lat="44.87281" lon="0.55138">
        <ele>105.8824463</ele>
        <time>2013-08-11T09:49:53Z</time>
      </trkpt>
      <trkpt lat="44.87286" lon="0.55132">
        <ele>105.4017334</ele>
        <time>2013-08-11T09:49:56Z</time>
      </trkpt>
      <trkpt lat="44.87295" lon="0.55123">
        <ele>109.2469482</ele>
        <time>2013-08-11T09:50:01Z</time>
      </trkpt>
      <trkpt lat="44.87297" lon="0.55118">
        <ele>111.1695557</ele>
        <time>2013-08-11T09:50:03Z</time>
      </trkpt>
      <trkpt lat="44.87298" lon="0.55101">
        <ele>114.0535889</ele>
        <time>2013-08-11T09:50:09Z</time>
      </trkpt>
      <trkpt lat="44.87297" lon="0.55092">
        <ele>112.6115723</ele>
        <time>2013-08-11T09:50:12Z</time>
      </trkpt>
      <trkpt lat="44.87301" lon="0.55077">
        <ele>110.6888428</ele>
        <time>2013-08-11T09:50:18Z</time>
      </trkpt>
      <trkpt lat="44.87301" lon="0.55061">
        <ele>110.208252</ele>
        <time>2013-08-11T09:50:23Z</time>
      </trkpt>
      <trkpt lat="44.87301" lon="0.55052">
        <ele>110.208252</ele>
        <time>2013-08-11T09:50:26Z</time>
      </trkpt>
      <trkpt lat="44.87302" lon="0.55032">
        <ele>106.3630371</ele>
        <time>2013-08-11T09:50:33Z</time>
      </trkpt>
      <trkpt lat="44.87301" lon="0.55021">
        <ele>106.8436279</ele>
        <time>2013-08-11T09:50:36Z</time>
      </trkpt>
      <trkpt lat="44.87295" lon="0.54984">
        <ele>107.8050537</ele>
        <time>2013-08-11T09:50:45Z</time>
      </trkpt>
      <trkpt lat="44.87289" lon="0.54949">
        <ele>110.208252</ele>
        <time>2013-08-11T09:50:52Z</time>
      </trkpt>
      <trkpt lat="44.87284" lon="0.54914">
        <ele>110.6888428</ele>
        <time>2013-08-11T09:50:59Z</time>
      </trkpt>
      <trkpt lat="44.87279" lon="0.5488">
        <ele>110.208252</ele>
        <time>2013-08-11T09:51:05Z</time>
      </trkpt>
      <trkpt lat="44.87271" lon="0.54849">
        <ele>109.2469482</ele>
        <time>2013-08-11T09:51:10Z</time>
      </trkpt>
      <trkpt lat="44.87252" lon="0.54796">
        <ele>108.2856445</ele>
        <time>2013-08-11T09:51:18Z</time>
      </trkpt>
      <trkpt lat="44.87241" lon="0.54743">
        <ele>107.8050537</ele>
        <time>2013-08-11T09:51:26Z</time>
      </trkpt>
      <trkpt lat="44.87239" lon="0.54731">
        <ele>107.3243408</ele>
        <time>2013-08-11T09:51:28Z</time>
      </trkpt>
      <trkpt lat="44.87231" lon="0.54724">
        <ele>105.8824463</ele>
        <time>2013-08-11T09:51:31Z</time>
      </trkpt>
      <trkpt lat="44.87202" lon="0.5473">
        <ele>104.4404297</ele>
        <time>2013-08-11T09:51:37Z</time>
      </trkpt>
      <trkpt lat="44.87191" lon="0.54733">
        <ele>103.4790039</ele>
        <time>2013-08-11T09:51:39Z</time>
      </trkpt>
      <trkpt lat="44.87174" lon="0.54735">
        <ele>102.998291</ele>
        <time>2013-08-11T09:51:42Z</time>
      </trkpt>
      <trkpt lat="44.87161" lon="0.54748">
        <ele>102.5177002</ele>
        <time>2013-08-11T09:51:46Z</time>
      </trkpt>
      <trkpt lat="44.87165" lon="0.5477">
        <ele>102.5177002</ele>
        <time>2013-08-11T09:51:50Z</time>
      </trkpt>
      <trkpt lat="44.87168" lon="0.54801">
        <ele>102.5177002</ele>
        <time>2013-08-11T09:51:55Z</time>
      </trkpt>
      <trkpt lat="44.87159" lon="0.54822">
        <ele>102.0371094</ele>
        <time>2013-08-11T09:51:59Z</time>
      </trkpt>
      <trkpt lat="44.87149" lon="0.54828">
        <ele>102.0371094</ele>
        <time>2013-08-11T09:52:01Z</time>
      </trkpt>
      <trkpt lat="44.8711" lon="0.54846">
        <ele>101.5563965</ele>
        <time>2013-08-11T09:52:08Z</time>
      </trkpt>
      <trkpt lat="44.87087" lon="0.5486">
        <ele>100.5950928</ele>
        <time>2013-08-11T09:52:12Z</time>
      </trkpt>
      <trkpt lat="44.87081" lon="0.54882">
        <ele>101.0756836</ele>
        <time>2013-08-11T09:52:16Z</time>
      </trkpt>
      <trkpt lat="44.87079" lon="0.54899">
        <ele>101.0756836</ele>
        <time>2013-08-11T09:52:19Z</time>
      </trkpt>
      <trkpt lat="44.8707" lon="0.54906">
        <ele>100.5950928</ele>
        <time>2013-08-11T09:52:21Z</time>
      </trkpt>
      <trkpt lat="44.8703" lon="0.54934">
        <ele>98.1918945</ele>
        <time>2013-08-11T09:52:28Z</time>
      </trkpt>
      <trkpt lat="44.86979" lon="0.54979">
        <ele>96.2692871</ele>
        <time>2013-08-11T09:52:36Z</time>
      </trkpt>
      <trkpt lat="44.86931" lon="0.55024">
        <ele>94.3465576</ele>
        <time>2013-08-11T09:52:44Z</time>
      </trkpt>
      <trkpt lat="44.86917" lon="0.55036">
        <ele>93.3851318</ele>
        <time>2013-08-11T09:52:47Z</time>
      </trkpt>
      <trkpt lat="44.86905" lon="0.55035">
        <ele>92.4239502</ele>
        <time>2013-08-11T09:52:51Z</time>
      </trkpt>
      <trkpt lat="44.86903" lon="0.5502">
        <ele>91.9432373</ele>
        <time>2013-08-11T09:52:54Z</time>
      </trkpt>
      <trkpt lat="44.86901" lon="0.55016">
        <ele>91.9432373</ele>
        <time>2013-08-11T09:52:55Z</time>
      </trkpt>
      <trkpt lat="44.86889" lon="0.54985">
        <ele>90.9819336</ele>
        <time>2013-08-11T09:53:01Z</time>
      </trkpt>
      <trkpt lat="44.86887" lon="0.54972">
        <ele>90.9819336</ele>
        <time>2013-08-11T09:53:03Z</time>
      </trkpt>
      <trkpt lat="44.86876" lon="0.54962">
        <ele>90.0206299</ele>
        <time>2013-08-11T09:53:07Z</time>
      </trkpt>
      <trkpt lat="44.86868" lon="0.54957">
        <ele>92.904541</ele>
        <time>2013-08-11T09:53:10Z</time>
      </trkpt>
      <trkpt lat="44.86867" lon="0.54953">
        <ele>92.904541</ele>
        <time>2013-08-11T09:53:11Z</time>
      </trkpt>
      <trkpt lat="44.86867" lon="0.54953">
        <ele>92.904541</ele>
        <time>2013-08-11T09:53:11Z</time>
      </trkpt>
      <trkpt lat="44.86858" lon="0.54941">
        <ele>94.3465576</ele>
        <time>2013-08-11T09:53:14Z</time>
      </trkpt>
      <trkpt lat="44.86841" lon="0.54924">
        <ele>96.2692871</ele>
        <time>2013-08-11T09:53:19Z</time>
      </trkpt>
      <trkpt lat="44.86823" lon="0.54909">
        <ele>95.7884521</ele>
        <time>2013-08-11T09:53:24Z</time>
      </trkpt>
      <trkpt lat="44.86796" lon="0.54902">
        <ele>92.904541</ele>
        <time>2013-08-11T09:53:29Z</time>
      </trkpt>
      <trkpt lat="44.86779" lon="0.54895">
        <ele>90.9819336</ele>
        <time>2013-08-11T09:53:32Z</time>
      </trkpt>
      <trkpt lat="44.86751" lon="0.54875">
        <ele>94.8271484</ele>
        <time>2013-08-11T09:53:37Z</time>
      </trkpt>
      <trkpt lat="44.86721" lon="0.54867">
        <ele>92.904541</ele>
        <time>2013-08-11T09:53:42Z</time>
      </trkpt>
      <trkpt lat="44.86697" lon="0.54845">
        <ele>92.904541</ele>
        <time>2013-08-11T09:53:47Z</time>
      </trkpt>
      <trkpt lat="44.86688" lon="0.54832">
        <ele>89.539917</ele>
        <time>2013-08-11T09:53:51Z</time>
      </trkpt>
      <trkpt lat="44.86684" lon="0.54806">
        <ele>88.5787354</ele>
        <time>2013-08-11T09:53:57Z</time>
      </trkpt>
      <trkpt lat="44.86671" lon="0.54797">
        <ele>88.5787354</ele>
        <time>2013-08-11T09:54:00Z</time>
      </trkpt>
      <trkpt lat="44.86667" lon="0.54795">
        <ele>88.5787354</ele>
        <time>2013-08-11T09:54:01Z</time>
      </trkpt>
      <trkpt lat="44.86648" lon="0.54786">
        <ele>89.0593262</ele>
        <time>2013-08-11T09:54:08Z</time>
      </trkpt>
      <trkpt lat="44.86635" lon="0.54775">
        <ele>86.6560059</ele>
        <time>2013-08-11T09:54:12Z</time>
      </trkpt>
      <trkpt lat="44.86622" lon="0.54772">
        <ele>83.2913818</ele>
        <time>2013-08-11T09:54:16Z</time>
      </trkpt>
      <trkpt lat="44.86616" lon="0.54763">
        <ele>81.3687744</ele>
        <time>2013-08-11T09:54:19Z</time>
      </trkpt>
      <trkpt lat="44.86609" lon="0.54726">
        <ele>78.9654541</ele>
        <time>2013-08-11T09:54:24Z</time>
      </trkpt>
      <trkpt lat="44.86602" lon="0.54703">
        <ele>79.4460449</ele>
        <time>2013-08-11T09:54:27Z</time>
      </trkpt>
      <trkpt lat="44.86599" lon="0.54687">
        <ele>78.4847412</ele>
        <time>2013-08-11T09:54:29Z</time>
      </trkpt>
      <trkpt lat="44.8659" lon="0.54665">
        <ele>78.0040283</ele>
        <time>2013-08-11T09:54:32Z</time>
      </trkpt>
      <trkpt lat="44.86585" lon="0.5463">
        <ele>78.4847412</ele>
        <time>2013-08-11T09:54:36Z</time>
      </trkpt>
      <trkpt lat="44.86575" lon="0.54587">
        <ele>80.8881836</ele>
        <time>2013-08-11T09:54:41Z</time>
      </trkpt>
      <trkpt lat="44.86565" lon="0.54551">
        <ele>80.4074707</ele>
        <time>2013-08-11T09:54:46Z</time>
      </trkpt>
      <trkpt lat="44.86562" lon="0.54528">
        <ele>80.8881836</ele>
        <time>2013-08-11T09:54:50Z</time>
      </trkpt>
      <trkpt lat="44.8656" lon="0.54521">
        <ele>80.8881836</ele>
        <time>2013-08-11T09:54:51Z</time>
      </trkpt>
      <trkpt lat="44.86555" lon="0.54509">
        <ele>79.9266357</ele>
        <time>2013-08-11T09:54:53Z</time>
      </trkpt>
      <trkpt lat="44.86547" lon="0.54487">
        <ele>78.4847412</ele>
        <time>2013-08-11T09:54:57Z</time>
      </trkpt>
      <trkpt lat="44.86548" lon="0.54461">
        <ele>80.4074707</ele>
        <time>2013-08-11T09:55:03Z</time>
      </trkpt>
      <trkpt lat="44.86552" lon="0.54454">
        <ele>79.9266357</ele>
        <time>2013-08-11T09:55:05Z</time>
      </trkpt>
      <trkpt lat="44.86559" lon="0.54432">
        <ele>76.5621338</ele>
        <time>2013-08-11T09:55:10Z</time>
      </trkpt>
      <trkpt lat="44.86547" lon="0.54403">
        <ele>74.1588135</ele>
        <time>2013-08-11T09:55:15Z</time>
      </trkpt>
      <trkpt lat="44.86541" lon="0.54389">
        <ele>73.1976318</ele>
        <time>2013-08-11T09:55:17Z</time>
      </trkpt>
      <trkpt lat="44.86525" lon="0.5435">
        <ele>75.1202393</ele>
        <time>2013-08-11T09:55:23Z</time>
      </trkpt>
      <trkpt lat="44.8652" lon="0.5432">
        <ele>77.5234375</ele>
        <time>2013-08-11T09:55:27Z</time>
      </trkpt>
      <trkpt lat="44.86523" lon="0.54307">
        <ele>78.9654541</ele>
        <time>2013-08-11T09:55:30Z</time>
      </trkpt>
      <trkpt lat="44.86532" lon="0.54302">
        <ele>79.4460449</ele>
        <time>2013-08-11T09:55:34Z</time>
      </trkpt>
      <trkpt lat="44.86544" lon="0.54293">
        <ele>78.9654541</ele>
        <time>2013-08-11T09:55:37Z</time>
      </trkpt>
      <trkpt lat="44.86575" lon="0.54276">
        <ele>78.9654541</ele>
        <time>2013-08-11T09:55:43Z</time>
      </trkpt>
      <trkpt lat="44.86587" lon="0.54253">
        <ele>78.4847412</ele>
        <time>2013-08-11T09:55:47Z</time>
      </trkpt>
      <trkpt lat="44.86588" lon="0.54246">
        <ele>78.4847412</ele>
        <time>2013-08-11T09:55:48Z</time>
      </trkpt>
      <trkpt lat="44.86588" lon="0.54232">
        <ele>77.5234375</ele>
        <time>2013-08-11T09:55:50Z</time>
      </trkpt>
      <trkpt lat="44.8659" lon="0.54206">
        <ele>77.0428467</ele>
        <time>2013-08-11T09:55:54Z</time>
      </trkpt>
      <trkpt lat="44.86591" lon="0.54193">
        <ele>77.0428467</ele>
        <time>2013-08-11T09:55:58Z</time>
      </trkpt>
      <trkpt lat="44.8659" lon="0.54193">
        <ele>77.0428467</ele>
        <time>2013-08-11T09:56:01Z</time>
      </trkpt>
    </trkseg>
  </trk>
</gpx>